<?xml version="1.0" encoding="UTF-8" standalone="no" ?>
<gpx xmlns="http://www.topografix.com/GPX/1/1" xmlns:xsi="http://www.w3.org/2001/XMLSchema-instance" xsi:schemaLocation="http://www.topografix.com/GPX/1/1 http://www.topografix.com/GPX/1/1/gpx.xsd" version="1.1" creator="VisuGPX - https://www.visugpx.com">
  <metadata>
    <name>20110412_Dent du Chat - Mollard Noir</name>
    <desc><![CDATA[Bourdeau - Dent du Chat - Mollard Noir - Bourget du Lac]]></desc>
  </metadata>
  <trk>
    <name><![CDATA[12-AVR-11 16:13:43]]></name>
    <trkseg>
      <trkpt lat="45.67649" lon="5.85131">
        <ele>267.86</ele>
        <time>2011-04-12T07:33:53Z</time>
      </trkpt>
      <trkpt lat="45.67652" lon="5.85132">
        <ele>267.86</ele>
        <time>2011-04-12T07:33:54Z</time>
      </trkpt>
      <trkpt lat="45.6766" lon="5.85141">
        <ele>270.75</ele>
        <time>2011-04-12T07:34:01Z</time>
      </trkpt>
      <trkpt lat="45.67661" lon="5.85142">
        <ele>276.04</ele>
        <time>2011-04-12T07:34:03Z</time>
      </trkpt>
      <trkpt lat="45.67661" lon="5.85143">
        <ele>280.36</ele>
        <time>2011-04-12T07:34:05Z</time>
      </trkpt>
      <trkpt lat="45.67661" lon="5.85143">
        <ele>285.17</ele>
        <time>2011-04-12T07:34:07Z</time>
      </trkpt>
      <trkpt lat="45.67661" lon="5.85143">
        <ele>289.49</ele>
        <time>2011-04-12T07:34:09Z</time>
      </trkpt>
      <trkpt lat="45.67661" lon="5.85144">
        <ele>293.34</ele>
        <time>2011-04-12T07:34:11Z</time>
      </trkpt>
      <trkpt lat="45.67662" lon="5.85144">
        <ele>296.7</ele>
        <time>2011-04-12T07:34:13Z</time>
      </trkpt>
      <trkpt lat="45.67662" lon="5.85145">
        <ele>300.07</ele>
        <time>2011-04-12T07:34:15Z</time>
      </trkpt>
      <trkpt lat="45.67662" lon="5.85145">
        <ele>303.43</ele>
        <time>2011-04-12T07:34:17Z</time>
      </trkpt>
      <trkpt lat="45.67662" lon="5.85145">
        <ele>307.76</ele>
        <time>2011-04-12T07:34:20Z</time>
      </trkpt>
      <trkpt lat="45.67663" lon="5.85146">
        <ele>312.09</ele>
        <time>2011-04-12T07:34:23Z</time>
      </trkpt>
      <trkpt lat="45.67663" lon="5.85146">
        <ele>315.93</ele>
        <time>2011-04-12T07:34:26Z</time>
      </trkpt>
      <trkpt lat="45.67664" lon="5.85147">
        <ele>319.3</ele>
        <time>2011-04-12T07:34:29Z</time>
      </trkpt>
      <trkpt lat="45.67664" lon="5.85146">
        <ele>323.14</ele>
        <time>2011-04-12T07:34:33Z</time>
      </trkpt>
      <trkpt lat="45.67664" lon="5.85147">
        <ele>326.5</ele>
        <time>2011-04-12T07:34:37Z</time>
      </trkpt>
      <trkpt lat="45.67664" lon="5.85145">
        <ele>329.87</ele>
        <time>2011-04-12T07:34:42Z</time>
      </trkpt>
      <trkpt lat="45.67664" lon="5.85144">
        <ele>333.23</ele>
        <time>2011-04-12T07:34:47Z</time>
      </trkpt>
      <trkpt lat="45.67664" lon="5.85144">
        <ele>336.6</ele>
        <time>2011-04-12T07:34:52Z</time>
      </trkpt>
      <trkpt lat="45.67664" lon="5.85144">
        <ele>336.12</ele>
        <time>2011-04-12T07:34:53Z</time>
      </trkpt>
      <trkpt lat="45.67664" lon="5.85142">
        <ele>338.52</ele>
        <time>2011-04-12T07:34:56Z</time>
      </trkpt>
      <trkpt lat="45.67664" lon="5.85141">
        <ele>339.96</ele>
        <time>2011-04-12T07:34:58Z</time>
      </trkpt>
      <trkpt lat="45.67663" lon="5.85141">
        <ele>339.96</ele>
        <time>2011-04-12T07:34:59Z</time>
      </trkpt>
      <trkpt lat="45.67658" lon="5.85139">
        <ele>341.41</ele>
        <time>2011-04-12T07:35:03Z</time>
      </trkpt>
      <trkpt lat="45.6765" lon="5.85144">
        <ele>344.77</ele>
        <time>2011-04-12T07:35:18Z</time>
      </trkpt>
      <trkpt lat="45.67657" lon="5.85145">
        <ele>344.77</ele>
        <time>2011-04-12T07:35:39Z</time>
      </trkpt>
      <trkpt lat="45.67664" lon="5.85147">
        <ele>344.29</ele>
        <time>2011-04-12T07:35:50Z</time>
      </trkpt>
      <trkpt lat="45.67659" lon="5.85152">
        <ele>343.81</ele>
        <time>2011-04-12T07:36:01Z</time>
      </trkpt>
      <trkpt lat="45.67659" lon="5.85153">
        <ele>343.81</ele>
        <time>2011-04-12T07:36:15Z</time>
      </trkpt>
      <trkpt lat="45.67659" lon="5.85153">
        <ele>343.81</ele>
        <time>2011-04-12T07:36:32Z</time>
      </trkpt>
      <trkpt lat="45.67658" lon="5.85156">
        <ele>344.29</ele>
        <time>2011-04-12T07:36:45Z</time>
      </trkpt>
      <trkpt lat="45.67654" lon="5.85161">
        <ele>344.29</ele>
        <time>2011-04-12T07:36:57Z</time>
      </trkpt>
      <trkpt lat="45.67653" lon="5.85161">
        <ele>344.29</ele>
        <time>2011-04-12T07:37:08Z</time>
      </trkpt>
      <trkpt lat="45.67653" lon="5.85161">
        <ele>344.29</ele>
        <time>2011-04-12T07:37:23Z</time>
      </trkpt>
      <trkpt lat="45.67651" lon="5.85162">
        <ele>343.33</ele>
        <time>2011-04-12T07:37:39Z</time>
      </trkpt>
      <trkpt lat="45.67642" lon="5.85169">
        <ele>345.25</ele>
        <time>2011-04-12T07:37:51Z</time>
      </trkpt>
      <trkpt lat="45.67638" lon="5.85169">
        <ele>345.25</ele>
        <time>2011-04-12T07:37:55Z</time>
      </trkpt>
      <trkpt lat="45.6763" lon="5.85156">
        <ele>347.17</ele>
        <time>2011-04-12T07:38:09Z</time>
      </trkpt>
      <trkpt lat="45.6763" lon="5.85154">
        <ele>347.65</ele>
        <time>2011-04-12T07:38:10Z</time>
      </trkpt>
      <trkpt lat="45.67624" lon="5.85145">
        <ele>347.65</ele>
        <time>2011-04-12T07:38:19Z</time>
      </trkpt>
      <trkpt lat="45.67622" lon="5.85144">
        <ele>348.62</ele>
        <time>2011-04-12T07:38:21Z</time>
      </trkpt>
      <trkpt lat="45.67612" lon="5.85139">
        <ele>350.54</ele>
        <time>2011-04-12T07:38:33Z</time>
      </trkpt>
      <trkpt lat="45.67601" lon="5.85139">
        <ele>352.94</ele>
        <time>2011-04-12T07:38:48Z</time>
      </trkpt>
      <trkpt lat="45.676" lon="5.8514">
        <ele>352.94</ele>
        <time>2011-04-12T07:38:49Z</time>
      </trkpt>
      <trkpt lat="45.67598" lon="5.85142">
        <ele>352.94</ele>
        <time>2011-04-12T07:38:52Z</time>
      </trkpt>
      <trkpt lat="45.67586" lon="5.85147">
        <ele>356.31</ele>
        <time>2011-04-12T07:39:05Z</time>
      </trkpt>
      <trkpt lat="45.67582" lon="5.85136">
        <ele>358.23</ele>
        <time>2011-04-12T07:39:18Z</time>
      </trkpt>
      <trkpt lat="45.6758" lon="5.85131">
        <ele>359.67</ele>
        <time>2011-04-12T07:39:23Z</time>
      </trkpt>
      <trkpt lat="45.67572" lon="5.85115">
        <ele>360.15</ele>
        <time>2011-04-12T07:39:34Z</time>
      </trkpt>
      <trkpt lat="45.67569" lon="5.8511">
        <ele>361.11</ele>
        <time>2011-04-12T07:39:40Z</time>
      </trkpt>
      <trkpt lat="45.67568" lon="5.85106">
        <ele>362.07</ele>
        <time>2011-04-12T07:39:44Z</time>
      </trkpt>
      <trkpt lat="45.6757" lon="5.85089">
        <ele>362.55</ele>
        <time>2011-04-12T07:39:55Z</time>
      </trkpt>
      <trkpt lat="45.67572" lon="5.8508">
        <ele>363.04</ele>
        <time>2011-04-12T07:40:08Z</time>
      </trkpt>
      <trkpt lat="45.67569" lon="5.85093">
        <ele>363.04</ele>
        <time>2011-04-12T07:40:18Z</time>
      </trkpt>
      <trkpt lat="45.67569" lon="5.85102">
        <ele>361.59</ele>
        <time>2011-04-12T07:40:25Z</time>
      </trkpt>
      <trkpt lat="45.67582" lon="5.85121">
        <ele>359.67</ele>
        <time>2011-04-12T07:40:41Z</time>
      </trkpt>
      <trkpt lat="45.67588" lon="5.85137">
        <ele>357.27</ele>
        <time>2011-04-12T07:40:55Z</time>
      </trkpt>
      <trkpt lat="45.67585" lon="5.85143">
        <ele>357.27</ele>
        <time>2011-04-12T07:41:01Z</time>
      </trkpt>
      <trkpt lat="45.67564" lon="5.85152">
        <ele>358.71</ele>
        <time>2011-04-12T07:41:16Z</time>
      </trkpt>
      <trkpt lat="45.67552" lon="5.8515">
        <ele>360.15</ele>
        <time>2011-04-12T07:41:27Z</time>
      </trkpt>
      <trkpt lat="45.67549" lon="5.85148">
        <ele>361.11</ele>
        <time>2011-04-12T07:41:31Z</time>
      </trkpt>
      <trkpt lat="45.67541" lon="5.85145">
        <ele>361.59</ele>
        <time>2011-04-12T07:41:41Z</time>
      </trkpt>
      <trkpt lat="45.67529" lon="5.85143">
        <ele>363.04</ele>
        <time>2011-04-12T07:41:54Z</time>
      </trkpt>
      <trkpt lat="45.67526" lon="5.8514">
        <ele>363.52</ele>
        <time>2011-04-12T07:41:58Z</time>
      </trkpt>
      <trkpt lat="45.67509" lon="5.85137">
        <ele>364.96</ele>
        <time>2011-04-12T07:42:13Z</time>
      </trkpt>
      <trkpt lat="45.67495" lon="5.85138">
        <ele>367.36</ele>
        <time>2011-04-12T07:42:27Z</time>
      </trkpt>
      <trkpt lat="45.67484" lon="5.85139">
        <ele>368.8</ele>
        <time>2011-04-12T07:42:39Z</time>
      </trkpt>
      <trkpt lat="45.6747" lon="5.85139">
        <ele>371.21</ele>
        <time>2011-04-12T07:42:54Z</time>
      </trkpt>
      <trkpt lat="45.67458" lon="5.85138">
        <ele>373.13</ele>
        <time>2011-04-12T07:43:05Z</time>
      </trkpt>
      <trkpt lat="45.67445" lon="5.8513">
        <ele>374.57</ele>
        <time>2011-04-12T07:43:18Z</time>
      </trkpt>
      <trkpt lat="45.67433" lon="5.85128">
        <ele>377.45</ele>
        <time>2011-04-12T07:43:32Z</time>
      </trkpt>
      <trkpt lat="45.67421" lon="5.85127">
        <ele>380.34</ele>
        <time>2011-04-12T07:43:45Z</time>
      </trkpt>
      <trkpt lat="45.67412" lon="5.85123">
        <ele>382.26</ele>
        <time>2011-04-12T07:43:57Z</time>
      </trkpt>
      <trkpt lat="45.67402" lon="5.85115">
        <ele>384.18</ele>
        <time>2011-04-12T07:44:10Z</time>
      </trkpt>
      <trkpt lat="45.67393" lon="5.85108">
        <ele>386.11</ele>
        <time>2011-04-12T07:44:23Z</time>
      </trkpt>
      <trkpt lat="45.67383" lon="5.85097">
        <ele>388.99</ele>
        <time>2011-04-12T07:44:37Z</time>
      </trkpt>
      <trkpt lat="45.67374" lon="5.85088">
        <ele>390.91</ele>
        <time>2011-04-12T07:44:50Z</time>
      </trkpt>
      <trkpt lat="45.67373" lon="5.85072">
        <ele>392.36</ele>
        <time>2011-04-12T07:45:00Z</time>
      </trkpt>
      <trkpt lat="45.67382" lon="5.85065">
        <ele>395.72</ele>
        <time>2011-04-12T07:45:12Z</time>
      </trkpt>
      <trkpt lat="45.67387" lon="5.85063">
        <ele>396.68</ele>
        <time>2011-04-12T07:45:17Z</time>
      </trkpt>
      <trkpt lat="45.67392" lon="5.8505">
        <ele>398.12</ele>
        <time>2011-04-12T07:45:26Z</time>
      </trkpt>
      <trkpt lat="45.67396" lon="5.85041">
        <ele>398.6</ele>
        <time>2011-04-12T07:45:33Z</time>
      </trkpt>
      <trkpt lat="45.67406" lon="5.85025">
        <ele>400.05</ele>
        <time>2011-04-12T07:45:47Z</time>
      </trkpt>
      <trkpt lat="45.6741" lon="5.85017">
        <ele>401.49</ele>
        <time>2011-04-12T07:45:53Z</time>
      </trkpt>
      <trkpt lat="45.67429" lon="5.85009">
        <ele>403.41</ele>
        <time>2011-04-12T07:46:09Z</time>
      </trkpt>
      <trkpt lat="45.67437" lon="5.85006">
        <ele>404.37</ele>
        <time>2011-04-12T07:46:17Z</time>
      </trkpt>
      <trkpt lat="45.67444" lon="5.84997">
        <ele>407.26</ele>
        <time>2011-04-12T07:46:26Z</time>
      </trkpt>
      <trkpt lat="45.67443" lon="5.84981">
        <ele>407.74</ele>
        <time>2011-04-12T07:46:39Z</time>
      </trkpt>
      <trkpt lat="45.67441" lon="5.8496">
        <ele>410.14</ele>
        <time>2011-04-12T07:46:54Z</time>
      </trkpt>
      <trkpt lat="45.67441" lon="5.84956">
        <ele>410.62</ele>
        <time>2011-04-12T07:46:56Z</time>
      </trkpt>
      <trkpt lat="45.67449" lon="5.84935">
        <ele>413.02</ele>
        <time>2011-04-12T07:47:11Z</time>
      </trkpt>
      <trkpt lat="45.67454" lon="5.84924">
        <ele>415.43</ele>
        <time>2011-04-12T07:47:21Z</time>
      </trkpt>
      <trkpt lat="45.67461" lon="5.84911">
        <ele>417.35</ele>
        <time>2011-04-12T07:47:34Z</time>
      </trkpt>
      <trkpt lat="45.67471" lon="5.84891">
        <ele>418.79</ele>
        <time>2011-04-12T07:47:47Z</time>
      </trkpt>
      <trkpt lat="45.67484" lon="5.84879">
        <ele>421.19</ele>
        <time>2011-04-12T07:48:02Z</time>
      </trkpt>
      <trkpt lat="45.67497" lon="5.8488">
        <ele>422.16</ele>
        <time>2011-04-12T07:48:14Z</time>
      </trkpt>
      <trkpt lat="45.67511" lon="5.84882">
        <ele>425.52</ele>
        <time>2011-04-12T07:48:28Z</time>
      </trkpt>
      <trkpt lat="45.67511" lon="5.84877">
        <ele>426</ele>
        <time>2011-04-12T07:48:33Z</time>
      </trkpt>
      <trkpt lat="45.67503" lon="5.8487">
        <ele>428.89</ele>
        <time>2011-04-12T07:48:45Z</time>
      </trkpt>
      <trkpt lat="45.67493" lon="5.84864">
        <ele>429.37</ele>
        <time>2011-04-12T07:48:56Z</time>
      </trkpt>
      <trkpt lat="45.67482" lon="5.84856">
        <ele>432.73</ele>
        <time>2011-04-12T07:49:09Z</time>
      </trkpt>
      <trkpt lat="45.6748" lon="5.84854">
        <ele>433.69</ele>
        <time>2011-04-12T07:49:12Z</time>
      </trkpt>
      <trkpt lat="45.67474" lon="5.84851">
        <ele>435.13</ele>
        <time>2011-04-12T07:49:20Z</time>
      </trkpt>
      <trkpt lat="45.67465" lon="5.84843">
        <ele>435.61</ele>
        <time>2011-04-12T07:49:32Z</time>
      </trkpt>
      <trkpt lat="45.6746" lon="5.84841">
        <ele>437.54</ele>
        <time>2011-04-12T07:49:37Z</time>
      </trkpt>
      <trkpt lat="45.67446" lon="5.84838">
        <ele>440.42</ele>
        <time>2011-04-12T07:49:52Z</time>
      </trkpt>
      <trkpt lat="45.67434" lon="5.84834">
        <ele>442.34</ele>
        <time>2011-04-12T07:50:05Z</time>
      </trkpt>
      <trkpt lat="45.67423" lon="5.84832">
        <ele>444.75</ele>
        <time>2011-04-12T07:50:18Z</time>
      </trkpt>
      <trkpt lat="45.67419" lon="5.84835">
        <ele>445.71</ele>
        <time>2011-04-12T07:50:22Z</time>
      </trkpt>
      <trkpt lat="45.67406" lon="5.84841">
        <ele>448.11</ele>
        <time>2011-04-12T07:50:36Z</time>
      </trkpt>
      <trkpt lat="45.6739" lon="5.84838">
        <ele>451</ele>
        <time>2011-04-12T07:50:50Z</time>
      </trkpt>
      <trkpt lat="45.67378" lon="5.84839">
        <ele>452.92</ele>
        <time>2011-04-12T07:51:03Z</time>
      </trkpt>
      <trkpt lat="45.67373" lon="5.84839">
        <ele>453.4</ele>
        <time>2011-04-12T07:51:08Z</time>
      </trkpt>
      <trkpt lat="45.67363" lon="5.84849">
        <ele>454.84</ele>
        <time>2011-04-12T07:51:21Z</time>
      </trkpt>
      <trkpt lat="45.67362" lon="5.84863">
        <ele>456.28</ele>
        <time>2011-04-12T07:51:36Z</time>
      </trkpt>
      <trkpt lat="45.67364" lon="5.84869">
        <ele>456.76</ele>
        <time>2011-04-12T07:51:41Z</time>
      </trkpt>
      <trkpt lat="45.67363" lon="5.8489">
        <ele>460.13</ele>
        <time>2011-04-12T07:51:56Z</time>
      </trkpt>
      <trkpt lat="45.67359" lon="5.84906">
        <ele>463.01</ele>
        <time>2011-04-12T07:52:08Z</time>
      </trkpt>
      <trkpt lat="45.67343" lon="5.84915">
        <ele>466.38</ele>
        <time>2011-04-12T07:52:20Z</time>
      </trkpt>
      <trkpt lat="45.67342" lon="5.84916">
        <ele>466.38</ele>
        <time>2011-04-12T07:52:21Z</time>
      </trkpt>
      <trkpt lat="45.67341" lon="5.84917">
        <ele>466.86</ele>
        <time>2011-04-12T07:52:22Z</time>
      </trkpt>
      <trkpt lat="45.67321" lon="5.84923">
        <ele>469.26</ele>
        <time>2011-04-12T07:52:39Z</time>
      </trkpt>
      <trkpt lat="45.6731" lon="5.8493">
        <ele>472.63</ele>
        <time>2011-04-12T07:52:52Z</time>
      </trkpt>
      <trkpt lat="45.67299" lon="5.84934">
        <ele>474.55</ele>
        <time>2011-04-12T07:53:04Z</time>
      </trkpt>
      <trkpt lat="45.67286" lon="5.84938">
        <ele>477.91</ele>
        <time>2011-04-12T07:53:14Z</time>
      </trkpt>
      <trkpt lat="45.67275" lon="5.84923">
        <ele>477.43</ele>
        <time>2011-04-12T07:53:26Z</time>
      </trkpt>
      <trkpt lat="45.67278" lon="5.84915">
        <ele>476.47</ele>
        <time>2011-04-12T07:53:30Z</time>
      </trkpt>
      <trkpt lat="45.67297" lon="5.849">
        <ele>478.87</ele>
        <time>2011-04-12T07:53:46Z</time>
      </trkpt>
      <trkpt lat="45.673" lon="5.84896">
        <ele>480.8</ele>
        <time>2011-04-12T07:53:49Z</time>
      </trkpt>
      <trkpt lat="45.67306" lon="5.84877">
        <ele>482.24</ele>
        <time>2011-04-12T07:54:02Z</time>
      </trkpt>
      <trkpt lat="45.67305" lon="5.84875">
        <ele>482.24</ele>
        <time>2011-04-12T07:54:03Z</time>
      </trkpt>
      <trkpt lat="45.67299" lon="5.84874">
        <ele>485.6</ele>
        <time>2011-04-12T07:54:12Z</time>
      </trkpt>
      <trkpt lat="45.67286" lon="5.84879">
        <ele>486.56</ele>
        <time>2011-04-12T07:54:26Z</time>
      </trkpt>
      <trkpt lat="45.67273" lon="5.84878">
        <ele>489.45</ele>
        <time>2011-04-12T07:54:39Z</time>
      </trkpt>
      <trkpt lat="45.6726" lon="5.84879">
        <ele>490.89</ele>
        <time>2011-04-12T07:54:51Z</time>
      </trkpt>
      <trkpt lat="45.67254" lon="5.8488">
        <ele>493.29</ele>
        <time>2011-04-12T07:54:57Z</time>
      </trkpt>
      <trkpt lat="45.67249" lon="5.84878">
        <ele>493.77</ele>
        <time>2011-04-12T07:55:02Z</time>
      </trkpt>
      <trkpt lat="45.67244" lon="5.84875">
        <ele>495.7</ele>
        <time>2011-04-12T07:55:07Z</time>
      </trkpt>
      <trkpt lat="45.67234" lon="5.84866">
        <ele>497.62</ele>
        <time>2011-04-12T07:55:19Z</time>
      </trkpt>
      <trkpt lat="45.67224" lon="5.84861">
        <ele>500.02</ele>
        <time>2011-04-12T07:55:33Z</time>
      </trkpt>
      <trkpt lat="45.67218" lon="5.84859">
        <ele>501.95</ele>
        <time>2011-04-12T07:55:38Z</time>
      </trkpt>
      <trkpt lat="45.67207" lon="5.84851">
        <ele>503.39</ele>
        <time>2011-04-12T07:55:50Z</time>
      </trkpt>
      <trkpt lat="45.67196" lon="5.84841">
        <ele>504.83</ele>
        <time>2011-04-12T07:56:03Z</time>
      </trkpt>
      <trkpt lat="45.67186" lon="5.84832">
        <ele>506.75</ele>
        <time>2011-04-12T07:56:15Z</time>
      </trkpt>
      <trkpt lat="45.67174" lon="5.84824">
        <ele>509.16</ele>
        <time>2011-04-12T07:56:28Z</time>
      </trkpt>
      <trkpt lat="45.67162" lon="5.84816">
        <ele>511.08</ele>
        <time>2011-04-12T07:56:41Z</time>
      </trkpt>
      <trkpt lat="45.67152" lon="5.84812">
        <ele>513.96</ele>
        <time>2011-04-12T07:56:54Z</time>
      </trkpt>
      <trkpt lat="45.6715" lon="5.84811">
        <ele>514.44</ele>
        <time>2011-04-12T07:56:56Z</time>
      </trkpt>
      <trkpt lat="45.67139" lon="5.84807">
        <ele>515.4</ele>
        <time>2011-04-12T07:57:08Z</time>
      </trkpt>
      <trkpt lat="45.67132" lon="5.84802">
        <ele>517.33</ele>
        <time>2011-04-12T07:57:14Z</time>
      </trkpt>
      <trkpt lat="45.6712" lon="5.84786">
        <ele>518.29</ele>
        <time>2011-04-12T07:57:28Z</time>
      </trkpt>
      <trkpt lat="45.6712" lon="5.84783">
        <ele>522.13</ele>
        <time>2011-04-12T07:57:33Z</time>
      </trkpt>
      <trkpt lat="45.6712" lon="5.84783">
        <ele>518.77</ele>
        <time>2011-04-12T07:57:34Z</time>
      </trkpt>
      <trkpt lat="45.6712" lon="5.84783">
        <ele>518.77</ele>
        <time>2011-04-12T07:57:51Z</time>
      </trkpt>
      <trkpt lat="45.6712" lon="5.84783">
        <ele>518.29</ele>
        <time>2011-04-12T07:58:09Z</time>
      </trkpt>
      <trkpt lat="45.6712" lon="5.84783">
        <ele>518.29</ele>
        <time>2011-04-12T07:58:28Z</time>
      </trkpt>
      <trkpt lat="45.6712" lon="5.84783">
        <ele>518.29</ele>
        <time>2011-04-12T07:58:49Z</time>
      </trkpt>
      <trkpt lat="45.6712" lon="5.84782">
        <ele>518.77</ele>
        <time>2011-04-12T07:59:10Z</time>
      </trkpt>
      <trkpt lat="45.6712" lon="5.84782">
        <ele>518.29</ele>
        <time>2011-04-12T07:59:16Z</time>
      </trkpt>
      <trkpt lat="45.67119" lon="5.84782">
        <ele>518.77</ele>
        <time>2011-04-12T07:59:32Z</time>
      </trkpt>
      <trkpt lat="45.67119" lon="5.84782">
        <ele>518.29</ele>
        <time>2011-04-12T07:59:50Z</time>
      </trkpt>
      <trkpt lat="45.67119" lon="5.84781">
        <ele>518.77</ele>
        <time>2011-04-12T08:00:10Z</time>
      </trkpt>
      <trkpt lat="45.67119" lon="5.84781">
        <ele>518.29</ele>
        <time>2011-04-12T08:00:28Z</time>
      </trkpt>
      <trkpt lat="45.67119" lon="5.84781">
        <ele>518.77</ele>
        <time>2011-04-12T08:00:45Z</time>
      </trkpt>
      <trkpt lat="45.6712" lon="5.84782">
        <ele>518.29</ele>
        <time>2011-04-12T08:01:05Z</time>
      </trkpt>
      <trkpt lat="45.6712" lon="5.84782">
        <ele>519.73</ele>
        <time>2011-04-12T08:01:21Z</time>
      </trkpt>
      <trkpt lat="45.67119" lon="5.84782">
        <ele>519.73</ele>
        <time>2011-04-12T08:01:34Z</time>
      </trkpt>
      <trkpt lat="45.67119" lon="5.84782">
        <ele>519.25</ele>
        <time>2011-04-12T08:01:54Z</time>
      </trkpt>
      <trkpt lat="45.67119" lon="5.84782">
        <ele>519.25</ele>
        <time>2011-04-12T08:02:15Z</time>
      </trkpt>
      <trkpt lat="45.67119" lon="5.84782">
        <ele>518.77</ele>
        <time>2011-04-12T08:02:31Z</time>
      </trkpt>
      <trkpt lat="45.67125" lon="5.84771">
        <ele>520.69</ele>
        <time>2011-04-12T08:02:44Z</time>
      </trkpt>
      <trkpt lat="45.67137" lon="5.84763">
        <ele>522.13</ele>
        <time>2011-04-12T08:02:57Z</time>
      </trkpt>
      <trkpt lat="45.67145" lon="5.84758">
        <ele>523.58</ele>
        <time>2011-04-12T08:03:12Z</time>
      </trkpt>
      <trkpt lat="45.67155" lon="5.84749">
        <ele>524.54</ele>
        <time>2011-04-12T08:03:21Z</time>
      </trkpt>
      <trkpt lat="45.67158" lon="5.84745">
        <ele>527.42</ele>
        <time>2011-04-12T08:03:37Z</time>
      </trkpt>
      <trkpt lat="45.67156" lon="5.84746">
        <ele>527.42</ele>
        <time>2011-04-12T08:03:39Z</time>
      </trkpt>
      <trkpt lat="45.6714" lon="5.84744">
        <ele>527.9</ele>
        <time>2011-04-12T08:03:54Z</time>
      </trkpt>
      <trkpt lat="45.67124" lon="5.84741">
        <ele>529.34</ele>
        <time>2011-04-12T08:04:09Z</time>
      </trkpt>
      <trkpt lat="45.67112" lon="5.84741">
        <ele>531.75</ele>
        <time>2011-04-12T08:04:23Z</time>
      </trkpt>
      <trkpt lat="45.67107" lon="5.84742">
        <ele>534.15</ele>
        <time>2011-04-12T08:04:36Z</time>
      </trkpt>
      <trkpt lat="45.67103" lon="5.84741">
        <ele>535.59</ele>
        <time>2011-04-12T08:04:43Z</time>
      </trkpt>
      <trkpt lat="45.67096" lon="5.84742">
        <ele>537.51</ele>
        <time>2011-04-12T08:04:54Z</time>
      </trkpt>
      <trkpt lat="45.67096" lon="5.84738">
        <ele>537.51</ele>
        <time>2011-04-12T08:04:57Z</time>
      </trkpt>
      <trkpt lat="45.67097" lon="5.84733">
        <ele>538.48</ele>
        <time>2011-04-12T08:05:00Z</time>
      </trkpt>
      <trkpt lat="45.67094" lon="5.84728">
        <ele>541.84</ele>
        <time>2011-04-12T08:05:13Z</time>
      </trkpt>
      <trkpt lat="45.6709" lon="5.84728">
        <ele>543.76</ele>
        <time>2011-04-12T08:05:24Z</time>
      </trkpt>
      <trkpt lat="45.67089" lon="5.84728">
        <ele>544.72</ele>
        <time>2011-04-12T08:05:26Z</time>
      </trkpt>
      <trkpt lat="45.67089" lon="5.84715">
        <ele>546.17</ele>
        <time>2011-04-12T08:05:36Z</time>
      </trkpt>
      <trkpt lat="45.67085" lon="5.84715">
        <ele>548.09</ele>
        <time>2011-04-12T08:05:50Z</time>
      </trkpt>
      <trkpt lat="45.67088" lon="5.84702">
        <ele>550.97</ele>
        <time>2011-04-12T08:06:02Z</time>
      </trkpt>
      <trkpt lat="45.67088" lon="5.84701">
        <ele>552.9</ele>
        <time>2011-04-12T08:06:16Z</time>
      </trkpt>
      <trkpt lat="45.67087" lon="5.84701">
        <ele>553.38</ele>
        <time>2011-04-12T08:06:17Z</time>
      </trkpt>
      <trkpt lat="45.67072" lon="5.84705">
        <ele>555.78</ele>
        <time>2011-04-12T08:06:30Z</time>
      </trkpt>
      <trkpt lat="45.67069" lon="5.84701">
        <ele>556.26</ele>
        <time>2011-04-12T08:06:34Z</time>
      </trkpt>
      <trkpt lat="45.67067" lon="5.84691">
        <ele>558.66</ele>
        <time>2011-04-12T08:06:48Z</time>
      </trkpt>
      <trkpt lat="45.6706" lon="5.8469">
        <ele>560.11</ele>
        <time>2011-04-12T08:06:56Z</time>
      </trkpt>
      <trkpt lat="45.67049" lon="5.84685">
        <ele>562.99</ele>
        <time>2011-04-12T08:07:09Z</time>
      </trkpt>
      <trkpt lat="45.67043" lon="5.8468">
        <ele>563.47</ele>
        <time>2011-04-12T08:07:16Z</time>
      </trkpt>
      <trkpt lat="45.67034" lon="5.84663">
        <ele>564.43</ele>
        <time>2011-04-12T08:07:30Z</time>
      </trkpt>
      <trkpt lat="45.67024" lon="5.84649">
        <ele>565.39</ele>
        <time>2011-04-12T08:07:43Z</time>
      </trkpt>
      <trkpt lat="45.67014" lon="5.84643">
        <ele>565.87</ele>
        <time>2011-04-12T08:07:55Z</time>
      </trkpt>
      <trkpt lat="45.67008" lon="5.84632">
        <ele>567.32</ele>
        <time>2011-04-12T08:08:09Z</time>
      </trkpt>
      <trkpt lat="45.67008" lon="5.84632">
        <ele>566.83</ele>
        <time>2011-04-12T08:08:26Z</time>
      </trkpt>
      <trkpt lat="45.6701" lon="5.84628">
        <ele>568.28</ele>
        <time>2011-04-12T08:08:37Z</time>
      </trkpt>
      <trkpt lat="45.67013" lon="5.84628">
        <ele>567.8</ele>
        <time>2011-04-12T08:08:41Z</time>
      </trkpt>
      <trkpt lat="45.67029" lon="5.84631">
        <ele>569.72</ele>
        <time>2011-04-12T08:08:55Z</time>
      </trkpt>
      <trkpt lat="45.67029" lon="5.84622">
        <ele>569.72</ele>
        <time>2011-04-12T08:09:03Z</time>
      </trkpt>
      <trkpt lat="45.67017" lon="5.84609">
        <ele>572.12</ele>
        <time>2011-04-12T08:09:17Z</time>
      </trkpt>
      <trkpt lat="45.67007" lon="5.84585">
        <ele>574.04</ele>
        <time>2011-04-12T08:09:33Z</time>
      </trkpt>
      <trkpt lat="45.67001" lon="5.84566">
        <ele>576.45</ele>
        <time>2011-04-12T08:09:47Z</time>
      </trkpt>
      <trkpt lat="45.67001" lon="5.84558">
        <ele>576.93</ele>
        <time>2011-04-12T08:09:51Z</time>
      </trkpt>
      <trkpt lat="45.6699" lon="5.84548">
        <ele>579.33</ele>
        <time>2011-04-12T08:10:04Z</time>
      </trkpt>
      <trkpt lat="45.66981" lon="5.84544">
        <ele>581.73</ele>
        <time>2011-04-12T08:10:17Z</time>
      </trkpt>
      <trkpt lat="45.6697" lon="5.84536">
        <ele>583.18</ele>
        <time>2011-04-12T08:10:27Z</time>
      </trkpt>
      <trkpt lat="45.66957" lon="5.84522">
        <ele>585.58</ele>
        <time>2011-04-12T08:10:41Z</time>
      </trkpt>
      <trkpt lat="45.66947" lon="5.84507">
        <ele>587.98</ele>
        <time>2011-04-12T08:10:54Z</time>
      </trkpt>
      <trkpt lat="45.66936" lon="5.84497">
        <ele>589.91</ele>
        <time>2011-04-12T08:11:08Z</time>
      </trkpt>
      <trkpt lat="45.66929" lon="5.84493">
        <ele>591.83</ele>
        <time>2011-04-12T08:11:16Z</time>
      </trkpt>
      <trkpt lat="45.66916" lon="5.8448">
        <ele>593.75</ele>
        <time>2011-04-12T08:11:30Z</time>
      </trkpt>
      <trkpt lat="45.66901" lon="5.84475">
        <ele>595.67</ele>
        <time>2011-04-12T08:11:43Z</time>
      </trkpt>
      <trkpt lat="45.6689" lon="5.84469">
        <ele>598.08</ele>
        <time>2011-04-12T08:11:56Z</time>
      </trkpt>
      <trkpt lat="45.66886" lon="5.84466">
        <ele>598.56</ele>
        <time>2011-04-12T08:12:01Z</time>
      </trkpt>
      <trkpt lat="45.66868" lon="5.84454">
        <ele>601.44</ele>
        <time>2011-04-12T08:12:17Z</time>
      </trkpt>
      <trkpt lat="45.66866" lon="5.84454">
        <ele>601.92</ele>
        <time>2011-04-12T08:12:20Z</time>
      </trkpt>
      <trkpt lat="45.6685" lon="5.84454">
        <ele>603.85</ele>
        <time>2011-04-12T08:12:36Z</time>
      </trkpt>
      <trkpt lat="45.66841" lon="5.84452">
        <ele>604.81</ele>
        <time>2011-04-12T08:12:44Z</time>
      </trkpt>
      <trkpt lat="45.66827" lon="5.84432">
        <ele>606.73</ele>
        <time>2011-04-12T08:13:00Z</time>
      </trkpt>
      <trkpt lat="45.66811" lon="5.84418">
        <ele>608.65</ele>
        <time>2011-04-12T08:13:14Z</time>
      </trkpt>
      <trkpt lat="45.66796" lon="5.84413">
        <ele>610.09</ele>
        <time>2011-04-12T08:13:28Z</time>
      </trkpt>
      <trkpt lat="45.66782" lon="5.84408">
        <ele>611.54</ele>
        <time>2011-04-12T08:13:40Z</time>
      </trkpt>
      <trkpt lat="45.66773" lon="5.84407">
        <ele>612.02</ele>
        <time>2011-04-12T08:13:47Z</time>
      </trkpt>
      <trkpt lat="45.66754" lon="5.84408">
        <ele>613.46</ele>
        <time>2011-04-12T08:14:03Z</time>
      </trkpt>
      <trkpt lat="45.66742" lon="5.84408">
        <ele>615.38</ele>
        <time>2011-04-12T08:14:15Z</time>
      </trkpt>
      <trkpt lat="45.66727" lon="5.84418">
        <ele>617.3</ele>
        <time>2011-04-12T08:14:28Z</time>
      </trkpt>
      <trkpt lat="45.6671" lon="5.84421">
        <ele>619.71</ele>
        <time>2011-04-12T08:14:45Z</time>
      </trkpt>
      <trkpt lat="45.6669" lon="5.84423">
        <ele>621.63</ele>
        <time>2011-04-12T08:15:00Z</time>
      </trkpt>
      <trkpt lat="45.66686" lon="5.8442">
        <ele>621.63</ele>
        <time>2011-04-12T08:15:07Z</time>
      </trkpt>
      <trkpt lat="45.66686" lon="5.84418">
        <ele>622.59</ele>
        <time>2011-04-12T08:15:18Z</time>
      </trkpt>
      <trkpt lat="45.66684" lon="5.84408">
        <ele>625.47</ele>
        <time>2011-04-12T08:15:30Z</time>
      </trkpt>
      <trkpt lat="45.66678" lon="5.8439">
        <ele>627.88</ele>
        <time>2011-04-12T08:15:43Z</time>
      </trkpt>
      <trkpt lat="45.66676" lon="5.84376">
        <ele>630.76</ele>
        <time>2011-04-12T08:15:57Z</time>
      </trkpt>
      <trkpt lat="45.66682" lon="5.84375">
        <ele>631.72</ele>
        <time>2011-04-12T08:16:02Z</time>
      </trkpt>
      <trkpt lat="45.66688" lon="5.84376">
        <ele>632.2</ele>
        <time>2011-04-12T08:16:08Z</time>
      </trkpt>
      <trkpt lat="45.66702" lon="5.8437">
        <ele>634.61</ele>
        <time>2011-04-12T08:16:24Z</time>
      </trkpt>
      <trkpt lat="45.66703" lon="5.84369">
        <ele>634.61</ele>
        <time>2011-04-12T08:16:25Z</time>
      </trkpt>
      <trkpt lat="45.66715" lon="5.84354">
        <ele>637.01</ele>
        <time>2011-04-12T08:16:41Z</time>
      </trkpt>
      <trkpt lat="45.66724" lon="5.84344">
        <ele>638.93</ele>
        <time>2011-04-12T08:16:54Z</time>
      </trkpt>
      <trkpt lat="45.66729" lon="5.84337">
        <ele>642.3</ele>
        <time>2011-04-12T08:17:06Z</time>
      </trkpt>
      <trkpt lat="45.66728" lon="5.84341">
        <ele>643.26</ele>
        <time>2011-04-12T08:17:11Z</time>
      </trkpt>
      <trkpt lat="45.66716" lon="5.84348">
        <ele>646.14</ele>
        <time>2011-04-12T08:17:25Z</time>
      </trkpt>
      <trkpt lat="45.66707" lon="5.84352">
        <ele>647.59</ele>
        <time>2011-04-12T08:17:35Z</time>
      </trkpt>
      <trkpt lat="45.66693" lon="5.84345">
        <ele>650.47</ele>
        <time>2011-04-12T08:17:49Z</time>
      </trkpt>
      <trkpt lat="45.66689" lon="5.84346">
        <ele>650.95</ele>
        <time>2011-04-12T08:17:53Z</time>
      </trkpt>
      <trkpt lat="45.66681" lon="5.84331">
        <ele>653.35</ele>
        <time>2011-04-12T08:18:07Z</time>
      </trkpt>
      <trkpt lat="45.66671" lon="5.84324">
        <ele>655.28</ele>
        <time>2011-04-12T08:18:21Z</time>
      </trkpt>
      <trkpt lat="45.66665" lon="5.84315">
        <ele>658.16</ele>
        <time>2011-04-12T08:18:34Z</time>
      </trkpt>
      <trkpt lat="45.6666" lon="5.84307">
        <ele>661.52</ele>
        <time>2011-04-12T08:18:45Z</time>
      </trkpt>
      <trkpt lat="45.6665" lon="5.84295">
        <ele>663.93</ele>
        <time>2011-04-12T08:18:59Z</time>
      </trkpt>
      <trkpt lat="45.66646" lon="5.84289">
        <ele>664.41</ele>
        <time>2011-04-12T08:19:04Z</time>
      </trkpt>
      <trkpt lat="45.6664" lon="5.84279">
        <ele>666.33</ele>
        <time>2011-04-12T08:19:18Z</time>
      </trkpt>
      <trkpt lat="45.66634" lon="5.84267">
        <ele>668.73</ele>
        <time>2011-04-12T08:19:34Z</time>
      </trkpt>
      <trkpt lat="45.66625" lon="5.84264">
        <ele>672.1</ele>
        <time>2011-04-12T08:19:50Z</time>
      </trkpt>
      <trkpt lat="45.66623" lon="5.84268">
        <ele>674.02</ele>
        <time>2011-04-12T08:20:02Z</time>
      </trkpt>
      <trkpt lat="45.66612" lon="5.84283">
        <ele>676.91</ele>
        <time>2011-04-12T08:20:17Z</time>
      </trkpt>
      <trkpt lat="45.66597" lon="5.84293">
        <ele>679.31</ele>
        <time>2011-04-12T08:20:33Z</time>
      </trkpt>
      <trkpt lat="45.66596" lon="5.84293">
        <ele>679.31</ele>
        <time>2011-04-12T08:20:34Z</time>
      </trkpt>
      <trkpt lat="45.66591" lon="5.84295">
        <ele>680.27</ele>
        <time>2011-04-12T08:20:38Z</time>
      </trkpt>
      <trkpt lat="45.66588" lon="5.84294">
        <ele>680.75</ele>
        <time>2011-04-12T08:20:44Z</time>
      </trkpt>
      <trkpt lat="45.66581" lon="5.84279">
        <ele>683.15</ele>
        <time>2011-04-12T08:21:01Z</time>
      </trkpt>
      <trkpt lat="45.66568" lon="5.84279">
        <ele>685.56</ele>
        <time>2011-04-12T08:21:14Z</time>
      </trkpt>
      <trkpt lat="45.66559" lon="5.84275">
        <ele>688.44</ele>
        <time>2011-04-12T08:21:29Z</time>
      </trkpt>
      <trkpt lat="45.66556" lon="5.84272">
        <ele>689.4</ele>
        <time>2011-04-12T08:21:34Z</time>
      </trkpt>
      <trkpt lat="45.66547" lon="5.84267">
        <ele>692.29</ele>
        <time>2011-04-12T08:21:49Z</time>
      </trkpt>
      <trkpt lat="45.66541" lon="5.8427">
        <ele>693.25</ele>
        <time>2011-04-12T08:21:56Z</time>
      </trkpt>
      <trkpt lat="45.66535" lon="5.84273">
        <ele>694.69</ele>
        <time>2011-04-12T08:22:02Z</time>
      </trkpt>
      <trkpt lat="45.66528" lon="5.84278">
        <ele>696.61</ele>
        <time>2011-04-12T08:22:15Z</time>
      </trkpt>
      <trkpt lat="45.66531" lon="5.84253">
        <ele>699.5</ele>
        <time>2011-04-12T08:22:30Z</time>
      </trkpt>
      <trkpt lat="45.66536" lon="5.84235">
        <ele>701.42</ele>
        <time>2011-04-12T08:22:45Z</time>
      </trkpt>
      <trkpt lat="45.66537" lon="5.84232">
        <ele>702.86</ele>
        <time>2011-04-12T08:22:48Z</time>
      </trkpt>
      <trkpt lat="45.66538" lon="5.84229">
        <ele>704.78</ele>
        <time>2011-04-12T08:23:03Z</time>
      </trkpt>
      <trkpt lat="45.66537" lon="5.84227">
        <ele>707.67</ele>
        <time>2011-04-12T08:23:17Z</time>
      </trkpt>
      <trkpt lat="45.66527" lon="5.84238">
        <ele>709.59</ele>
        <time>2011-04-12T08:23:32Z</time>
      </trkpt>
      <trkpt lat="45.66525" lon="5.8424">
        <ele>710.55</ele>
        <time>2011-04-12T08:23:34Z</time>
      </trkpt>
      <trkpt lat="45.66515" lon="5.84241">
        <ele>712.95</ele>
        <time>2011-04-12T08:23:49Z</time>
      </trkpt>
      <trkpt lat="45.66512" lon="5.84245">
        <ele>713.92</ele>
        <time>2011-04-12T08:23:54Z</time>
      </trkpt>
      <trkpt lat="45.66505" lon="5.84244">
        <ele>715.36</ele>
        <time>2011-04-12T08:24:01Z</time>
      </trkpt>
      <trkpt lat="45.66497" lon="5.84228">
        <ele>718.24</ele>
        <time>2011-04-12T08:24:16Z</time>
      </trkpt>
      <trkpt lat="45.6649" lon="5.84217">
        <ele>720.16</ele>
        <time>2011-04-12T08:24:29Z</time>
      </trkpt>
      <trkpt lat="45.66483" lon="5.84212">
        <ele>721.61</ele>
        <time>2011-04-12T08:24:42Z</time>
      </trkpt>
      <trkpt lat="45.66473" lon="5.84211">
        <ele>724.49</ele>
        <time>2011-04-12T08:24:56Z</time>
      </trkpt>
      <trkpt lat="45.66463" lon="5.84204">
        <ele>726.89</ele>
        <time>2011-04-12T08:25:09Z</time>
      </trkpt>
      <trkpt lat="45.66452" lon="5.84195">
        <ele>728.82</ele>
        <time>2011-04-12T08:25:23Z</time>
      </trkpt>
      <trkpt lat="45.66448" lon="5.8419">
        <ele>729.78</ele>
        <time>2011-04-12T08:25:30Z</time>
      </trkpt>
      <trkpt lat="45.66439" lon="5.84184">
        <ele>731.7</ele>
        <time>2011-04-12T08:25:45Z</time>
      </trkpt>
      <trkpt lat="45.66437" lon="5.84183">
        <ele>732.18</ele>
        <time>2011-04-12T08:25:48Z</time>
      </trkpt>
      <trkpt lat="45.6643" lon="5.84174">
        <ele>735.07</ele>
        <time>2011-04-12T08:26:01Z</time>
      </trkpt>
      <trkpt lat="45.66428" lon="5.84173">
        <ele>735.55</ele>
        <time>2011-04-12T08:26:02Z</time>
      </trkpt>
      <trkpt lat="45.66425" lon="5.84172">
        <ele>736.51</ele>
        <time>2011-04-12T08:26:07Z</time>
      </trkpt>
      <trkpt lat="45.66421" lon="5.84172">
        <ele>737.95</ele>
        <time>2011-04-12T08:26:20Z</time>
      </trkpt>
      <trkpt lat="45.6643" lon="5.84166">
        <ele>738.91</ele>
        <time>2011-04-12T08:26:34Z</time>
      </trkpt>
      <trkpt lat="45.66436" lon="5.84161">
        <ele>740.35</ele>
        <time>2011-04-12T08:26:41Z</time>
      </trkpt>
      <trkpt lat="45.66441" lon="5.84158">
        <ele>741.31</ele>
        <time>2011-04-12T08:26:49Z</time>
      </trkpt>
      <trkpt lat="45.66448" lon="5.84157">
        <ele>743.72</ele>
        <time>2011-04-12T08:26:59Z</time>
      </trkpt>
      <trkpt lat="45.66456" lon="5.84157">
        <ele>745.64</ele>
        <time>2011-04-12T08:27:13Z</time>
      </trkpt>
      <trkpt lat="45.66455" lon="5.84156">
        <ele>746.12</ele>
        <time>2011-04-12T08:27:16Z</time>
      </trkpt>
      <trkpt lat="45.66447" lon="5.84146">
        <ele>748.04</ele>
        <time>2011-04-12T08:27:27Z</time>
      </trkpt>
      <trkpt lat="45.66435" lon="5.84141">
        <ele>749.49</ele>
        <time>2011-04-12T08:27:42Z</time>
      </trkpt>
      <trkpt lat="45.66423" lon="5.84138">
        <ele>749</ele>
        <time>2011-04-12T08:27:55Z</time>
      </trkpt>
      <trkpt lat="45.66412" lon="5.84134">
        <ele>748.52</ele>
        <time>2011-04-12T08:28:06Z</time>
      </trkpt>
      <trkpt lat="45.66398" lon="5.84126">
        <ele>751.41</ele>
        <time>2011-04-12T08:28:22Z</time>
      </trkpt>
      <trkpt lat="45.66385" lon="5.84119">
        <ele>752.37</ele>
        <time>2011-04-12T08:28:36Z</time>
      </trkpt>
      <trkpt lat="45.66373" lon="5.84114">
        <ele>753.33</ele>
        <time>2011-04-12T08:28:48Z</time>
      </trkpt>
      <trkpt lat="45.6636" lon="5.84109">
        <ele>755.25</ele>
        <time>2011-04-12T08:29:01Z</time>
      </trkpt>
      <trkpt lat="45.66349" lon="5.84106">
        <ele>754.29</ele>
        <time>2011-04-12T08:29:10Z</time>
      </trkpt>
      <trkpt lat="45.66344" lon="5.84107">
        <ele>753.33</ele>
        <time>2011-04-12T08:29:14Z</time>
      </trkpt>
      <trkpt lat="45.66331" lon="5.84101">
        <ele>750.93</ele>
        <time>2011-04-12T08:29:27Z</time>
      </trkpt>
      <trkpt lat="45.66316" lon="5.84096">
        <ele>751.89</ele>
        <time>2011-04-12T08:29:40Z</time>
      </trkpt>
      <trkpt lat="45.66303" lon="5.84091">
        <ele>754.29</ele>
        <time>2011-04-12T08:29:53Z</time>
      </trkpt>
      <trkpt lat="45.66296" lon="5.8409">
        <ele>755.73</ele>
        <time>2011-04-12T08:30:01Z</time>
      </trkpt>
      <trkpt lat="45.66289" lon="5.84092">
        <ele>757.66</ele>
        <time>2011-04-12T08:30:08Z</time>
      </trkpt>
      <trkpt lat="45.66279" lon="5.84081">
        <ele>759.58</ele>
        <time>2011-04-12T08:30:22Z</time>
      </trkpt>
      <trkpt lat="45.66267" lon="5.84076">
        <ele>760.06</ele>
        <time>2011-04-12T08:30:35Z</time>
      </trkpt>
      <trkpt lat="45.66257" lon="5.84074">
        <ele>760.54</ele>
        <time>2011-04-12T08:30:42Z</time>
      </trkpt>
      <trkpt lat="45.66241" lon="5.84071">
        <ele>760.54</ele>
        <time>2011-04-12T08:30:56Z</time>
      </trkpt>
      <trkpt lat="45.66228" lon="5.84065">
        <ele>760.06</ele>
        <time>2011-04-12T08:31:09Z</time>
      </trkpt>
      <trkpt lat="45.66213" lon="5.84058">
        <ele>760.06</ele>
        <time>2011-04-12T08:31:22Z</time>
      </trkpt>
      <trkpt lat="45.662" lon="5.84054">
        <ele>760.06</ele>
        <time>2011-04-12T08:31:33Z</time>
      </trkpt>
      <trkpt lat="45.66184" lon="5.84045">
        <ele>760.06</ele>
        <time>2011-04-12T08:31:48Z</time>
      </trkpt>
      <trkpt lat="45.66169" lon="5.84039">
        <ele>760.06</ele>
        <time>2011-04-12T08:32:01Z</time>
      </trkpt>
      <trkpt lat="45.66155" lon="5.84041">
        <ele>760.06</ele>
        <time>2011-04-12T08:32:13Z</time>
      </trkpt>
      <trkpt lat="45.66144" lon="5.84037">
        <ele>761.5</ele>
        <time>2011-04-12T08:32:23Z</time>
      </trkpt>
      <trkpt lat="45.6613" lon="5.84028">
        <ele>761.5</ele>
        <time>2011-04-12T08:32:37Z</time>
      </trkpt>
      <trkpt lat="45.66118" lon="5.84026">
        <ele>761.98</ele>
        <time>2011-04-12T08:32:48Z</time>
      </trkpt>
      <trkpt lat="45.66101" lon="5.84011">
        <ele>761.5</ele>
        <time>2011-04-12T08:33:04Z</time>
      </trkpt>
      <trkpt lat="45.66087" lon="5.84008">
        <ele>760.54</ele>
        <time>2011-04-12T08:33:16Z</time>
      </trkpt>
      <trkpt lat="45.66085" lon="5.84007">
        <ele>761.02</ele>
        <time>2011-04-12T08:33:18Z</time>
      </trkpt>
      <trkpt lat="45.66069" lon="5.84008">
        <ele>760.54</ele>
        <time>2011-04-12T08:33:32Z</time>
      </trkpt>
      <trkpt lat="45.66052" lon="5.84">
        <ele>761.5</ele>
        <time>2011-04-12T08:33:45Z</time>
      </trkpt>
      <trkpt lat="45.66036" lon="5.83999">
        <ele>761.98</ele>
        <time>2011-04-12T08:33:58Z</time>
      </trkpt>
      <trkpt lat="45.66018" lon="5.83988">
        <ele>762.46</ele>
        <time>2011-04-12T08:34:13Z</time>
      </trkpt>
      <trkpt lat="45.66003" lon="5.83984">
        <ele>761.02</ele>
        <time>2011-04-12T08:34:27Z</time>
      </trkpt>
      <trkpt lat="45.65988" lon="5.8398">
        <ele>761.98</ele>
        <time>2011-04-12T08:34:41Z</time>
      </trkpt>
      <trkpt lat="45.65986" lon="5.83978">
        <ele>761.98</ele>
        <time>2011-04-12T08:34:43Z</time>
      </trkpt>
      <trkpt lat="45.65988" lon="5.83969">
        <ele>762.94</ele>
        <time>2011-04-12T08:34:49Z</time>
      </trkpt>
      <trkpt lat="45.65989" lon="5.83967">
        <ele>761.02</ele>
        <time>2011-04-12T08:34:51Z</time>
      </trkpt>
      <trkpt lat="45.6599" lon="5.83964">
        <ele>763.42</ele>
        <time>2011-04-12T08:34:54Z</time>
      </trkpt>
      <trkpt lat="45.65993" lon="5.83963">
        <ele>762.94</ele>
        <time>2011-04-12T08:35:13Z</time>
      </trkpt>
      <trkpt lat="45.65993" lon="5.83963">
        <ele>762.94</ele>
        <time>2011-04-12T08:35:35Z</time>
      </trkpt>
      <trkpt lat="45.65993" lon="5.83963">
        <ele>762.94</ele>
        <time>2011-04-12T08:35:54Z</time>
      </trkpt>
      <trkpt lat="45.65993" lon="5.83963">
        <ele>761.98</ele>
        <time>2011-04-12T08:35:56Z</time>
      </trkpt>
      <trkpt lat="45.65993" lon="5.83963">
        <ele>762.46</ele>
        <time>2011-04-12T08:36:19Z</time>
      </trkpt>
      <trkpt lat="45.65993" lon="5.83963">
        <ele>761.98</ele>
        <time>2011-04-12T08:36:41Z</time>
      </trkpt>
      <trkpt lat="45.65994" lon="5.83963">
        <ele>761.5</ele>
        <time>2011-04-12T08:37:02Z</time>
      </trkpt>
      <trkpt lat="45.65994" lon="5.83963">
        <ele>762.46</ele>
        <time>2011-04-12T08:37:22Z</time>
      </trkpt>
      <trkpt lat="45.65994" lon="5.83964">
        <ele>761.98</ele>
        <time>2011-04-12T08:37:43Z</time>
      </trkpt>
      <trkpt lat="45.65994" lon="5.83964">
        <ele>762.46</ele>
        <time>2011-04-12T08:38:06Z</time>
      </trkpt>
      <trkpt lat="45.65994" lon="5.83963">
        <ele>762.46</ele>
        <time>2011-04-12T08:38:30Z</time>
      </trkpt>
      <trkpt lat="45.65994" lon="5.83963">
        <ele>762.46</ele>
        <time>2011-04-12T08:38:55Z</time>
      </trkpt>
      <trkpt lat="45.65994" lon="5.83963">
        <ele>762.94</ele>
        <time>2011-04-12T08:39:14Z</time>
      </trkpt>
      <trkpt lat="45.65994" lon="5.83963">
        <ele>762.46</ele>
        <time>2011-04-12T08:39:37Z</time>
      </trkpt>
      <trkpt lat="45.65994" lon="5.83963">
        <ele>762.46</ele>
        <time>2011-04-12T08:39:56Z</time>
      </trkpt>
      <trkpt lat="45.65994" lon="5.83963">
        <ele>761.98</ele>
        <time>2011-04-12T08:40:18Z</time>
      </trkpt>
      <trkpt lat="45.65994" lon="5.83964">
        <ele>761.98</ele>
        <time>2011-04-12T08:40:41Z</time>
      </trkpt>
      <trkpt lat="45.65994" lon="5.83964">
        <ele>762.46</ele>
        <time>2011-04-12T08:41:04Z</time>
      </trkpt>
      <trkpt lat="45.65994" lon="5.83964">
        <ele>762.94</ele>
        <time>2011-04-12T08:41:23Z</time>
      </trkpt>
      <trkpt lat="45.65995" lon="5.83964">
        <ele>762.94</ele>
        <time>2011-04-12T08:41:42Z</time>
      </trkpt>
      <trkpt lat="45.66003" lon="5.83966">
        <ele>764.39</ele>
        <time>2011-04-12T08:41:54Z</time>
      </trkpt>
      <trkpt lat="45.66018" lon="5.83968">
        <ele>765.83</ele>
        <time>2011-04-12T08:42:06Z</time>
      </trkpt>
      <trkpt lat="45.66036" lon="5.83966">
        <ele>767.75</ele>
        <time>2011-04-12T08:42:22Z</time>
      </trkpt>
      <trkpt lat="45.66051" lon="5.83967">
        <ele>770.15</ele>
        <time>2011-04-12T08:42:36Z</time>
      </trkpt>
      <trkpt lat="45.66056" lon="5.83968">
        <ele>770.15</ele>
        <time>2011-04-12T08:42:43Z</time>
      </trkpt>
      <trkpt lat="45.66071" lon="5.83964">
        <ele>772.56</ele>
        <time>2011-04-12T08:42:57Z</time>
      </trkpt>
      <trkpt lat="45.66082" lon="5.83968">
        <ele>774</ele>
        <time>2011-04-12T08:43:10Z</time>
      </trkpt>
      <trkpt lat="45.66092" lon="5.83966">
        <ele>775.44</ele>
        <time>2011-04-12T08:43:17Z</time>
      </trkpt>
      <trkpt lat="45.66104" lon="5.83969">
        <ele>776.88</ele>
        <time>2011-04-12T08:43:30Z</time>
      </trkpt>
      <trkpt lat="45.66118" lon="5.8397">
        <ele>779.29</ele>
        <time>2011-04-12T08:43:43Z</time>
      </trkpt>
      <trkpt lat="45.66123" lon="5.83968">
        <ele>780.25</ele>
        <time>2011-04-12T08:43:47Z</time>
      </trkpt>
      <trkpt lat="45.66126" lon="5.83966">
        <ele>780.73</ele>
        <time>2011-04-12T08:43:50Z</time>
      </trkpt>
      <trkpt lat="45.66137" lon="5.83964">
        <ele>782.65</ele>
        <time>2011-04-12T08:44:01Z</time>
      </trkpt>
      <trkpt lat="45.6614" lon="5.83963">
        <ele>783.61</ele>
        <time>2011-04-12T08:44:05Z</time>
      </trkpt>
      <trkpt lat="45.66151" lon="5.83966">
        <ele>785.53</ele>
        <time>2011-04-12T08:44:17Z</time>
      </trkpt>
      <trkpt lat="45.66163" lon="5.83962">
        <ele>787.46</ele>
        <time>2011-04-12T08:44:30Z</time>
      </trkpt>
      <trkpt lat="45.66172" lon="5.8396">
        <ele>789.38</ele>
        <time>2011-04-12T08:44:41Z</time>
      </trkpt>
      <trkpt lat="45.66185" lon="5.83963">
        <ele>791.3</ele>
        <time>2011-04-12T08:44:54Z</time>
      </trkpt>
      <trkpt lat="45.66196" lon="5.83967">
        <ele>793.22</ele>
        <time>2011-04-12T08:45:06Z</time>
      </trkpt>
      <trkpt lat="45.66208" lon="5.83966">
        <ele>794.67</ele>
        <time>2011-04-12T08:45:17Z</time>
      </trkpt>
      <trkpt lat="45.66208" lon="5.83968">
        <ele>795.15</ele>
        <time>2011-04-12T08:45:18Z</time>
      </trkpt>
      <trkpt lat="45.66216" lon="5.83973">
        <ele>797.07</ele>
        <time>2011-04-12T08:45:31Z</time>
      </trkpt>
      <trkpt lat="45.66221" lon="5.83971">
        <ele>797.07</ele>
        <time>2011-04-12T08:45:35Z</time>
      </trkpt>
      <trkpt lat="45.66239" lon="5.83968">
        <ele>800.44</ele>
        <time>2011-04-12T08:45:49Z</time>
      </trkpt>
      <trkpt lat="45.66252" lon="5.83965">
        <ele>801.88</ele>
        <time>2011-04-12T08:46:01Z</time>
      </trkpt>
      <trkpt lat="45.66257" lon="5.83962">
        <ele>802.36</ele>
        <time>2011-04-12T08:46:07Z</time>
      </trkpt>
      <trkpt lat="45.66274" lon="5.83963">
        <ele>804.76</ele>
        <time>2011-04-12T08:46:20Z</time>
      </trkpt>
      <trkpt lat="45.6628" lon="5.83964">
        <ele>805.72</ele>
        <time>2011-04-12T08:46:29Z</time>
      </trkpt>
      <trkpt lat="45.66276" lon="5.83963">
        <ele>807.16</ele>
        <time>2011-04-12T08:46:39Z</time>
      </trkpt>
      <trkpt lat="45.66265" lon="5.83957">
        <ele>807.64</ele>
        <time>2011-04-12T08:46:48Z</time>
      </trkpt>
      <trkpt lat="45.66256" lon="5.8395">
        <ele>809.57</ele>
        <time>2011-04-12T08:47:00Z</time>
      </trkpt>
      <trkpt lat="45.66243" lon="5.83946">
        <ele>811.49</ele>
        <time>2011-04-12T08:47:12Z</time>
      </trkpt>
      <trkpt lat="45.66233" lon="5.83941">
        <ele>813.41</ele>
        <time>2011-04-12T08:47:23Z</time>
      </trkpt>
      <trkpt lat="45.66222" lon="5.83931">
        <ele>815.34</ele>
        <time>2011-04-12T08:47:35Z</time>
      </trkpt>
      <trkpt lat="45.66221" lon="5.83931">
        <ele>815.82</ele>
        <time>2011-04-12T08:47:36Z</time>
      </trkpt>
      <trkpt lat="45.66213" lon="5.83921">
        <ele>816.3</ele>
        <time>2011-04-12T08:47:47Z</time>
      </trkpt>
      <trkpt lat="45.6621" lon="5.83917">
        <ele>815.82</ele>
        <time>2011-04-12T08:47:50Z</time>
      </trkpt>
      <trkpt lat="45.66198" lon="5.83912">
        <ele>818.22</ele>
        <time>2011-04-12T08:48:02Z</time>
      </trkpt>
      <trkpt lat="45.66189" lon="5.83904">
        <ele>819.66</ele>
        <time>2011-04-12T08:48:14Z</time>
      </trkpt>
      <trkpt lat="45.66178" lon="5.83899">
        <ele>821.58</ele>
        <time>2011-04-12T08:48:26Z</time>
      </trkpt>
      <trkpt lat="45.66169" lon="5.83895">
        <ele>823.51</ele>
        <time>2011-04-12T08:48:36Z</time>
      </trkpt>
      <trkpt lat="45.66159" lon="5.83892">
        <ele>824.47</ele>
        <time>2011-04-12T08:48:45Z</time>
      </trkpt>
      <trkpt lat="45.66151" lon="5.83884">
        <ele>826.39</ele>
        <time>2011-04-12T08:48:57Z</time>
      </trkpt>
      <trkpt lat="45.66144" lon="5.83877">
        <ele>827.83</ele>
        <time>2011-04-12T08:49:08Z</time>
      </trkpt>
      <trkpt lat="45.66135" lon="5.83871">
        <ele>829.27</ele>
        <time>2011-04-12T08:49:18Z</time>
      </trkpt>
      <trkpt lat="45.66125" lon="5.83867">
        <ele>830.72</ele>
        <time>2011-04-12T08:49:27Z</time>
      </trkpt>
      <trkpt lat="45.66114" lon="5.83862">
        <ele>832.64</ele>
        <time>2011-04-12T08:49:38Z</time>
      </trkpt>
      <trkpt lat="45.66105" lon="5.8386">
        <ele>832.64</ele>
        <time>2011-04-12T08:49:48Z</time>
      </trkpt>
      <trkpt lat="45.66094" lon="5.83856">
        <ele>833.6</ele>
        <time>2011-04-12T08:49:59Z</time>
      </trkpt>
      <trkpt lat="45.66085" lon="5.83848">
        <ele>835.52</ele>
        <time>2011-04-12T08:50:11Z</time>
      </trkpt>
      <trkpt lat="45.66077" lon="5.83844">
        <ele>836.48</ele>
        <time>2011-04-12T08:50:20Z</time>
      </trkpt>
      <trkpt lat="45.66074" lon="5.83842">
        <ele>836.48</ele>
        <time>2011-04-12T08:50:22Z</time>
      </trkpt>
      <trkpt lat="45.66067" lon="5.83837">
        <ele>837.93</ele>
        <time>2011-04-12T08:50:30Z</time>
      </trkpt>
      <trkpt lat="45.66057" lon="5.83831">
        <ele>839.37</ele>
        <time>2011-04-12T08:50:41Z</time>
      </trkpt>
      <trkpt lat="45.66053" lon="5.83828">
        <ele>839.85</ele>
        <time>2011-04-12T08:50:45Z</time>
      </trkpt>
      <trkpt lat="45.66045" lon="5.83823">
        <ele>841.29</ele>
        <time>2011-04-12T08:50:56Z</time>
      </trkpt>
      <trkpt lat="45.66036" lon="5.83821">
        <ele>842.25</ele>
        <time>2011-04-12T08:51:04Z</time>
      </trkpt>
      <trkpt lat="45.66024" lon="5.83814">
        <ele>843.69</ele>
        <time>2011-04-12T08:51:15Z</time>
      </trkpt>
      <trkpt lat="45.66024" lon="5.83814">
        <ele>843.69</ele>
        <time>2011-04-12T08:51:16Z</time>
      </trkpt>
      <trkpt lat="45.66022" lon="5.83812">
        <ele>843.69</ele>
        <time>2011-04-12T08:51:18Z</time>
      </trkpt>
      <trkpt lat="45.66012" lon="5.83799">
        <ele>845.62</ele>
        <time>2011-04-12T08:51:31Z</time>
      </trkpt>
      <trkpt lat="45.66005" lon="5.83785">
        <ele>846.1</ele>
        <time>2011-04-12T08:51:42Z</time>
      </trkpt>
      <trkpt lat="45.65996" lon="5.83779">
        <ele>848.02</ele>
        <time>2011-04-12T08:51:54Z</time>
      </trkpt>
      <trkpt lat="45.65989" lon="5.83772">
        <ele>848.98</ele>
        <time>2011-04-12T08:52:02Z</time>
      </trkpt>
      <trkpt lat="45.65976" lon="5.83763">
        <ele>850.9</ele>
        <time>2011-04-12T08:52:15Z</time>
      </trkpt>
      <trkpt lat="45.65974" lon="5.83762">
        <ele>851.38</ele>
        <time>2011-04-12T08:52:17Z</time>
      </trkpt>
      <trkpt lat="45.65962" lon="5.83753">
        <ele>852.35</ele>
        <time>2011-04-12T08:52:29Z</time>
      </trkpt>
      <trkpt lat="45.65952" lon="5.8374">
        <ele>853.79</ele>
        <time>2011-04-12T08:52:40Z</time>
      </trkpt>
      <trkpt lat="45.65944" lon="5.83729">
        <ele>855.23</ele>
        <time>2011-04-12T08:52:51Z</time>
      </trkpt>
      <trkpt lat="45.65934" lon="5.83722">
        <ele>856.67</ele>
        <time>2011-04-12T08:53:03Z</time>
      </trkpt>
      <trkpt lat="45.65926" lon="5.83715">
        <ele>858.11</ele>
        <time>2011-04-12T08:53:11Z</time>
      </trkpt>
      <trkpt lat="45.65922" lon="5.8371">
        <ele>858.59</ele>
        <time>2011-04-12T08:53:17Z</time>
      </trkpt>
      <trkpt lat="45.65915" lon="5.83708">
        <ele>859.56</ele>
        <time>2011-04-12T08:53:23Z</time>
      </trkpt>
      <trkpt lat="45.65905" lon="5.83698">
        <ele>861</ele>
        <time>2011-04-12T08:53:35Z</time>
      </trkpt>
      <trkpt lat="45.65899" lon="5.83684">
        <ele>861.96</ele>
        <time>2011-04-12T08:53:47Z</time>
      </trkpt>
      <trkpt lat="45.65894" lon="5.83671">
        <ele>863.4</ele>
        <time>2011-04-12T08:53:55Z</time>
      </trkpt>
      <trkpt lat="45.65888" lon="5.83655">
        <ele>864.84</ele>
        <time>2011-04-12T08:54:07Z</time>
      </trkpt>
      <trkpt lat="45.6588" lon="5.83641">
        <ele>866.77</ele>
        <time>2011-04-12T08:54:20Z</time>
      </trkpt>
      <trkpt lat="45.65872" lon="5.83623">
        <ele>868.69</ele>
        <time>2011-04-12T08:54:34Z</time>
      </trkpt>
      <trkpt lat="45.65861" lon="5.83617">
        <ele>871.09</ele>
        <time>2011-04-12T08:54:48Z</time>
      </trkpt>
      <trkpt lat="45.65851" lon="5.83607">
        <ele>873.01</ele>
        <time>2011-04-12T08:55:00Z</time>
      </trkpt>
      <trkpt lat="45.65847" lon="5.83601">
        <ele>874.46</ele>
        <time>2011-04-12T08:55:10Z</time>
      </trkpt>
      <trkpt lat="45.65852" lon="5.83596">
        <ele>877.34</ele>
        <time>2011-04-12T08:55:25Z</time>
      </trkpt>
      <trkpt lat="45.65846" lon="5.83586">
        <ele>879.74</ele>
        <time>2011-04-12T08:55:37Z</time>
      </trkpt>
      <trkpt lat="45.65847" lon="5.83578">
        <ele>881.19</ele>
        <time>2011-04-12T08:55:47Z</time>
      </trkpt>
      <trkpt lat="45.65855" lon="5.83584">
        <ele>882.63</ele>
        <time>2011-04-12T08:55:57Z</time>
      </trkpt>
      <trkpt lat="45.6587" lon="5.83581">
        <ele>883.59</ele>
        <time>2011-04-12T08:56:09Z</time>
      </trkpt>
      <trkpt lat="45.65888" lon="5.83582">
        <ele>885.51</ele>
        <time>2011-04-12T08:56:21Z</time>
      </trkpt>
      <trkpt lat="45.6589" lon="5.83583">
        <ele>886.47</ele>
        <time>2011-04-12T08:56:23Z</time>
      </trkpt>
      <trkpt lat="45.65904" lon="5.83598">
        <ele>887.91</ele>
        <time>2011-04-12T08:56:37Z</time>
      </trkpt>
      <trkpt lat="45.65913" lon="5.83608">
        <ele>888.88</ele>
        <time>2011-04-12T08:56:48Z</time>
      </trkpt>
      <trkpt lat="45.65926" lon="5.83611">
        <ele>890.8</ele>
        <time>2011-04-12T08:56:59Z</time>
      </trkpt>
      <trkpt lat="45.65941" lon="5.83609">
        <ele>891.76</ele>
        <time>2011-04-12T08:57:10Z</time>
      </trkpt>
      <trkpt lat="45.65953" lon="5.83615">
        <ele>893.2</ele>
        <time>2011-04-12T08:57:22Z</time>
      </trkpt>
      <trkpt lat="45.6596" lon="5.83618">
        <ele>894.64</ele>
        <time>2011-04-12T08:57:29Z</time>
      </trkpt>
      <trkpt lat="45.65963" lon="5.8362">
        <ele>894.64</ele>
        <time>2011-04-12T08:57:32Z</time>
      </trkpt>
      <trkpt lat="45.65971" lon="5.83626">
        <ele>895.61</ele>
        <time>2011-04-12T08:57:39Z</time>
      </trkpt>
      <trkpt lat="45.65993" lon="5.83635">
        <ele>898.01</ele>
        <time>2011-04-12T08:57:55Z</time>
      </trkpt>
      <trkpt lat="45.66004" lon="5.83649">
        <ele>899.45</ele>
        <time>2011-04-12T08:58:07Z</time>
      </trkpt>
      <trkpt lat="45.66018" lon="5.83648">
        <ele>901.37</ele>
        <time>2011-04-12T08:58:19Z</time>
      </trkpt>
      <trkpt lat="45.66029" lon="5.83646">
        <ele>901.85</ele>
        <time>2011-04-12T08:58:29Z</time>
      </trkpt>
      <trkpt lat="45.66043" lon="5.83646">
        <ele>904.26</ele>
        <time>2011-04-12T08:58:42Z</time>
      </trkpt>
      <trkpt lat="45.66061" lon="5.83645">
        <ele>905.7</ele>
        <time>2011-04-12T08:58:56Z</time>
      </trkpt>
      <trkpt lat="45.66073" lon="5.83644">
        <ele>908.1</ele>
        <time>2011-04-12T08:59:10Z</time>
      </trkpt>
      <trkpt lat="45.66089" lon="5.83641">
        <ele>910.03</ele>
        <time>2011-04-12T08:59:23Z</time>
      </trkpt>
      <trkpt lat="45.66108" lon="5.83651">
        <ele>912.43</ele>
        <time>2011-04-12T08:59:38Z</time>
      </trkpt>
      <trkpt lat="45.66124" lon="5.83661">
        <ele>913.87</ele>
        <time>2011-04-12T08:59:52Z</time>
      </trkpt>
      <trkpt lat="45.6614" lon="5.83667">
        <ele>916.27</ele>
        <time>2011-04-12T09:00:06Z</time>
      </trkpt>
      <trkpt lat="45.66145" lon="5.83671">
        <ele>916.75</ele>
        <time>2011-04-12T09:00:11Z</time>
      </trkpt>
      <trkpt lat="45.66157" lon="5.83679">
        <ele>917.72</ele>
        <time>2011-04-12T09:00:22Z</time>
      </trkpt>
      <trkpt lat="45.66171" lon="5.8369">
        <ele>920.12</ele>
        <time>2011-04-12T09:00:35Z</time>
      </trkpt>
      <trkpt lat="45.66181" lon="5.83701">
        <ele>922.04</ele>
        <time>2011-04-12T09:00:46Z</time>
      </trkpt>
      <trkpt lat="45.66196" lon="5.837">
        <ele>923</ele>
        <time>2011-04-12T09:00:57Z</time>
      </trkpt>
      <trkpt lat="45.66214" lon="5.83691">
        <ele>925.41</ele>
        <time>2011-04-12T09:01:13Z</time>
      </trkpt>
      <trkpt lat="45.66227" lon="5.83689">
        <ele>926.37</ele>
        <time>2011-04-12T09:01:24Z</time>
      </trkpt>
      <trkpt lat="45.66246" lon="5.83689">
        <ele>926.85</ele>
        <time>2011-04-12T09:01:38Z</time>
      </trkpt>
      <trkpt lat="45.66251" lon="5.83688">
        <ele>929.73</ele>
        <time>2011-04-12T09:01:43Z</time>
      </trkpt>
      <trkpt lat="45.66258" lon="5.8367">
        <ele>931.17</ele>
        <time>2011-04-12T09:01:56Z</time>
      </trkpt>
      <trkpt lat="45.66259" lon="5.83665">
        <ele>931.17</ele>
        <time>2011-04-12T09:02:00Z</time>
      </trkpt>
      <trkpt lat="45.66254" lon="5.83661">
        <ele>931.65</ele>
        <time>2011-04-12T09:02:04Z</time>
      </trkpt>
      <trkpt lat="45.66237" lon="5.8365">
        <ele>933.58</ele>
        <time>2011-04-12T09:02:18Z</time>
      </trkpt>
      <trkpt lat="45.66225" lon="5.8364">
        <ele>935.02</ele>
        <time>2011-04-12T09:02:30Z</time>
      </trkpt>
      <trkpt lat="45.66217" lon="5.83634">
        <ele>936.94</ele>
        <time>2011-04-12T09:02:42Z</time>
      </trkpt>
      <trkpt lat="45.66214" lon="5.83631">
        <ele>938.38</ele>
        <time>2011-04-12T09:02:53Z</time>
      </trkpt>
      <trkpt lat="45.66214" lon="5.83631">
        <ele>938.86</ele>
        <time>2011-04-12T09:03:14Z</time>
      </trkpt>
      <trkpt lat="45.66214" lon="5.83631">
        <ele>937.9</ele>
        <time>2011-04-12T09:03:30Z</time>
      </trkpt>
      <trkpt lat="45.66214" lon="5.83631">
        <ele>938.38</ele>
        <time>2011-04-12T09:03:49Z</time>
      </trkpt>
      <trkpt lat="45.66214" lon="5.83631">
        <ele>938.86</ele>
        <time>2011-04-12T09:04:12Z</time>
      </trkpt>
      <trkpt lat="45.66213" lon="5.83631">
        <ele>939.83</ele>
        <time>2011-04-12T09:04:31Z</time>
      </trkpt>
      <trkpt lat="45.66213" lon="5.83631">
        <ele>938.86</ele>
        <time>2011-04-12T09:04:49Z</time>
      </trkpt>
      <trkpt lat="45.66213" lon="5.83631">
        <ele>938.86</ele>
        <time>2011-04-12T09:05:06Z</time>
      </trkpt>
      <trkpt lat="45.66213" lon="5.83631">
        <ele>939.35</ele>
        <time>2011-04-12T09:05:23Z</time>
      </trkpt>
      <trkpt lat="45.66213" lon="5.83631">
        <ele>938.86</ele>
        <time>2011-04-12T09:05:42Z</time>
      </trkpt>
      <trkpt lat="45.66207" lon="5.83626">
        <ele>940.79</ele>
        <time>2011-04-12T09:05:54Z</time>
      </trkpt>
      <trkpt lat="45.66207" lon="5.83626">
        <ele>940.79</ele>
        <time>2011-04-12T09:05:56Z</time>
      </trkpt>
      <trkpt lat="45.6621" lon="5.83619">
        <ele>944.15</ele>
        <time>2011-04-12T09:06:11Z</time>
      </trkpt>
      <trkpt lat="45.66215" lon="5.83618">
        <ele>944.63</ele>
        <time>2011-04-12T09:06:19Z</time>
      </trkpt>
      <trkpt lat="45.66227" lon="5.83612">
        <ele>946.07</ele>
        <time>2011-04-12T09:06:29Z</time>
      </trkpt>
      <trkpt lat="45.66231" lon="5.8361">
        <ele>946.07</ele>
        <time>2011-04-12T09:06:31Z</time>
      </trkpt>
      <trkpt lat="45.66239" lon="5.83609">
        <ele>947.52</ele>
        <time>2011-04-12T09:06:38Z</time>
      </trkpt>
      <trkpt lat="45.66255" lon="5.83605">
        <ele>948.96</ele>
        <time>2011-04-12T09:06:52Z</time>
      </trkpt>
      <trkpt lat="45.66258" lon="5.83604">
        <ele>949.44</ele>
        <time>2011-04-12T09:06:55Z</time>
      </trkpt>
      <trkpt lat="45.66262" lon="5.836">
        <ele>951.36</ele>
        <time>2011-04-12T09:07:12Z</time>
      </trkpt>
      <trkpt lat="45.6627" lon="5.83592">
        <ele>952.32</ele>
        <time>2011-04-12T09:07:22Z</time>
      </trkpt>
      <trkpt lat="45.66273" lon="5.83581">
        <ele>954.25</ele>
        <time>2011-04-12T09:07:28Z</time>
      </trkpt>
      <trkpt lat="45.66266" lon="5.83576">
        <ele>956.17</ele>
        <time>2011-04-12T09:07:40Z</time>
      </trkpt>
      <trkpt lat="45.66254" lon="5.83576">
        <ele>959.05</ele>
        <time>2011-04-12T09:07:53Z</time>
      </trkpt>
      <trkpt lat="45.6624" lon="5.83573">
        <ele>960.49</ele>
        <time>2011-04-12T09:08:06Z</time>
      </trkpt>
      <trkpt lat="45.66237" lon="5.83574">
        <ele>960.49</ele>
        <time>2011-04-12T09:08:09Z</time>
      </trkpt>
      <trkpt lat="45.66224" lon="5.83573">
        <ele>962.42</ele>
        <time>2011-04-12T09:08:21Z</time>
      </trkpt>
      <trkpt lat="45.6622" lon="5.83572">
        <ele>962.9</ele>
        <time>2011-04-12T09:08:25Z</time>
      </trkpt>
      <trkpt lat="45.66209" lon="5.83571">
        <ele>964.82</ele>
        <time>2011-04-12T09:08:38Z</time>
      </trkpt>
      <trkpt lat="45.66206" lon="5.8357">
        <ele>965.78</ele>
        <time>2011-04-12T09:08:43Z</time>
      </trkpt>
      <trkpt lat="45.66196" lon="5.83558">
        <ele>967.22</ele>
        <time>2011-04-12T09:08:55Z</time>
      </trkpt>
      <trkpt lat="45.66185" lon="5.83549">
        <ele>969.15</ele>
        <time>2011-04-12T09:09:06Z</time>
      </trkpt>
      <trkpt lat="45.66178" lon="5.8354">
        <ele>969.63</ele>
        <time>2011-04-12T09:09:17Z</time>
      </trkpt>
      <trkpt lat="45.66171" lon="5.83527">
        <ele>971.07</ele>
        <time>2011-04-12T09:09:29Z</time>
      </trkpt>
      <trkpt lat="45.66165" lon="5.83511">
        <ele>972.99</ele>
        <time>2011-04-12T09:09:41Z</time>
      </trkpt>
      <trkpt lat="45.66158" lon="5.8349">
        <ele>974.43</ele>
        <time>2011-04-12T09:09:55Z</time>
      </trkpt>
      <trkpt lat="45.66153" lon="5.83472">
        <ele>975.88</ele>
        <time>2011-04-12T09:10:06Z</time>
      </trkpt>
      <trkpt lat="45.66146" lon="5.83462">
        <ele>977.32</ele>
        <time>2011-04-12T09:10:16Z</time>
      </trkpt>
      <trkpt lat="45.66136" lon="5.83452">
        <ele>979.72</ele>
        <time>2011-04-12T09:10:28Z</time>
      </trkpt>
      <trkpt lat="45.66135" lon="5.83451">
        <ele>980.68</ele>
        <time>2011-04-12T09:10:30Z</time>
      </trkpt>
      <trkpt lat="45.6613" lon="5.8345">
        <ele>981.16</ele>
        <time>2011-04-12T09:10:35Z</time>
      </trkpt>
      <trkpt lat="45.66126" lon="5.8345">
        <ele>981.64</ele>
        <time>2011-04-12T09:10:38Z</time>
      </trkpt>
      <trkpt lat="45.66112" lon="5.83446">
        <ele>983.09</ele>
        <time>2011-04-12T09:10:51Z</time>
      </trkpt>
      <trkpt lat="45.66109" lon="5.83443">
        <ele>985.01</ele>
        <time>2011-04-12T09:11:02Z</time>
      </trkpt>
      <trkpt lat="45.66119" lon="5.83437">
        <ele>986.93</ele>
        <time>2011-04-12T09:11:15Z</time>
      </trkpt>
      <trkpt lat="45.66122" lon="5.83435">
        <ele>987.41</ele>
        <time>2011-04-12T09:11:19Z</time>
      </trkpt>
      <trkpt lat="45.66129" lon="5.83433">
        <ele>990.3</ele>
        <time>2011-04-12T09:11:36Z</time>
      </trkpt>
      <trkpt lat="45.66132" lon="5.83437">
        <ele>991.74</ele>
        <time>2011-04-12T09:11:42Z</time>
      </trkpt>
      <trkpt lat="45.66153" lon="5.83424">
        <ele>995.58</ele>
        <time>2011-04-12T09:11:59Z</time>
      </trkpt>
      <trkpt lat="45.6617" lon="5.83416">
        <ele>997.51</ele>
        <time>2011-04-12T09:12:12Z</time>
      </trkpt>
      <trkpt lat="45.66185" lon="5.83419">
        <ele>1000.87</ele>
        <time>2011-04-12T09:12:29Z</time>
      </trkpt>
      <trkpt lat="45.6618" lon="5.83415">
        <ele>1002.31</ele>
        <time>2011-04-12T09:12:41Z</time>
      </trkpt>
      <trkpt lat="45.66172" lon="5.8341">
        <ele>1003.75</ele>
        <time>2011-04-12T09:12:51Z</time>
      </trkpt>
      <trkpt lat="45.66164" lon="5.83406">
        <ele>1005.68</ele>
        <time>2011-04-12T09:12:58Z</time>
      </trkpt>
      <trkpt lat="45.66153" lon="5.83401">
        <ele>1007.12</ele>
        <time>2011-04-12T09:13:11Z</time>
      </trkpt>
      <trkpt lat="45.66146" lon="5.83396">
        <ele>1009.52</ele>
        <time>2011-04-12T09:13:22Z</time>
      </trkpt>
      <trkpt lat="45.66144" lon="5.83396">
        <ele>1009.52</ele>
        <time>2011-04-12T09:13:24Z</time>
      </trkpt>
      <trkpt lat="45.66141" lon="5.83395">
        <ele>1010</ele>
        <time>2011-04-12T09:13:27Z</time>
      </trkpt>
      <trkpt lat="45.6613" lon="5.83388">
        <ele>1011.93</ele>
        <time>2011-04-12T09:13:40Z</time>
      </trkpt>
      <trkpt lat="45.66126" lon="5.83387">
        <ele>1011.93</ele>
        <time>2011-04-12T09:13:44Z</time>
      </trkpt>
      <trkpt lat="45.66124" lon="5.83387">
        <ele>1012.41</ele>
        <time>2011-04-12T09:13:46Z</time>
      </trkpt>
      <trkpt lat="45.66115" lon="5.83384">
        <ele>1015.29</ele>
        <time>2011-04-12T09:13:57Z</time>
      </trkpt>
      <trkpt lat="45.66104" lon="5.83379">
        <ele>1017.69</ele>
        <time>2011-04-12T09:14:12Z</time>
      </trkpt>
      <trkpt lat="45.66103" lon="5.83378">
        <ele>1018.65</ele>
        <time>2011-04-12T09:14:18Z</time>
      </trkpt>
      <trkpt lat="45.66106" lon="5.83375">
        <ele>1019.13</ele>
        <time>2011-04-12T09:14:21Z</time>
      </trkpt>
      <trkpt lat="45.66107" lon="5.83374">
        <ele>1019.13</ele>
        <time>2011-04-12T09:14:23Z</time>
      </trkpt>
      <trkpt lat="45.66108" lon="5.83373">
        <ele>1019.62</ele>
        <time>2011-04-12T09:14:25Z</time>
      </trkpt>
      <trkpt lat="45.66118" lon="5.83365">
        <ele>1020.58</ele>
        <time>2011-04-12T09:14:32Z</time>
      </trkpt>
      <trkpt lat="45.66123" lon="5.83362">
        <ele>1021.06</ele>
        <time>2011-04-12T09:14:35Z</time>
      </trkpt>
      <trkpt lat="45.66124" lon="5.83361">
        <ele>1021.54</ele>
        <time>2011-04-12T09:14:40Z</time>
      </trkpt>
      <trkpt lat="45.66132" lon="5.83357">
        <ele>1022.98</ele>
        <time>2011-04-12T09:14:53Z</time>
      </trkpt>
      <trkpt lat="45.66133" lon="5.83357">
        <ele>1023.46</ele>
        <time>2011-04-12T09:14:56Z</time>
      </trkpt>
      <trkpt lat="45.66143" lon="5.83353">
        <ele>1024.9</ele>
        <time>2011-04-12T09:15:11Z</time>
      </trkpt>
      <trkpt lat="45.66146" lon="5.83353">
        <ele>1025.86</ele>
        <time>2011-04-12T09:15:14Z</time>
      </trkpt>
      <trkpt lat="45.66156" lon="5.83352">
        <ele>1026.34</ele>
        <time>2011-04-12T09:15:20Z</time>
      </trkpt>
      <trkpt lat="45.6616" lon="5.8335">
        <ele>1026.83</ele>
        <time>2011-04-12T09:15:24Z</time>
      </trkpt>
      <trkpt lat="45.66167" lon="5.83346">
        <ele>1028.75</ele>
        <time>2011-04-12T09:15:31Z</time>
      </trkpt>
      <trkpt lat="45.66172" lon="5.83346">
        <ele>1029.23</ele>
        <time>2011-04-12T09:15:35Z</time>
      </trkpt>
      <trkpt lat="45.66177" lon="5.83344">
        <ele>1031.15</ele>
        <time>2011-04-12T09:15:41Z</time>
      </trkpt>
      <trkpt lat="45.6618" lon="5.83347">
        <ele>1030.19</ele>
        <time>2011-04-12T09:15:46Z</time>
      </trkpt>
      <trkpt lat="45.66182" lon="5.83349">
        <ele>1031.63</ele>
        <time>2011-04-12T09:15:52Z</time>
      </trkpt>
      <trkpt lat="45.66185" lon="5.83349">
        <ele>1032.59</ele>
        <time>2011-04-12T09:15:55Z</time>
      </trkpt>
      <trkpt lat="45.66193" lon="5.83345">
        <ele>1033.07</ele>
        <time>2011-04-12T09:16:01Z</time>
      </trkpt>
      <trkpt lat="45.66202" lon="5.83344">
        <ele>1036.44</ele>
        <time>2011-04-12T09:16:16Z</time>
      </trkpt>
      <trkpt lat="45.66206" lon="5.83343">
        <ele>1036.92</ele>
        <time>2011-04-12T09:16:19Z</time>
      </trkpt>
      <trkpt lat="45.66207" lon="5.83343">
        <ele>1037.4</ele>
        <time>2011-04-12T09:16:21Z</time>
      </trkpt>
      <trkpt lat="45.6621" lon="5.83342">
        <ele>1038.84</ele>
        <time>2011-04-12T09:16:30Z</time>
      </trkpt>
      <trkpt lat="45.66211" lon="5.83342">
        <ele>1040.28</ele>
        <time>2011-04-12T09:16:37Z</time>
      </trkpt>
      <trkpt lat="45.66238" lon="5.83334">
        <ele>1041.73</ele>
        <time>2011-04-12T09:16:54Z</time>
      </trkpt>
      <trkpt lat="45.66245" lon="5.83334">
        <ele>1045.09</ele>
        <time>2011-04-12T09:17:08Z</time>
      </trkpt>
      <trkpt lat="45.66248" lon="5.83337">
        <ele>1046.05</ele>
        <time>2011-04-12T09:17:12Z</time>
      </trkpt>
      <trkpt lat="45.66256" lon="5.83338">
        <ele>1047.49</ele>
        <time>2011-04-12T09:17:22Z</time>
      </trkpt>
      <trkpt lat="45.66269" lon="5.83339">
        <ele>1050.38</ele>
        <time>2011-04-12T09:17:37Z</time>
      </trkpt>
      <trkpt lat="45.66278" lon="5.83335">
        <ele>1051.82</ele>
        <time>2011-04-12T09:17:45Z</time>
      </trkpt>
      <trkpt lat="45.6628" lon="5.83337">
        <ele>1052.3</ele>
        <time>2011-04-12T09:17:47Z</time>
      </trkpt>
      <trkpt lat="45.66289" lon="5.83339">
        <ele>1054.7</ele>
        <time>2011-04-12T09:18:01Z</time>
      </trkpt>
      <trkpt lat="45.6629" lon="5.83339">
        <ele>1056.15</ele>
        <time>2011-04-12T09:18:07Z</time>
      </trkpt>
      <trkpt lat="45.66293" lon="5.83339">
        <ele>1056.63</ele>
        <time>2011-04-12T09:18:12Z</time>
      </trkpt>
      <trkpt lat="45.66296" lon="5.83338">
        <ele>1057.11</ele>
        <time>2011-04-12T09:18:15Z</time>
      </trkpt>
      <trkpt lat="45.66298" lon="5.83338">
        <ele>1057.59</ele>
        <time>2011-04-12T09:18:18Z</time>
      </trkpt>
      <trkpt lat="45.66294" lon="5.83333">
        <ele>1059.99</ele>
        <time>2011-04-12T09:18:30Z</time>
      </trkpt>
      <trkpt lat="45.66293" lon="5.83333">
        <ele>1059.99</ele>
        <time>2011-04-12T09:18:31Z</time>
      </trkpt>
      <trkpt lat="45.66285" lon="5.83328">
        <ele>1062.39</ele>
        <time>2011-04-12T09:18:43Z</time>
      </trkpt>
      <trkpt lat="45.66274" lon="5.83319">
        <ele>1063.84</ele>
        <time>2011-04-12T09:18:55Z</time>
      </trkpt>
      <trkpt lat="45.66266" lon="5.83308">
        <ele>1064.8</ele>
        <time>2011-04-12T09:19:05Z</time>
      </trkpt>
      <trkpt lat="45.66257" lon="5.83301">
        <ele>1065.28</ele>
        <time>2011-04-12T09:19:18Z</time>
      </trkpt>
      <trkpt lat="45.66256" lon="5.83299">
        <ele>1064.32</ele>
        <time>2011-04-12T09:19:33Z</time>
      </trkpt>
      <trkpt lat="45.66256" lon="5.83299">
        <ele>1065.28</ele>
        <time>2011-04-12T09:19:39Z</time>
      </trkpt>
      <trkpt lat="45.66256" lon="5.83299">
        <ele>1065.28</ele>
        <time>2011-04-12T09:20:02Z</time>
      </trkpt>
      <trkpt lat="45.66256" lon="5.833">
        <ele>1065.28</ele>
        <time>2011-04-12T09:20:26Z</time>
      </trkpt>
      <trkpt lat="45.66256" lon="5.833">
        <ele>1065.76</ele>
        <time>2011-04-12T09:20:44Z</time>
      </trkpt>
      <trkpt lat="45.66258" lon="5.833">
        <ele>1067.2</ele>
        <time>2011-04-12T09:20:56Z</time>
      </trkpt>
      <trkpt lat="45.66265" lon="5.83301">
        <ele>1068.16</ele>
        <time>2011-04-12T09:21:03Z</time>
      </trkpt>
      <trkpt lat="45.66271" lon="5.83304">
        <ele>1068.64</ele>
        <time>2011-04-12T09:21:07Z</time>
      </trkpt>
      <trkpt lat="45.66291" lon="5.83312">
        <ele>1071.05</ele>
        <time>2011-04-12T09:21:23Z</time>
      </trkpt>
      <trkpt lat="45.66301" lon="5.83313">
        <ele>1073.45</ele>
        <time>2011-04-12T09:21:37Z</time>
      </trkpt>
      <trkpt lat="45.66306" lon="5.83313">
        <ele>1073.45</ele>
        <time>2011-04-12T09:21:40Z</time>
      </trkpt>
      <trkpt lat="45.6632" lon="5.8331">
        <ele>1076.33</ele>
        <time>2011-04-12T09:21:57Z</time>
      </trkpt>
      <trkpt lat="45.66325" lon="5.83309">
        <ele>1076.33</ele>
        <time>2011-04-12T09:22:01Z</time>
      </trkpt>
      <trkpt lat="45.66338" lon="5.83307">
        <ele>1078.26</ele>
        <time>2011-04-12T09:22:14Z</time>
      </trkpt>
      <trkpt lat="45.66343" lon="5.83305">
        <ele>1079.7</ele>
        <time>2011-04-12T09:22:20Z</time>
      </trkpt>
      <trkpt lat="45.66354" lon="5.83301">
        <ele>1080.66</ele>
        <time>2011-04-12T09:22:33Z</time>
      </trkpt>
      <trkpt lat="45.66367" lon="5.83296">
        <ele>1082.58</ele>
        <time>2011-04-12T09:22:47Z</time>
      </trkpt>
      <trkpt lat="45.66369" lon="5.83296">
        <ele>1082.58</ele>
        <time>2011-04-12T09:22:49Z</time>
      </trkpt>
      <trkpt lat="45.66382" lon="5.83294">
        <ele>1084.99</ele>
        <time>2011-04-12T09:23:00Z</time>
      </trkpt>
      <trkpt lat="45.66388" lon="5.83295">
        <ele>1084.5</ele>
        <time>2011-04-12T09:23:03Z</time>
      </trkpt>
      <trkpt lat="45.66397" lon="5.83295">
        <ele>1084.99</ele>
        <time>2011-04-12T09:23:10Z</time>
      </trkpt>
      <trkpt lat="45.66409" lon="5.83293">
        <ele>1086.43</ele>
        <time>2011-04-12T09:23:25Z</time>
      </trkpt>
      <trkpt lat="45.66424" lon="5.83298">
        <ele>1087.87</ele>
        <time>2011-04-12T09:23:41Z</time>
      </trkpt>
      <trkpt lat="45.66437" lon="5.83298">
        <ele>1088.83</ele>
        <time>2011-04-12T09:23:56Z</time>
      </trkpt>
      <trkpt lat="45.66449" lon="5.83302">
        <ele>1090.27</ele>
        <time>2011-04-12T09:24:11Z</time>
      </trkpt>
      <trkpt lat="45.66462" lon="5.83302">
        <ele>1090.75</ele>
        <time>2011-04-12T09:24:19Z</time>
      </trkpt>
      <trkpt lat="45.66463" lon="5.83303">
        <ele>1090.75</ele>
        <time>2011-04-12T09:24:22Z</time>
      </trkpt>
      <trkpt lat="45.66467" lon="5.83302">
        <ele>1091.71</ele>
        <time>2011-04-12T09:24:26Z</time>
      </trkpt>
      <trkpt lat="45.66472" lon="5.83302">
        <ele>1092.68</ele>
        <time>2011-04-12T09:24:30Z</time>
      </trkpt>
      <trkpt lat="45.66483" lon="5.83309">
        <ele>1093.64</ele>
        <time>2011-04-12T09:24:39Z</time>
      </trkpt>
      <trkpt lat="45.6649" lon="5.83309">
        <ele>1094.12</ele>
        <time>2011-04-12T09:24:47Z</time>
      </trkpt>
      <trkpt lat="45.66499" lon="5.8331">
        <ele>1094.6</ele>
        <time>2011-04-12T09:24:54Z</time>
      </trkpt>
      <trkpt lat="45.66507" lon="5.83316">
        <ele>1095.08</ele>
        <time>2011-04-12T09:25:02Z</time>
      </trkpt>
      <trkpt lat="45.66514" lon="5.83319">
        <ele>1096.04</ele>
        <time>2011-04-12T09:25:10Z</time>
      </trkpt>
      <trkpt lat="45.66528" lon="5.83325">
        <ele>1097.48</ele>
        <time>2011-04-12T09:25:24Z</time>
      </trkpt>
      <trkpt lat="45.66547" lon="5.83327">
        <ele>1097.48</ele>
        <time>2011-04-12T09:25:39Z</time>
      </trkpt>
      <trkpt lat="45.66548" lon="5.83328">
        <ele>1097.96</ele>
        <time>2011-04-12T09:25:40Z</time>
      </trkpt>
      <trkpt lat="45.66556" lon="5.83336">
        <ele>1097.96</ele>
        <time>2011-04-12T09:25:54Z</time>
      </trkpt>
      <trkpt lat="45.66564" lon="5.83338">
        <ele>1099.89</ele>
        <time>2011-04-12T09:26:02Z</time>
      </trkpt>
      <trkpt lat="45.66566" lon="5.83338">
        <ele>1099.89</ele>
        <time>2011-04-12T09:26:04Z</time>
      </trkpt>
      <trkpt lat="45.66577" lon="5.83338">
        <ele>1100.85</ele>
        <time>2011-04-12T09:26:17Z</time>
      </trkpt>
      <trkpt lat="45.66591" lon="5.83344">
        <ele>1103.73</ele>
        <time>2011-04-12T09:26:33Z</time>
      </trkpt>
      <trkpt lat="45.66605" lon="5.83352">
        <ele>1106.13</ele>
        <time>2011-04-12T09:26:47Z</time>
      </trkpt>
      <trkpt lat="45.6661" lon="5.83354">
        <ele>1106.61</ele>
        <time>2011-04-12T09:26:52Z</time>
      </trkpt>
      <trkpt lat="45.66625" lon="5.83355">
        <ele>1108.06</ele>
        <time>2011-04-12T09:27:07Z</time>
      </trkpt>
      <trkpt lat="45.66632" lon="5.83352">
        <ele>1109.5</ele>
        <time>2011-04-12T09:27:15Z</time>
      </trkpt>
      <trkpt lat="45.66651" lon="5.83351">
        <ele>1110.46</ele>
        <time>2011-04-12T09:27:33Z</time>
      </trkpt>
      <trkpt lat="45.66666" lon="5.83349">
        <ele>1112.86</ele>
        <time>2011-04-12T09:27:49Z</time>
      </trkpt>
      <trkpt lat="45.66672" lon="5.8335">
        <ele>1113.82</ele>
        <time>2011-04-12T09:27:59Z</time>
      </trkpt>
      <trkpt lat="45.66674" lon="5.83351">
        <ele>1113.34</ele>
        <time>2011-04-12T09:28:01Z</time>
      </trkpt>
      <trkpt lat="45.66678" lon="5.83351">
        <ele>1113.82</ele>
        <time>2011-04-12T09:28:06Z</time>
      </trkpt>
      <trkpt lat="45.66683" lon="5.83347">
        <ele>1114.31</ele>
        <time>2011-04-12T09:28:13Z</time>
      </trkpt>
      <trkpt lat="45.66698" lon="5.83351">
        <ele>1116.23</ele>
        <time>2011-04-12T09:28:29Z</time>
      </trkpt>
      <trkpt lat="45.66702" lon="5.83352">
        <ele>1117.19</ele>
        <time>2011-04-12T09:28:35Z</time>
      </trkpt>
      <trkpt lat="45.66718" lon="5.83354">
        <ele>1118.63</ele>
        <time>2011-04-12T09:28:51Z</time>
      </trkpt>
      <trkpt lat="45.66723" lon="5.83351">
        <ele>1119.11</ele>
        <time>2011-04-12T09:28:56Z</time>
      </trkpt>
      <trkpt lat="45.66736" lon="5.83355">
        <ele>1122</ele>
        <time>2011-04-12T09:29:13Z</time>
      </trkpt>
      <trkpt lat="45.66746" lon="5.83356">
        <ele>1123.44</ele>
        <time>2011-04-12T09:29:25Z</time>
      </trkpt>
      <trkpt lat="45.66755" lon="5.83359">
        <ele>1123.92</ele>
        <time>2011-04-12T09:29:33Z</time>
      </trkpt>
      <trkpt lat="45.66765" lon="5.83364">
        <ele>1125.36</ele>
        <time>2011-04-12T09:29:46Z</time>
      </trkpt>
      <trkpt lat="45.66772" lon="5.83366">
        <ele>1126.8</ele>
        <time>2011-04-12T09:29:59Z</time>
      </trkpt>
      <trkpt lat="45.66789" lon="5.83368">
        <ele>1127.76</ele>
        <time>2011-04-12T09:30:13Z</time>
      </trkpt>
      <trkpt lat="45.66801" lon="5.83374">
        <ele>1129.21</ele>
        <time>2011-04-12T09:30:26Z</time>
      </trkpt>
      <trkpt lat="45.66805" lon="5.83371">
        <ele>1130.65</ele>
        <time>2011-04-12T09:30:33Z</time>
      </trkpt>
      <trkpt lat="45.66811" lon="5.8337">
        <ele>1133.53</ele>
        <time>2011-04-12T09:30:51Z</time>
      </trkpt>
      <trkpt lat="45.66816" lon="5.8337">
        <ele>1134.01</ele>
        <time>2011-04-12T09:30:54Z</time>
      </trkpt>
      <trkpt lat="45.66819" lon="5.8337">
        <ele>1134.01</ele>
        <time>2011-04-12T09:30:56Z</time>
      </trkpt>
      <trkpt lat="45.66834" lon="5.83372">
        <ele>1135.45</ele>
        <time>2011-04-12T09:31:11Z</time>
      </trkpt>
      <trkpt lat="45.66838" lon="5.83371">
        <ele>1136.42</ele>
        <time>2011-04-12T09:31:16Z</time>
      </trkpt>
      <trkpt lat="45.66847" lon="5.83376">
        <ele>1138.82</ele>
        <time>2011-04-12T09:31:31Z</time>
      </trkpt>
      <trkpt lat="45.66854" lon="5.83375">
        <ele>1141.22</ele>
        <time>2011-04-12T09:31:47Z</time>
      </trkpt>
      <trkpt lat="45.66855" lon="5.83373">
        <ele>1141.22</ele>
        <time>2011-04-12T09:32:06Z</time>
      </trkpt>
      <trkpt lat="45.66857" lon="5.83372">
        <ele>1142.18</ele>
        <time>2011-04-12T09:32:16Z</time>
      </trkpt>
      <trkpt lat="45.6687" lon="5.83375">
        <ele>1145.55</ele>
        <time>2011-04-12T09:32:31Z</time>
      </trkpt>
      <trkpt lat="45.6688" lon="5.8338">
        <ele>1146.99</ele>
        <time>2011-04-12T09:32:47Z</time>
      </trkpt>
      <trkpt lat="45.6689" lon="5.83384">
        <ele>1148.91</ele>
        <time>2011-04-12T09:33:02Z</time>
      </trkpt>
      <trkpt lat="45.66911" lon="5.83387">
        <ele>1151.32</ele>
        <time>2011-04-12T09:33:18Z</time>
      </trkpt>
      <trkpt lat="45.66923" lon="5.83393">
        <ele>1152.76</ele>
        <time>2011-04-12T09:33:33Z</time>
      </trkpt>
      <trkpt lat="45.66925" lon="5.83394">
        <ele>1152.76</ele>
        <time>2011-04-12T09:33:35Z</time>
      </trkpt>
      <trkpt lat="45.66928" lon="5.83397">
        <ele>1152.76</ele>
        <time>2011-04-12T09:33:38Z</time>
      </trkpt>
      <trkpt lat="45.66933" lon="5.83397">
        <ele>1153.72</ele>
        <time>2011-04-12T09:33:43Z</time>
      </trkpt>
      <trkpt lat="45.66936" lon="5.83398">
        <ele>1153.72</ele>
        <time>2011-04-12T09:33:46Z</time>
      </trkpt>
      <trkpt lat="45.66944" lon="5.83397">
        <ele>1155.64</ele>
        <time>2011-04-12T09:34:00Z</time>
      </trkpt>
      <trkpt lat="45.66954" lon="5.83399">
        <ele>1156.12</ele>
        <time>2011-04-12T09:34:09Z</time>
      </trkpt>
      <trkpt lat="45.66965" lon="5.83401">
        <ele>1158.05</ele>
        <time>2011-04-12T09:34:20Z</time>
      </trkpt>
      <trkpt lat="45.6697" lon="5.83402">
        <ele>1158.05</ele>
        <time>2011-04-12T09:34:24Z</time>
      </trkpt>
      <trkpt lat="45.66985" lon="5.83402">
        <ele>1160.45</ele>
        <time>2011-04-12T09:34:40Z</time>
      </trkpt>
      <trkpt lat="45.66996" lon="5.83405">
        <ele>1162.37</ele>
        <time>2011-04-12T09:34:53Z</time>
      </trkpt>
      <trkpt lat="45.67004" lon="5.83409">
        <ele>1163.81</ele>
        <time>2011-04-12T09:35:09Z</time>
      </trkpt>
      <trkpt lat="45.67007" lon="5.8341">
        <ele>1164.29</ele>
        <time>2011-04-12T09:35:21Z</time>
      </trkpt>
      <trkpt lat="45.67027" lon="5.83417">
        <ele>1165.74</ele>
        <time>2011-04-12T09:35:40Z</time>
      </trkpt>
      <trkpt lat="45.67044" lon="5.8342">
        <ele>1168.62</ele>
        <time>2011-04-12T09:35:56Z</time>
      </trkpt>
      <trkpt lat="45.67053" lon="5.83423">
        <ele>1169.1</ele>
        <time>2011-04-12T09:36:04Z</time>
      </trkpt>
      <trkpt lat="45.67065" lon="5.8343">
        <ele>1170.06</ele>
        <time>2011-04-12T09:36:19Z</time>
      </trkpt>
      <trkpt lat="45.67068" lon="5.83431">
        <ele>1171.5</ele>
        <time>2011-04-12T09:36:23Z</time>
      </trkpt>
      <trkpt lat="45.67078" lon="5.83433">
        <ele>1172.95</ele>
        <time>2011-04-12T09:36:36Z</time>
      </trkpt>
      <trkpt lat="45.67091" lon="5.83436">
        <ele>1174.39</ele>
        <time>2011-04-12T09:36:54Z</time>
      </trkpt>
      <trkpt lat="45.67099" lon="5.83435">
        <ele>1175.83</ele>
        <time>2011-04-12T09:37:11Z</time>
      </trkpt>
      <trkpt lat="45.67112" lon="5.83424">
        <ele>1177.27</ele>
        <time>2011-04-12T09:37:27Z</time>
      </trkpt>
      <trkpt lat="45.67117" lon="5.83421">
        <ele>1176.31</ele>
        <time>2011-04-12T09:37:34Z</time>
      </trkpt>
      <trkpt lat="45.67126" lon="5.8342">
        <ele>1177.27</ele>
        <time>2011-04-12T09:37:47Z</time>
      </trkpt>
      <trkpt lat="45.67134" lon="5.83406">
        <ele>1178.23</ele>
        <time>2011-04-12T09:38:01Z</time>
      </trkpt>
      <trkpt lat="45.67143" lon="5.83392">
        <ele>1181.6</ele>
        <time>2011-04-12T09:38:16Z</time>
      </trkpt>
      <trkpt lat="45.6715" lon="5.83384">
        <ele>1183.52</ele>
        <time>2011-04-12T09:38:30Z</time>
      </trkpt>
      <trkpt lat="45.67151" lon="5.83384">
        <ele>1184</ele>
        <time>2011-04-12T09:38:31Z</time>
      </trkpt>
      <trkpt lat="45.67159" lon="5.83376">
        <ele>1184.48</ele>
        <time>2011-04-12T09:38:49Z</time>
      </trkpt>
      <trkpt lat="45.67161" lon="5.83372">
        <ele>1186.88</ele>
        <time>2011-04-12T09:39:08Z</time>
      </trkpt>
      <trkpt lat="45.67161" lon="5.83372">
        <ele>1188.81</ele>
        <time>2011-04-12T09:39:24Z</time>
      </trkpt>
      <trkpt lat="45.67172" lon="5.83368">
        <ele>1188.81</ele>
        <time>2011-04-12T09:39:28Z</time>
      </trkpt>
      <trkpt lat="45.67188" lon="5.83366">
        <ele>1188.81</ele>
        <time>2011-04-12T09:39:34Z</time>
      </trkpt>
      <trkpt lat="45.6719" lon="5.83366">
        <ele>1189.29</ele>
        <time>2011-04-12T09:39:36Z</time>
      </trkpt>
      <trkpt lat="45.67194" lon="5.83368">
        <ele>1189.77</ele>
        <time>2011-04-12T09:39:41Z</time>
      </trkpt>
      <trkpt lat="45.67203" lon="5.83377">
        <ele>1191.21</ele>
        <time>2011-04-12T09:39:53Z</time>
      </trkpt>
      <trkpt lat="45.6721" lon="5.83377">
        <ele>1192.65</ele>
        <time>2011-04-12T09:40:02Z</time>
      </trkpt>
      <trkpt lat="45.67225" lon="5.83393">
        <ele>1195.54</ele>
        <time>2011-04-12T09:40:22Z</time>
      </trkpt>
      <trkpt lat="45.67244" lon="5.83407">
        <ele>1197.94</ele>
        <time>2011-04-12T09:40:40Z</time>
      </trkpt>
      <trkpt lat="45.67257" lon="5.83418">
        <ele>1199.86</ele>
        <time>2011-04-12T09:40:56Z</time>
      </trkpt>
      <trkpt lat="45.67267" lon="5.83429">
        <ele>1201.3</ele>
        <time>2011-04-12T09:41:12Z</time>
      </trkpt>
      <trkpt lat="45.67275" lon="5.83433">
        <ele>1203.23</ele>
        <time>2011-04-12T09:41:28Z</time>
      </trkpt>
      <trkpt lat="45.67292" lon="5.83436">
        <ele>1206.59</ele>
        <time>2011-04-12T09:41:44Z</time>
      </trkpt>
      <trkpt lat="45.67294" lon="5.83436">
        <ele>1207.07</ele>
        <time>2011-04-12T09:41:46Z</time>
      </trkpt>
      <trkpt lat="45.673" lon="5.83437">
        <ele>1208.51</ele>
        <time>2011-04-12T09:42:03Z</time>
      </trkpt>
      <trkpt lat="45.673" lon="5.83437">
        <ele>1209.48</ele>
        <time>2011-04-12T09:42:20Z</time>
      </trkpt>
      <trkpt lat="45.673" lon="5.83437">
        <ele>1209.48</ele>
        <time>2011-04-12T09:42:35Z</time>
      </trkpt>
      <trkpt lat="45.67299" lon="5.83438">
        <ele>1209.96</ele>
        <time>2011-04-12T09:42:55Z</time>
      </trkpt>
      <trkpt lat="45.67299" lon="5.83438">
        <ele>1209</ele>
        <time>2011-04-12T09:43:15Z</time>
      </trkpt>
      <trkpt lat="45.67298" lon="5.83439">
        <ele>1209</ele>
        <time>2011-04-12T09:43:35Z</time>
      </trkpt>
      <trkpt lat="45.67298" lon="5.83439">
        <ele>1209.48</ele>
        <time>2011-04-12T09:43:55Z</time>
      </trkpt>
      <trkpt lat="45.67299" lon="5.83441">
        <ele>1209.96</ele>
        <time>2011-04-12T09:44:13Z</time>
      </trkpt>
      <trkpt lat="45.67299" lon="5.83441">
        <ele>1209.96</ele>
        <time>2011-04-12T09:44:31Z</time>
      </trkpt>
      <trkpt lat="45.67299" lon="5.83441">
        <ele>1209.96</ele>
        <time>2011-04-12T09:44:35Z</time>
      </trkpt>
      <trkpt lat="45.67299" lon="5.83442">
        <ele>1210.44</ele>
        <time>2011-04-12T09:44:56Z</time>
      </trkpt>
      <trkpt lat="45.67294" lon="5.83441">
        <ele>1209.96</ele>
        <time>2011-04-12T09:45:14Z</time>
      </trkpt>
      <trkpt lat="45.67294" lon="5.83441">
        <ele>1209.96</ele>
        <time>2011-04-12T09:45:33Z</time>
      </trkpt>
      <trkpt lat="45.6729" lon="5.8344">
        <ele>1210.44</ele>
        <time>2011-04-12T09:45:44Z</time>
      </trkpt>
      <trkpt lat="45.67278" lon="5.83424">
        <ele>1212.84</ele>
        <time>2011-04-12T09:45:59Z</time>
      </trkpt>
      <trkpt lat="45.67272" lon="5.83418">
        <ele>1213.8</ele>
        <time>2011-04-12T09:46:09Z</time>
      </trkpt>
      <trkpt lat="45.67263" lon="5.83403">
        <ele>1215.72</ele>
        <time>2011-04-12T09:46:23Z</time>
      </trkpt>
      <trkpt lat="45.67262" lon="5.83399">
        <ele>1216.21</ele>
        <time>2011-04-12T09:46:26Z</time>
      </trkpt>
      <trkpt lat="45.67259" lon="5.83387">
        <ele>1217.65</ele>
        <time>2011-04-12T09:46:40Z</time>
      </trkpt>
      <trkpt lat="45.67259" lon="5.83379">
        <ele>1220.05</ele>
        <time>2011-04-12T09:46:48Z</time>
      </trkpt>
      <trkpt lat="45.67258" lon="5.83368">
        <ele>1222.45</ele>
        <time>2011-04-12T09:47:01Z</time>
      </trkpt>
      <trkpt lat="45.67254" lon="5.83358">
        <ele>1223.9</ele>
        <time>2011-04-12T09:47:13Z</time>
      </trkpt>
      <trkpt lat="45.67258" lon="5.83365">
        <ele>1225.34</ele>
        <time>2011-04-12T09:47:26Z</time>
      </trkpt>
      <trkpt lat="45.67262" lon="5.83368">
        <ele>1225.34</ele>
        <time>2011-04-12T09:47:28Z</time>
      </trkpt>
      <trkpt lat="45.67276" lon="5.83378">
        <ele>1226.3</ele>
        <time>2011-04-12T09:47:41Z</time>
      </trkpt>
      <trkpt lat="45.67279" lon="5.83381">
        <ele>1227.74</ele>
        <time>2011-04-12T09:47:45Z</time>
      </trkpt>
      <trkpt lat="45.67284" lon="5.83388">
        <ele>1229.18</ele>
        <time>2011-04-12T09:47:57Z</time>
      </trkpt>
      <trkpt lat="45.67286" lon="5.83389">
        <ele>1229.66</ele>
        <time>2011-04-12T09:47:59Z</time>
      </trkpt>
      <trkpt lat="45.67291" lon="5.83393">
        <ele>1229.66</ele>
        <time>2011-04-12T09:48:04Z</time>
      </trkpt>
      <trkpt lat="45.67299" lon="5.83395">
        <ele>1233.03</ele>
        <time>2011-04-12T09:48:20Z</time>
      </trkpt>
      <trkpt lat="45.67287" lon="5.83383">
        <ele>1233.99</ele>
        <time>2011-04-12T09:48:32Z</time>
      </trkpt>
      <trkpt lat="45.67284" lon="5.83376">
        <ele>1234.95</ele>
        <time>2011-04-12T09:48:40Z</time>
      </trkpt>
      <trkpt lat="45.67279" lon="5.83364">
        <ele>1235.91</ele>
        <time>2011-04-12T09:48:52Z</time>
      </trkpt>
      <trkpt lat="45.67273" lon="5.83354">
        <ele>1237.83</ele>
        <time>2011-04-12T09:49:03Z</time>
      </trkpt>
      <trkpt lat="45.67271" lon="5.8334">
        <ele>1239.28</ele>
        <time>2011-04-12T09:49:14Z</time>
      </trkpt>
      <trkpt lat="45.67266" lon="5.83331">
        <ele>1240.24</ele>
        <time>2011-04-12T09:49:23Z</time>
      </trkpt>
      <trkpt lat="45.67267" lon="5.83331">
        <ele>1241.68</ele>
        <time>2011-04-12T09:49:32Z</time>
      </trkpt>
      <trkpt lat="45.67276" lon="5.8334">
        <ele>1242.16</ele>
        <time>2011-04-12T09:49:40Z</time>
      </trkpt>
      <trkpt lat="45.67288" lon="5.8335">
        <ele>1244.08</ele>
        <time>2011-04-12T09:49:56Z</time>
      </trkpt>
      <trkpt lat="45.67289" lon="5.83351">
        <ele>1244.56</ele>
        <time>2011-04-12T09:49:57Z</time>
      </trkpt>
      <trkpt lat="45.6729" lon="5.83353">
        <ele>1244.56</ele>
        <time>2011-04-12T09:49:59Z</time>
      </trkpt>
      <trkpt lat="45.67291" lon="5.83354">
        <ele>1244.08</ele>
        <time>2011-04-12T09:50:01Z</time>
      </trkpt>
      <trkpt lat="45.67294" lon="5.83354">
        <ele>1245.53</ele>
        <time>2011-04-12T09:50:05Z</time>
      </trkpt>
      <trkpt lat="45.67304" lon="5.83358">
        <ele>1246.97</ele>
        <time>2011-04-12T09:50:14Z</time>
      </trkpt>
      <trkpt lat="45.67307" lon="5.83355">
        <ele>1248.89</ele>
        <time>2011-04-12T09:50:28Z</time>
      </trkpt>
      <trkpt lat="45.67304" lon="5.83355">
        <ele>1248.41</ele>
        <time>2011-04-12T09:50:32Z</time>
      </trkpt>
      <trkpt lat="45.67294" lon="5.83345">
        <ele>1250.33</ele>
        <time>2011-04-12T09:50:45Z</time>
      </trkpt>
      <trkpt lat="45.67291" lon="5.83344">
        <ele>1250.33</ele>
        <time>2011-04-12T09:50:47Z</time>
      </trkpt>
      <trkpt lat="45.67282" lon="5.83331">
        <ele>1251.29</ele>
        <time>2011-04-12T09:51:00Z</time>
      </trkpt>
      <trkpt lat="45.67278" lon="5.83322">
        <ele>1252.74</ele>
        <time>2011-04-12T09:51:11Z</time>
      </trkpt>
      <trkpt lat="45.67275" lon="5.8332">
        <ele>1253.22</ele>
        <time>2011-04-12T09:51:14Z</time>
      </trkpt>
      <trkpt lat="45.67271" lon="5.83315">
        <ele>1253.7</ele>
        <time>2011-04-12T09:51:20Z</time>
      </trkpt>
      <trkpt lat="45.67267" lon="5.83305">
        <ele>1256.1</ele>
        <time>2011-04-12T09:51:34Z</time>
      </trkpt>
      <trkpt lat="45.67268" lon="5.83304">
        <ele>1256.58</ele>
        <time>2011-04-12T09:51:36Z</time>
      </trkpt>
      <trkpt lat="45.67279" lon="5.83309">
        <ele>1257.54</ele>
        <time>2011-04-12T09:51:47Z</time>
      </trkpt>
      <trkpt lat="45.67291" lon="5.83321">
        <ele>1258.98</ele>
        <time>2011-04-12T09:52:01Z</time>
      </trkpt>
      <trkpt lat="45.67298" lon="5.83321">
        <ele>1259.94</ele>
        <time>2011-04-12T09:52:08Z</time>
      </trkpt>
      <trkpt lat="45.67299" lon="5.83322">
        <ele>1260.43</ele>
        <time>2011-04-12T09:52:14Z</time>
      </trkpt>
      <trkpt lat="45.67302" lon="5.83324">
        <ele>1260.43</ele>
        <time>2011-04-12T09:52:17Z</time>
      </trkpt>
      <trkpt lat="45.67315" lon="5.83329">
        <ele>1262.35</ele>
        <time>2011-04-12T09:52:28Z</time>
      </trkpt>
      <trkpt lat="45.6732" lon="5.83331">
        <ele>1263.31</ele>
        <time>2011-04-12T09:52:32Z</time>
      </trkpt>
      <trkpt lat="45.67326" lon="5.83331">
        <ele>1265.23</ele>
        <time>2011-04-12T09:52:43Z</time>
      </trkpt>
      <trkpt lat="45.6733" lon="5.8333">
        <ele>1266.67</ele>
        <time>2011-04-12T09:52:51Z</time>
      </trkpt>
      <trkpt lat="45.67323" lon="5.83323">
        <ele>1268.6</ele>
        <time>2011-04-12T09:53:04Z</time>
      </trkpt>
      <trkpt lat="45.67314" lon="5.83315">
        <ele>1269.56</ele>
        <time>2011-04-12T09:53:16Z</time>
      </trkpt>
      <trkpt lat="45.67311" lon="5.83314">
        <ele>1270.04</ele>
        <time>2011-04-12T09:53:19Z</time>
      </trkpt>
      <trkpt lat="45.67304" lon="5.83303">
        <ele>1271.96</ele>
        <time>2011-04-12T09:53:34Z</time>
      </trkpt>
      <trkpt lat="45.673" lon="5.83301">
        <ele>1272.44</ele>
        <time>2011-04-12T09:53:37Z</time>
      </trkpt>
      <trkpt lat="45.67289" lon="5.83293">
        <ele>1272.92</ele>
        <time>2011-04-12T09:53:50Z</time>
      </trkpt>
      <trkpt lat="45.67286" lon="5.83289">
        <ele>1273.4</ele>
        <time>2011-04-12T09:53:54Z</time>
      </trkpt>
      <trkpt lat="45.67279" lon="5.83276">
        <ele>1275.81</ele>
        <time>2011-04-12T09:54:07Z</time>
      </trkpt>
      <trkpt lat="45.67271" lon="5.83267">
        <ele>1277.25</ele>
        <time>2011-04-12T09:54:20Z</time>
      </trkpt>
      <trkpt lat="45.67262" lon="5.83257">
        <ele>1279.17</ele>
        <time>2011-04-12T09:54:31Z</time>
      </trkpt>
      <trkpt lat="45.67261" lon="5.83249">
        <ele>1281.57</ele>
        <time>2011-04-12T09:54:44Z</time>
      </trkpt>
      <trkpt lat="45.67266" lon="5.83253">
        <ele>1281.57</ele>
        <time>2011-04-12T09:54:52Z</time>
      </trkpt>
      <trkpt lat="45.6728" lon="5.83258">
        <ele>1283.5</ele>
        <time>2011-04-12T09:55:03Z</time>
      </trkpt>
      <trkpt lat="45.67284" lon="5.8326">
        <ele>1283.98</ele>
        <time>2011-04-12T09:55:16Z</time>
      </trkpt>
      <trkpt lat="45.67287" lon="5.83262">
        <ele>1285.42</ele>
        <time>2011-04-12T09:55:28Z</time>
      </trkpt>
      <trkpt lat="45.673" lon="5.83268">
        <ele>1287.82</ele>
        <time>2011-04-12T09:55:38Z</time>
      </trkpt>
      <trkpt lat="45.67317" lon="5.83274">
        <ele>1288.3</ele>
        <time>2011-04-12T09:55:47Z</time>
      </trkpt>
      <trkpt lat="45.67321" lon="5.83276">
        <ele>1288.78</ele>
        <time>2011-04-12T09:55:56Z</time>
      </trkpt>
      <trkpt lat="45.67326" lon="5.83278">
        <ele>1290.71</ele>
        <time>2011-04-12T09:56:09Z</time>
      </trkpt>
      <trkpt lat="45.67327" lon="5.83278">
        <ele>1291.67</ele>
        <time>2011-04-12T09:56:18Z</time>
      </trkpt>
      <trkpt lat="45.6734" lon="5.83281">
        <ele>1292.63</ele>
        <time>2011-04-12T09:56:26Z</time>
      </trkpt>
      <trkpt lat="45.67357" lon="5.83279">
        <ele>1293.59</ele>
        <time>2011-04-12T09:56:35Z</time>
      </trkpt>
      <trkpt lat="45.67367" lon="5.83273">
        <ele>1295.99</ele>
        <time>2011-04-12T09:56:49Z</time>
      </trkpt>
      <trkpt lat="45.67376" lon="5.83271">
        <ele>1297.92</ele>
        <time>2011-04-12T09:57:03Z</time>
      </trkpt>
      <trkpt lat="45.67379" lon="5.83271">
        <ele>1299.36</ele>
        <time>2011-04-12T09:57:11Z</time>
      </trkpt>
      <trkpt lat="45.67373" lon="5.83269">
        <ele>1300.8</ele>
        <time>2011-04-12T09:57:23Z</time>
      </trkpt>
      <trkpt lat="45.67365" lon="5.83269">
        <ele>1301.28</ele>
        <time>2011-04-12T09:57:30Z</time>
      </trkpt>
      <trkpt lat="45.67353" lon="5.83266">
        <ele>1303.2</ele>
        <time>2011-04-12T09:57:42Z</time>
      </trkpt>
      <trkpt lat="45.67343" lon="5.83257">
        <ele>1304.17</ele>
        <time>2011-04-12T09:57:55Z</time>
      </trkpt>
      <trkpt lat="45.67341" lon="5.83254">
        <ele>1304.65</ele>
        <time>2011-04-12T09:57:58Z</time>
      </trkpt>
      <trkpt lat="45.67341" lon="5.83253">
        <ele>1305.13</ele>
        <time>2011-04-12T09:58:01Z</time>
      </trkpt>
      <trkpt lat="45.67341" lon="5.83251">
        <ele>1306.09</ele>
        <time>2011-04-12T09:58:04Z</time>
      </trkpt>
      <trkpt lat="45.67346" lon="5.8325">
        <ele>1306.57</ele>
        <time>2011-04-12T09:58:08Z</time>
      </trkpt>
      <trkpt lat="45.67356" lon="5.83252">
        <ele>1308.01</ele>
        <time>2011-04-12T09:58:18Z</time>
      </trkpt>
      <trkpt lat="45.67364" lon="5.83249">
        <ele>1308.49</ele>
        <time>2011-04-12T09:58:33Z</time>
      </trkpt>
      <trkpt lat="45.67369" lon="5.83246">
        <ele>1308.49</ele>
        <time>2011-04-12T09:58:38Z</time>
      </trkpt>
      <trkpt lat="45.67375" lon="5.83247">
        <ele>1308.49</ele>
        <time>2011-04-12T09:58:49Z</time>
      </trkpt>
      <trkpt lat="45.6738" lon="5.83245">
        <ele>1309.93</ele>
        <time>2011-04-12T09:58:56Z</time>
      </trkpt>
      <trkpt lat="45.6739" lon="5.83251">
        <ele>1312.34</ele>
        <time>2011-04-12T09:59:11Z</time>
      </trkpt>
      <trkpt lat="45.67391" lon="5.83249">
        <ele>1314.26</ele>
        <time>2011-04-12T09:59:24Z</time>
      </trkpt>
      <trkpt lat="45.67394" lon="5.83246">
        <ele>1315.7</ele>
        <time>2011-04-12T09:59:40Z</time>
      </trkpt>
      <trkpt lat="45.67394" lon="5.83246">
        <ele>1316.66</ele>
        <time>2011-04-12T09:59:46Z</time>
      </trkpt>
      <trkpt lat="45.67394" lon="5.83246">
        <ele>1317.14</ele>
        <time>2011-04-12T09:59:56Z</time>
      </trkpt>
      <trkpt lat="45.67395" lon="5.83247">
        <ele>1319.07</ele>
        <time>2011-04-12T10:00:03Z</time>
      </trkpt>
      <trkpt lat="45.67403" lon="5.83255">
        <ele>1320.03</ele>
        <time>2011-04-12T10:00:15Z</time>
      </trkpt>
      <trkpt lat="45.67403" lon="5.83255">
        <ele>1322.43</ele>
        <time>2011-04-12T10:00:31Z</time>
      </trkpt>
      <trkpt lat="45.67403" lon="5.83255">
        <ele>1322.91</ele>
        <time>2011-04-12T10:00:44Z</time>
      </trkpt>
      <trkpt lat="45.67404" lon="5.83256">
        <ele>1324.35</ele>
        <time>2011-04-12T10:00:58Z</time>
      </trkpt>
      <trkpt lat="45.67404" lon="5.83256">
        <ele>1324.83</ele>
        <time>2011-04-12T10:01:04Z</time>
      </trkpt>
      <trkpt lat="45.67405" lon="5.83256">
        <ele>1326.76</ele>
        <time>2011-04-12T10:01:18Z</time>
      </trkpt>
      <trkpt lat="45.67409" lon="5.83258">
        <ele>1328.2</ele>
        <time>2011-04-12T10:01:31Z</time>
      </trkpt>
      <trkpt lat="45.67409" lon="5.83258">
        <ele>1327.72</ele>
        <time>2011-04-12T10:01:32Z</time>
      </trkpt>
      <trkpt lat="45.67411" lon="5.83253">
        <ele>1329.64</ele>
        <time>2011-04-12T10:01:45Z</time>
      </trkpt>
      <trkpt lat="45.67413" lon="5.83253">
        <ele>1331.08</ele>
        <time>2011-04-12T10:01:57Z</time>
      </trkpt>
      <trkpt lat="45.67413" lon="5.83253">
        <ele>1330.6</ele>
        <time>2011-04-12T10:02:10Z</time>
      </trkpt>
      <trkpt lat="45.67413" lon="5.83253">
        <ele>1332.52</ele>
        <time>2011-04-12T10:02:27Z</time>
      </trkpt>
      <trkpt lat="45.67419" lon="5.83253">
        <ele>1334.45</ele>
        <time>2011-04-12T10:02:39Z</time>
      </trkpt>
      <trkpt lat="45.67421" lon="5.8325">
        <ele>1335.89</ele>
        <time>2011-04-12T10:02:50Z</time>
      </trkpt>
      <trkpt lat="45.67424" lon="5.8325">
        <ele>1337.81</ele>
        <time>2011-04-12T10:03:01Z</time>
      </trkpt>
      <trkpt lat="45.67424" lon="5.8325">
        <ele>1337.81</ele>
        <time>2011-04-12T10:03:03Z</time>
      </trkpt>
      <trkpt lat="45.67427" lon="5.83258">
        <ele>1339.73</ele>
        <time>2011-04-12T10:03:17Z</time>
      </trkpt>
      <trkpt lat="45.67427" lon="5.83262">
        <ele>1340.22</ele>
        <time>2011-04-12T10:03:30Z</time>
      </trkpt>
      <trkpt lat="45.67427" lon="5.83265">
        <ele>1342.62</ele>
        <time>2011-04-12T10:03:42Z</time>
      </trkpt>
      <trkpt lat="45.67427" lon="5.83265">
        <ele>1343.1</ele>
        <time>2011-04-12T10:03:55Z</time>
      </trkpt>
      <trkpt lat="45.67428" lon="5.83263">
        <ele>1344.06</ele>
        <time>2011-04-12T10:04:10Z</time>
      </trkpt>
      <trkpt lat="45.67431" lon="5.83261">
        <ele>1346.46</ele>
        <time>2011-04-12T10:04:22Z</time>
      </trkpt>
      <trkpt lat="45.67432" lon="5.83261">
        <ele>1347.91</ele>
        <time>2011-04-12T10:04:37Z</time>
      </trkpt>
      <trkpt lat="45.67432" lon="5.83261">
        <ele>1347.43</ele>
        <time>2011-04-12T10:04:38Z</time>
      </trkpt>
      <trkpt lat="45.67435" lon="5.83258">
        <ele>1349.35</ele>
        <time>2011-04-12T10:04:50Z</time>
      </trkpt>
      <trkpt lat="45.67435" lon="5.83258">
        <ele>1350.79</ele>
        <time>2011-04-12T10:05:07Z</time>
      </trkpt>
      <trkpt lat="45.67436" lon="5.83257">
        <ele>1351.27</ele>
        <time>2011-04-12T10:05:23Z</time>
      </trkpt>
      <trkpt lat="45.67436" lon="5.83257">
        <ele>1352.71</ele>
        <time>2011-04-12T10:05:39Z</time>
      </trkpt>
      <trkpt lat="45.67436" lon="5.83257">
        <ele>1353.19</ele>
        <time>2011-04-12T10:05:59Z</time>
      </trkpt>
      <trkpt lat="45.67437" lon="5.83256">
        <ele>1354.63</ele>
        <time>2011-04-12T10:06:15Z</time>
      </trkpt>
      <trkpt lat="45.67437" lon="5.83256">
        <ele>1355.12</ele>
        <time>2011-04-12T10:06:32Z</time>
      </trkpt>
      <trkpt lat="45.67437" lon="5.83256">
        <ele>1356.08</ele>
        <time>2011-04-12T10:06:49Z</time>
      </trkpt>
      <trkpt lat="45.67437" lon="5.83256">
        <ele>1356.56</ele>
        <time>2011-04-12T10:07:04Z</time>
      </trkpt>
      <trkpt lat="45.67437" lon="5.83256">
        <ele>1356.56</ele>
        <time>2011-04-12T10:07:27Z</time>
      </trkpt>
      <trkpt lat="45.67437" lon="5.83256">
        <ele>1356.08</ele>
        <time>2011-04-12T10:07:48Z</time>
      </trkpt>
      <trkpt lat="45.67437" lon="5.83256">
        <ele>1356.08</ele>
        <time>2011-04-12T10:07:50Z</time>
      </trkpt>
      <trkpt lat="45.67436" lon="5.83255">
        <ele>1355.6</ele>
        <time>2011-04-12T10:08:14Z</time>
      </trkpt>
      <trkpt lat="45.67436" lon="5.83254">
        <ele>1355.6</ele>
        <time>2011-04-12T10:08:41Z</time>
      </trkpt>
      <trkpt lat="45.67436" lon="5.83254">
        <ele>1355.12</ele>
        <time>2011-04-12T10:08:59Z</time>
      </trkpt>
      <trkpt lat="45.67437" lon="5.83254">
        <ele>1353.67</ele>
        <time>2011-04-12T10:09:20Z</time>
      </trkpt>
      <trkpt lat="45.67437" lon="5.83254">
        <ele>1353.19</ele>
        <time>2011-04-12T10:09:42Z</time>
      </trkpt>
      <trkpt lat="45.67437" lon="5.83254">
        <ele>1353.19</ele>
        <time>2011-04-12T10:10:01Z</time>
      </trkpt>
      <trkpt lat="45.67437" lon="5.83254">
        <ele>1352.23</ele>
        <time>2011-04-12T10:10:19Z</time>
      </trkpt>
      <trkpt lat="45.67437" lon="5.83255">
        <ele>1351.75</ele>
        <time>2011-04-12T10:10:38Z</time>
      </trkpt>
      <trkpt lat="45.67438" lon="5.83258">
        <ele>1350.79</ele>
        <time>2011-04-12T10:10:58Z</time>
      </trkpt>
      <trkpt lat="45.67438" lon="5.83258">
        <ele>1349.35</ele>
        <time>2011-04-12T10:11:19Z</time>
      </trkpt>
      <trkpt lat="45.67441" lon="5.83256">
        <ele>1348.39</ele>
        <time>2011-04-12T10:11:36Z</time>
      </trkpt>
      <trkpt lat="45.67441" lon="5.83256">
        <ele>1347.91</ele>
        <time>2011-04-12T10:11:57Z</time>
      </trkpt>
      <trkpt lat="45.67441" lon="5.83255">
        <ele>1347.91</ele>
        <time>2011-04-12T10:12:15Z</time>
      </trkpt>
      <trkpt lat="45.67441" lon="5.83255">
        <ele>1347.91</ele>
        <time>2011-04-12T10:12:35Z</time>
      </trkpt>
      <trkpt lat="45.67441" lon="5.83256">
        <ele>1346.46</ele>
        <time>2011-04-12T10:12:53Z</time>
      </trkpt>
      <trkpt lat="45.67441" lon="5.83256">
        <ele>1345.98</ele>
        <time>2011-04-12T10:13:09Z</time>
      </trkpt>
      <trkpt lat="45.67438" lon="5.83255">
        <ele>1345.5</ele>
        <time>2011-04-12T10:13:25Z</time>
      </trkpt>
      <trkpt lat="45.67438" lon="5.83255">
        <ele>1345.5</ele>
        <time>2011-04-12T10:13:40Z</time>
      </trkpt>
      <trkpt lat="45.67438" lon="5.83255">
        <ele>1345.02</ele>
        <time>2011-04-12T10:13:45Z</time>
      </trkpt>
      <trkpt lat="45.67437" lon="5.83258">
        <ele>1344.06</ele>
        <time>2011-04-12T10:14:02Z</time>
      </trkpt>
      <trkpt lat="45.67437" lon="5.83258">
        <ele>1343.1</ele>
        <time>2011-04-12T10:14:20Z</time>
      </trkpt>
      <trkpt lat="45.67437" lon="5.83258">
        <ele>1342.14</ele>
        <time>2011-04-12T10:14:37Z</time>
      </trkpt>
      <trkpt lat="45.67437" lon="5.83258">
        <ele>1342.14</ele>
        <time>2011-04-12T10:14:52Z</time>
      </trkpt>
      <trkpt lat="45.67436" lon="5.83257">
        <ele>1342.14</ele>
        <time>2011-04-12T10:14:57Z</time>
      </trkpt>
      <trkpt lat="45.67431" lon="5.83259">
        <ele>1340.22</ele>
        <time>2011-04-12T10:15:09Z</time>
      </trkpt>
      <trkpt lat="45.6743" lon="5.83259">
        <ele>1339.73</ele>
        <time>2011-04-12T10:15:13Z</time>
      </trkpt>
      <trkpt lat="45.67427" lon="5.83259">
        <ele>1338.77</ele>
        <time>2011-04-12T10:15:26Z</time>
      </trkpt>
      <trkpt lat="45.67426" lon="5.83258">
        <ele>1337.81</ele>
        <time>2011-04-12T10:15:29Z</time>
      </trkpt>
      <trkpt lat="45.67422" lon="5.83253">
        <ele>1335.41</ele>
        <time>2011-04-12T10:15:44Z</time>
      </trkpt>
      <trkpt lat="45.67421" lon="5.83255">
        <ele>1334.45</ele>
        <time>2011-04-12T10:15:56Z</time>
      </trkpt>
      <trkpt lat="45.6742" lon="5.83257">
        <ele>1333.01</ele>
        <time>2011-04-12T10:16:06Z</time>
      </trkpt>
      <trkpt lat="45.67419" lon="5.83258">
        <ele>1331.08</ele>
        <time>2011-04-12T10:16:20Z</time>
      </trkpt>
      <trkpt lat="45.67419" lon="5.83258">
        <ele>1331.08</ele>
        <time>2011-04-12T10:16:34Z</time>
      </trkpt>
      <trkpt lat="45.67418" lon="5.8326">
        <ele>1330.6</ele>
        <time>2011-04-12T10:16:47Z</time>
      </trkpt>
      <trkpt lat="45.67417" lon="5.83262">
        <ele>1329.64</ele>
        <time>2011-04-12T10:16:58Z</time>
      </trkpt>
      <trkpt lat="45.67415" lon="5.83262">
        <ele>1328.2</ele>
        <time>2011-04-12T10:17:09Z</time>
      </trkpt>
      <trkpt lat="45.67415" lon="5.83262">
        <ele>1327.24</ele>
        <time>2011-04-12T10:17:20Z</time>
      </trkpt>
      <trkpt lat="45.67414" lon="5.83262">
        <ele>1326.76</ele>
        <time>2011-04-12T10:17:31Z</time>
      </trkpt>
      <trkpt lat="45.67414" lon="5.83262">
        <ele>1325.8</ele>
        <time>2011-04-12T10:17:46Z</time>
      </trkpt>
      <trkpt lat="45.67414" lon="5.83262">
        <ele>1324.83</ele>
        <time>2011-04-12T10:18:00Z</time>
      </trkpt>
      <trkpt lat="45.67413" lon="5.83262">
        <ele>1323.39</ele>
        <time>2011-04-12T10:18:14Z</time>
      </trkpt>
      <trkpt lat="45.67413" lon="5.83262">
        <ele>1322.43</ele>
        <time>2011-04-12T10:18:27Z</time>
      </trkpt>
      <trkpt lat="45.67413" lon="5.83262">
        <ele>1320.99</ele>
        <time>2011-04-12T10:18:37Z</time>
      </trkpt>
      <trkpt lat="45.67413" lon="5.83262">
        <ele>1320.03</ele>
        <time>2011-04-12T10:18:48Z</time>
      </trkpt>
      <trkpt lat="45.67406" lon="5.83264">
        <ele>1318.1</ele>
        <time>2011-04-12T10:18:59Z</time>
      </trkpt>
      <trkpt lat="45.67403" lon="5.83268">
        <ele>1316.66</ele>
        <time>2011-04-12T10:19:11Z</time>
      </trkpt>
      <trkpt lat="45.67403" lon="5.83269">
        <ele>1315.7</ele>
        <time>2011-04-12T10:19:24Z</time>
      </trkpt>
      <trkpt lat="45.67403" lon="5.83269">
        <ele>1314.74</ele>
        <time>2011-04-12T10:19:41Z</time>
      </trkpt>
      <trkpt lat="45.67403" lon="5.83269">
        <ele>1313.3</ele>
        <time>2011-04-12T10:19:57Z</time>
      </trkpt>
      <trkpt lat="45.67403" lon="5.83269">
        <ele>1313.3</ele>
        <time>2011-04-12T10:20:14Z</time>
      </trkpt>
      <trkpt lat="45.67403" lon="5.83269">
        <ele>1311.38</ele>
        <time>2011-04-12T10:20:28Z</time>
      </trkpt>
      <trkpt lat="45.67402" lon="5.8327">
        <ele>1311.38</ele>
        <time>2011-04-12T10:20:42Z</time>
      </trkpt>
      <trkpt lat="45.67402" lon="5.83272">
        <ele>1310.41</ele>
        <time>2011-04-12T10:20:55Z</time>
      </trkpt>
      <trkpt lat="45.67402" lon="5.83273">
        <ele>1310.9</ele>
        <time>2011-04-12T10:21:08Z</time>
      </trkpt>
      <trkpt lat="45.67401" lon="5.83276">
        <ele>1311.86</ele>
        <time>2011-04-12T10:21:16Z</time>
      </trkpt>
      <trkpt lat="45.67409" lon="5.83293">
        <ele>1314.74</ele>
        <time>2011-04-12T10:21:29Z</time>
      </trkpt>
      <trkpt lat="45.67413" lon="5.83304">
        <ele>1315.7</ele>
        <time>2011-04-12T10:21:39Z</time>
      </trkpt>
      <trkpt lat="45.67417" lon="5.83309">
        <ele>1317.62</ele>
        <time>2011-04-12T10:21:47Z</time>
      </trkpt>
      <trkpt lat="45.67422" lon="5.8332">
        <ele>1320.51</ele>
        <time>2011-04-12T10:22:01Z</time>
      </trkpt>
      <trkpt lat="45.67432" lon="5.8333">
        <ele>1320.03</ele>
        <time>2011-04-12T10:22:15Z</time>
      </trkpt>
      <trkpt lat="45.67439" lon="5.83333">
        <ele>1321.95</ele>
        <time>2011-04-12T10:22:26Z</time>
      </trkpt>
      <trkpt lat="45.67446" lon="5.83333">
        <ele>1325.31</ele>
        <time>2011-04-12T10:22:41Z</time>
      </trkpt>
      <trkpt lat="45.67449" lon="5.83334">
        <ele>1327.24</ele>
        <time>2011-04-12T10:22:54Z</time>
      </trkpt>
      <trkpt lat="45.67455" lon="5.83335">
        <ele>1329.64</ele>
        <time>2011-04-12T10:23:08Z</time>
      </trkpt>
      <trkpt lat="45.67456" lon="5.83336">
        <ele>1329.64</ele>
        <time>2011-04-12T10:23:09Z</time>
      </trkpt>
      <trkpt lat="45.67459" lon="5.83338">
        <ele>1330.12</ele>
        <time>2011-04-12T10:23:12Z</time>
      </trkpt>
      <trkpt lat="45.67466" lon="5.83347">
        <ele>1333.01</ele>
        <time>2011-04-12T10:23:26Z</time>
      </trkpt>
      <trkpt lat="45.67469" lon="5.83349">
        <ele>1335.41</ele>
        <time>2011-04-12T10:23:37Z</time>
      </trkpt>
      <trkpt lat="45.67472" lon="5.8335">
        <ele>1335.89</ele>
        <time>2011-04-12T10:23:49Z</time>
      </trkpt>
      <trkpt lat="45.67473" lon="5.83352">
        <ele>1336.37</ele>
        <time>2011-04-12T10:23:55Z</time>
      </trkpt>
      <trkpt lat="45.67477" lon="5.83353">
        <ele>1339.73</ele>
        <time>2011-04-12T10:24:09Z</time>
      </trkpt>
      <trkpt lat="45.67477" lon="5.83353">
        <ele>1341.18</ele>
        <time>2011-04-12T10:24:26Z</time>
      </trkpt>
      <trkpt lat="45.67479" lon="5.8335">
        <ele>1344.06</ele>
        <time>2011-04-12T10:24:41Z</time>
      </trkpt>
      <trkpt lat="45.67481" lon="5.83351">
        <ele>1346.46</ele>
        <time>2011-04-12T10:24:55Z</time>
      </trkpt>
      <trkpt lat="45.67483" lon="5.83353">
        <ele>1348.87</ele>
        <time>2011-04-12T10:25:11Z</time>
      </trkpt>
      <trkpt lat="45.67484" lon="5.83353">
        <ele>1350.79</ele>
        <time>2011-04-12T10:25:24Z</time>
      </trkpt>
      <trkpt lat="45.67484" lon="5.83353">
        <ele>1351.75</ele>
        <time>2011-04-12T10:25:30Z</time>
      </trkpt>
      <trkpt lat="45.67488" lon="5.83352">
        <ele>1354.15</ele>
        <time>2011-04-12T10:25:46Z</time>
      </trkpt>
      <trkpt lat="45.6749" lon="5.83352">
        <ele>1357.04</ele>
        <time>2011-04-12T10:26:01Z</time>
      </trkpt>
      <trkpt lat="45.67491" lon="5.83352">
        <ele>1357.52</ele>
        <time>2011-04-12T10:26:15Z</time>
      </trkpt>
      <trkpt lat="45.67494" lon="5.8335">
        <ele>1358.96</ele>
        <time>2011-04-12T10:26:26Z</time>
      </trkpt>
      <trkpt lat="45.67495" lon="5.83346">
        <ele>1360.4</ele>
        <time>2011-04-12T10:26:38Z</time>
      </trkpt>
      <trkpt lat="45.67495" lon="5.83345">
        <ele>1361.36</ele>
        <time>2011-04-12T10:26:42Z</time>
      </trkpt>
      <trkpt lat="45.67492" lon="5.83336">
        <ele>1363.77</ele>
        <time>2011-04-12T10:26:54Z</time>
      </trkpt>
      <trkpt lat="45.67487" lon="5.83327">
        <ele>1364.25</ele>
        <time>2011-04-12T10:27:06Z</time>
      </trkpt>
      <trkpt lat="45.67488" lon="5.83323">
        <ele>1368.09</ele>
        <time>2011-04-12T10:27:18Z</time>
      </trkpt>
      <trkpt lat="45.67487" lon="5.8332">
        <ele>1369.54</ele>
        <time>2011-04-12T10:27:29Z</time>
      </trkpt>
      <trkpt lat="45.67486" lon="5.83315">
        <ele>1370.98</ele>
        <time>2011-04-12T10:27:41Z</time>
      </trkpt>
      <trkpt lat="45.67487" lon="5.83311">
        <ele>1371.46</ele>
        <time>2011-04-12T10:27:55Z</time>
      </trkpt>
      <trkpt lat="45.67484" lon="5.83309">
        <ele>1372.9</ele>
        <time>2011-04-12T10:27:58Z</time>
      </trkpt>
      <trkpt lat="45.67487" lon="5.83309">
        <ele>1375.78</ele>
        <time>2011-04-12T10:28:11Z</time>
      </trkpt>
      <trkpt lat="45.67488" lon="5.83309">
        <ele>1379.15</ele>
        <time>2011-04-12T10:28:23Z</time>
      </trkpt>
      <trkpt lat="45.67493" lon="5.83311">
        <ele>1380.59</ele>
        <time>2011-04-12T10:28:35Z</time>
      </trkpt>
      <trkpt lat="45.67494" lon="5.83315">
        <ele>1382.99</ele>
        <time>2011-04-12T10:28:48Z</time>
      </trkpt>
      <trkpt lat="45.67495" lon="5.83318">
        <ele>1386.36</ele>
        <time>2011-04-12T10:29:02Z</time>
      </trkpt>
      <trkpt lat="45.67495" lon="5.83318">
        <ele>1387.32</ele>
        <time>2011-04-12T10:29:04Z</time>
      </trkpt>
      <trkpt lat="45.675" lon="5.83325">
        <ele>1387.8</ele>
        <time>2011-04-12T10:29:15Z</time>
      </trkpt>
      <trkpt lat="45.67502" lon="5.83326">
        <ele>1386.84</ele>
        <time>2011-04-12T10:29:27Z</time>
      </trkpt>
      <trkpt lat="45.675" lon="5.83327">
        <ele>1385.4</ele>
        <time>2011-04-12T10:29:38Z</time>
      </trkpt>
      <trkpt lat="45.675" lon="5.83327">
        <ele>1384.92</ele>
        <time>2011-04-12T10:29:58Z</time>
      </trkpt>
      <trkpt lat="45.675" lon="5.83327">
        <ele>1385.4</ele>
        <time>2011-04-12T10:30:17Z</time>
      </trkpt>
      <trkpt lat="45.675" lon="5.83327">
        <ele>1385.4</ele>
        <time>2011-04-12T10:30:42Z</time>
      </trkpt>
      <trkpt lat="45.675" lon="5.83327">
        <ele>1385.4</ele>
        <time>2011-04-12T10:31:06Z</time>
      </trkpt>
      <trkpt lat="45.675" lon="5.83327">
        <ele>1385.4</ele>
        <time>2011-04-12T10:31:29Z</time>
      </trkpt>
      <trkpt lat="45.675" lon="5.83327">
        <ele>1385.88</ele>
        <time>2011-04-12T10:31:52Z</time>
      </trkpt>
      <trkpt lat="45.675" lon="5.83327">
        <ele>1385.4</ele>
        <time>2011-04-12T10:32:16Z</time>
      </trkpt>
      <trkpt lat="45.675" lon="5.83327">
        <ele>1384.92</ele>
        <time>2011-04-12T10:32:43Z</time>
      </trkpt>
      <trkpt lat="45.675" lon="5.83327">
        <ele>1385.88</ele>
        <time>2011-04-12T10:33:10Z</time>
      </trkpt>
      <trkpt lat="45.675" lon="5.83327">
        <ele>1385.88</ele>
        <time>2011-04-12T10:33:37Z</time>
      </trkpt>
      <trkpt lat="45.675" lon="5.83327">
        <ele>1386.36</ele>
        <time>2011-04-12T10:33:53Z</time>
      </trkpt>
      <trkpt lat="45.67501" lon="5.83329">
        <ele>1383.96</ele>
        <time>2011-04-12T10:33:58Z</time>
      </trkpt>
      <trkpt lat="45.67501" lon="5.83329">
        <ele>1385.4</ele>
        <time>2011-04-12T10:34:02Z</time>
      </trkpt>
      <trkpt lat="45.67501" lon="5.83329">
        <ele>1386.84</ele>
        <time>2011-04-12T10:34:07Z</time>
      </trkpt>
      <trkpt lat="45.67501" lon="5.83329">
        <ele>1386.84</ele>
        <time>2011-04-12T10:34:16Z</time>
      </trkpt>
      <trkpt lat="45.675" lon="5.83329">
        <ele>1386.36</ele>
        <time>2011-04-12T10:34:30Z</time>
      </trkpt>
      <trkpt lat="45.675" lon="5.83329">
        <ele>1384.92</ele>
        <time>2011-04-12T10:34:45Z</time>
      </trkpt>
      <trkpt lat="45.675" lon="5.83329">
        <ele>1386.36</ele>
        <time>2011-04-12T10:35:01Z</time>
      </trkpt>
      <trkpt lat="45.675" lon="5.83329">
        <ele>1387.32</ele>
        <time>2011-04-12T10:35:08Z</time>
      </trkpt>
      <trkpt lat="45.675" lon="5.83329">
        <ele>1387.32</ele>
        <time>2011-04-12T10:35:33Z</time>
      </trkpt>
      <trkpt lat="45.675" lon="5.83329">
        <ele>1386.36</ele>
        <time>2011-04-12T10:35:49Z</time>
      </trkpt>
      <trkpt lat="45.675" lon="5.83329">
        <ele>1385.88</ele>
        <time>2011-04-12T10:36:03Z</time>
      </trkpt>
      <trkpt lat="45.675" lon="5.83329">
        <ele>1386.84</ele>
        <time>2011-04-12T10:36:25Z</time>
      </trkpt>
      <trkpt lat="45.675" lon="5.8333">
        <ele>1386.36</ele>
        <time>2011-04-12T10:36:36Z</time>
      </trkpt>
      <trkpt lat="45.675" lon="5.8333">
        <ele>1386.36</ele>
        <time>2011-04-12T10:36:53Z</time>
      </trkpt>
      <trkpt lat="45.675" lon="5.8333">
        <ele>1386.36</ele>
        <time>2011-04-12T10:37:20Z</time>
      </trkpt>
      <trkpt lat="45.675" lon="5.8333">
        <ele>1387.32</ele>
        <time>2011-04-12T10:37:44Z</time>
      </trkpt>
      <trkpt lat="45.675" lon="5.8333">
        <ele>1386.36</ele>
        <time>2011-04-12T10:38:06Z</time>
      </trkpt>
      <trkpt lat="45.675" lon="5.8333">
        <ele>1386.36</ele>
        <time>2011-04-12T10:38:25Z</time>
      </trkpt>
      <trkpt lat="45.675" lon="5.8333">
        <ele>1386.36</ele>
        <time>2011-04-12T10:38:50Z</time>
      </trkpt>
      <trkpt lat="45.675" lon="5.8333">
        <ele>1386.84</ele>
        <time>2011-04-12T10:39:16Z</time>
      </trkpt>
      <trkpt lat="45.675" lon="5.8333">
        <ele>1387.32</ele>
        <time>2011-04-12T10:39:49Z</time>
      </trkpt>
      <trkpt lat="45.675" lon="5.8333">
        <ele>1386.84</ele>
        <time>2011-04-12T10:40:14Z</time>
      </trkpt>
      <trkpt lat="45.675" lon="5.8333">
        <ele>1386.84</ele>
        <time>2011-04-12T10:40:47Z</time>
      </trkpt>
      <trkpt lat="45.675" lon="5.8333">
        <ele>1387.32</ele>
        <time>2011-04-12T10:41:14Z</time>
      </trkpt>
      <trkpt lat="45.675" lon="5.8333">
        <ele>1386.84</ele>
        <time>2011-04-12T10:41:41Z</time>
      </trkpt>
      <trkpt lat="45.675" lon="5.8333">
        <ele>1387.32</ele>
        <time>2011-04-12T10:42:07Z</time>
      </trkpt>
      <trkpt lat="45.675" lon="5.8333">
        <ele>1386.84</ele>
        <time>2011-04-12T10:42:34Z</time>
      </trkpt>
      <trkpt lat="45.675" lon="5.83329">
        <ele>1386.84</ele>
        <time>2011-04-12T10:43:03Z</time>
      </trkpt>
      <trkpt lat="45.67499" lon="5.83329">
        <ele>1387.32</ele>
        <time>2011-04-12T10:43:36Z</time>
      </trkpt>
      <trkpt lat="45.67499" lon="5.83329">
        <ele>1386.84</ele>
        <time>2011-04-12T10:44:08Z</time>
      </trkpt>
      <trkpt lat="45.67499" lon="5.83329">
        <ele>1386.84</ele>
        <time>2011-04-12T10:44:33Z</time>
      </trkpt>
      <trkpt lat="45.67499" lon="5.83329">
        <ele>1387.32</ele>
        <time>2011-04-12T10:45:03Z</time>
      </trkpt>
      <trkpt lat="45.67499" lon="5.83329">
        <ele>1386.84</ele>
        <time>2011-04-12T10:45:38Z</time>
      </trkpt>
      <trkpt lat="45.67499" lon="5.83329">
        <ele>1386.84</ele>
        <time>2011-04-12T10:46:13Z</time>
      </trkpt>
      <trkpt lat="45.67499" lon="5.83329">
        <ele>1387.32</ele>
        <time>2011-04-12T10:46:45Z</time>
      </trkpt>
      <trkpt lat="45.67499" lon="5.83329">
        <ele>1386.36</ele>
        <time>2011-04-12T10:47:20Z</time>
      </trkpt>
      <trkpt lat="45.67499" lon="5.83329">
        <ele>1386.36</ele>
        <time>2011-04-12T10:47:49Z</time>
      </trkpt>
      <trkpt lat="45.67499" lon="5.83328">
        <ele>1386.84</ele>
        <time>2011-04-12T10:48:21Z</time>
      </trkpt>
      <trkpt lat="45.67499" lon="5.83329">
        <ele>1386.84</ele>
        <time>2011-04-12T10:48:53Z</time>
      </trkpt>
      <trkpt lat="45.67499" lon="5.83329">
        <ele>1386.84</ele>
        <time>2011-04-12T10:49:24Z</time>
      </trkpt>
      <trkpt lat="45.67499" lon="5.83329">
        <ele>1386.84</ele>
        <time>2011-04-12T10:49:47Z</time>
      </trkpt>
      <trkpt lat="45.67499" lon="5.83329">
        <ele>1385.88</ele>
        <time>2011-04-12T10:50:19Z</time>
      </trkpt>
      <trkpt lat="45.67499" lon="5.83328">
        <ele>1386.36</ele>
        <time>2011-04-12T10:50:54Z</time>
      </trkpt>
      <trkpt lat="45.67499" lon="5.83329">
        <ele>1387.32</ele>
        <time>2011-04-12T10:51:31Z</time>
      </trkpt>
      <trkpt lat="45.67499" lon="5.83329">
        <ele>1386.84</ele>
        <time>2011-04-12T10:52:01Z</time>
      </trkpt>
      <trkpt lat="45.67499" lon="5.83329">
        <ele>1387.32</ele>
        <time>2011-04-12T10:52:32Z</time>
      </trkpt>
      <trkpt lat="45.67499" lon="5.83329">
        <ele>1387.32</ele>
        <time>2011-04-12T10:53:02Z</time>
      </trkpt>
      <trkpt lat="45.67498" lon="5.83329">
        <ele>1387.32</ele>
        <time>2011-04-12T10:53:29Z</time>
      </trkpt>
      <trkpt lat="45.67498" lon="5.83329">
        <ele>1387.8</ele>
        <time>2011-04-12T10:53:57Z</time>
      </trkpt>
      <trkpt lat="45.67498" lon="5.83329">
        <ele>1387.8</ele>
        <time>2011-04-12T10:54:24Z</time>
      </trkpt>
      <trkpt lat="45.67498" lon="5.83329">
        <ele>1387.8</ele>
        <time>2011-04-12T10:54:48Z</time>
      </trkpt>
      <trkpt lat="45.67498" lon="5.83329">
        <ele>1388.28</ele>
        <time>2011-04-12T10:55:16Z</time>
      </trkpt>
      <trkpt lat="45.67498" lon="5.83328">
        <ele>1388.28</ele>
        <time>2011-04-12T10:55:43Z</time>
      </trkpt>
      <trkpt lat="45.67498" lon="5.83328">
        <ele>1389.24</ele>
        <time>2011-04-12T10:56:11Z</time>
      </trkpt>
      <trkpt lat="45.67498" lon="5.83328">
        <ele>1390.68</ele>
        <time>2011-04-12T10:56:24Z</time>
      </trkpt>
      <trkpt lat="45.67498" lon="5.83328">
        <ele>1389.72</ele>
        <time>2011-04-12T10:56:52Z</time>
      </trkpt>
      <trkpt lat="45.67498" lon="5.83328">
        <ele>1388.76</ele>
        <time>2011-04-12T10:57:17Z</time>
      </trkpt>
      <trkpt lat="45.67498" lon="5.83328">
        <ele>1388.28</ele>
        <time>2011-04-12T10:57:45Z</time>
      </trkpt>
      <trkpt lat="45.67498" lon="5.83328">
        <ele>1388.76</ele>
        <time>2011-04-12T10:58:14Z</time>
      </trkpt>
      <trkpt lat="45.67498" lon="5.83328">
        <ele>1388.76</ele>
        <time>2011-04-12T10:58:43Z</time>
      </trkpt>
      <trkpt lat="45.67498" lon="5.83328">
        <ele>1387.8</ele>
        <time>2011-04-12T10:59:09Z</time>
      </trkpt>
      <trkpt lat="45.67498" lon="5.83328">
        <ele>1387.32</ele>
        <time>2011-04-12T10:59:34Z</time>
      </trkpt>
      <trkpt lat="45.67498" lon="5.83328">
        <ele>1387.8</ele>
        <time>2011-04-12T10:59:57Z</time>
      </trkpt>
      <trkpt lat="45.67498" lon="5.83328">
        <ele>1387.8</ele>
        <time>2011-04-12T11:00:23Z</time>
      </trkpt>
      <trkpt lat="45.67498" lon="5.83328">
        <ele>1387.8</ele>
        <time>2011-04-12T11:00:50Z</time>
      </trkpt>
      <trkpt lat="45.67498" lon="5.83328">
        <ele>1387.32</ele>
        <time>2011-04-12T11:01:13Z</time>
      </trkpt>
      <trkpt lat="45.67498" lon="5.83328">
        <ele>1387.8</ele>
        <time>2011-04-12T11:01:39Z</time>
      </trkpt>
      <trkpt lat="45.67498" lon="5.83328">
        <ele>1387.8</ele>
        <time>2011-04-12T11:02:04Z</time>
      </trkpt>
      <trkpt lat="45.67498" lon="5.83328">
        <ele>1388.76</ele>
        <time>2011-04-12T11:02:31Z</time>
      </trkpt>
      <trkpt lat="45.67498" lon="5.83328">
        <ele>1388.76</ele>
        <time>2011-04-12T11:02:56Z</time>
      </trkpt>
      <trkpt lat="45.67498" lon="5.83328">
        <ele>1388.28</ele>
        <time>2011-04-12T11:03:20Z</time>
      </trkpt>
      <trkpt lat="45.67498" lon="5.83328">
        <ele>1389.24</ele>
        <time>2011-04-12T11:03:43Z</time>
      </trkpt>
      <trkpt lat="45.67498" lon="5.83328">
        <ele>1389.24</ele>
        <time>2011-04-12T11:04:08Z</time>
      </trkpt>
      <trkpt lat="45.67498" lon="5.83328">
        <ele>1388.76</ele>
        <time>2011-04-12T11:04:28Z</time>
      </trkpt>
      <trkpt lat="45.67499" lon="5.83328">
        <ele>1388.76</ele>
        <time>2011-04-12T11:04:55Z</time>
      </trkpt>
      <trkpt lat="45.67499" lon="5.83328">
        <ele>1390.68</ele>
        <time>2011-04-12T11:05:08Z</time>
      </trkpt>
      <trkpt lat="45.67499" lon="5.83328">
        <ele>1387.8</ele>
        <time>2011-04-12T11:05:21Z</time>
      </trkpt>
      <trkpt lat="45.67499" lon="5.83328">
        <ele>1392.61</ele>
        <time>2011-04-12T11:05:22Z</time>
      </trkpt>
      <trkpt lat="45.67499" lon="5.83328">
        <ele>1390.2</ele>
        <time>2011-04-12T11:05:36Z</time>
      </trkpt>
      <trkpt lat="45.675" lon="5.83328">
        <ele>1390.2</ele>
        <time>2011-04-12T11:05:47Z</time>
      </trkpt>
      <trkpt lat="45.675" lon="5.83328">
        <ele>1389.24</ele>
        <time>2011-04-12T11:05:59Z</time>
      </trkpt>
      <trkpt lat="45.675" lon="5.83328">
        <ele>1388.28</ele>
        <time>2011-04-12T11:06:24Z</time>
      </trkpt>
      <trkpt lat="45.675" lon="5.83328">
        <ele>1389.24</ele>
        <time>2011-04-12T11:06:50Z</time>
      </trkpt>
      <trkpt lat="45.675" lon="5.83328">
        <ele>1390.68</ele>
        <time>2011-04-12T11:07:11Z</time>
      </trkpt>
      <trkpt lat="45.675" lon="5.83328">
        <ele>1390.68</ele>
        <time>2011-04-12T11:07:30Z</time>
      </trkpt>
      <trkpt lat="45.675" lon="5.83328">
        <ele>1390.2</ele>
        <time>2011-04-12T11:07:46Z</time>
      </trkpt>
      <trkpt lat="45.675" lon="5.83328">
        <ele>1394.05</ele>
        <time>2011-04-12T11:07:50Z</time>
      </trkpt>
      <trkpt lat="45.675" lon="5.83328">
        <ele>1390.2</ele>
        <time>2011-04-12T11:07:52Z</time>
      </trkpt>
      <trkpt lat="45.675" lon="5.83328">
        <ele>1390.2</ele>
        <time>2011-04-12T11:08:07Z</time>
      </trkpt>
      <trkpt lat="45.675" lon="5.83328">
        <ele>1390.2</ele>
        <time>2011-04-12T11:08:24Z</time>
      </trkpt>
      <trkpt lat="45.675" lon="5.83325">
        <ele>1390.68</ele>
        <time>2011-04-12T11:08:44Z</time>
      </trkpt>
      <trkpt lat="45.67497" lon="5.83323">
        <ele>1388.76</ele>
        <time>2011-04-12T11:08:56Z</time>
      </trkpt>
      <trkpt lat="45.67497" lon="5.83323">
        <ele>1387.8</ele>
        <time>2011-04-12T11:09:02Z</time>
      </trkpt>
      <trkpt lat="45.67497" lon="5.83323">
        <ele>1387.32</ele>
        <time>2011-04-12T11:09:16Z</time>
      </trkpt>
      <trkpt lat="45.67497" lon="5.83323">
        <ele>1386.36</ele>
        <time>2011-04-12T11:09:32Z</time>
      </trkpt>
      <trkpt lat="45.67496" lon="5.83321">
        <ele>1384.44</ele>
        <time>2011-04-12T11:09:48Z</time>
      </trkpt>
      <trkpt lat="45.67493" lon="5.83319">
        <ele>1382.51</ele>
        <time>2011-04-12T11:09:54Z</time>
      </trkpt>
      <trkpt lat="45.6749" lon="5.83316">
        <ele>1381.55</ele>
        <time>2011-04-12T11:10:09Z</time>
      </trkpt>
      <trkpt lat="45.67489" lon="5.83316">
        <ele>1379.63</ele>
        <time>2011-04-12T11:10:16Z</time>
      </trkpt>
      <trkpt lat="45.67489" lon="5.83316">
        <ele>1377.71</ele>
        <time>2011-04-12T11:10:32Z</time>
      </trkpt>
      <trkpt lat="45.67489" lon="5.83319">
        <ele>1375.3</ele>
        <time>2011-04-12T11:10:48Z</time>
      </trkpt>
      <trkpt lat="45.67486" lon="5.8333">
        <ele>1372.42</ele>
        <time>2011-04-12T11:11:05Z</time>
      </trkpt>
      <trkpt lat="45.67485" lon="5.83333">
        <ele>1371.46</ele>
        <time>2011-04-12T11:11:10Z</time>
      </trkpt>
      <trkpt lat="45.67485" lon="5.83342">
        <ele>1369.05</ele>
        <time>2011-04-12T11:11:19Z</time>
      </trkpt>
      <trkpt lat="45.6749" lon="5.83356">
        <ele>1367.13</ele>
        <time>2011-04-12T11:11:36Z</time>
      </trkpt>
      <trkpt lat="45.67492" lon="5.83356">
        <ele>1365.21</ele>
        <time>2011-04-12T11:11:53Z</time>
      </trkpt>
      <trkpt lat="45.67492" lon="5.83356">
        <ele>1363.77</ele>
        <time>2011-04-12T11:12:10Z</time>
      </trkpt>
      <trkpt lat="45.67492" lon="5.83356">
        <ele>1361.84</ele>
        <time>2011-04-12T11:12:28Z</time>
      </trkpt>
      <trkpt lat="45.67492" lon="5.83357">
        <ele>1361.36</ele>
        <time>2011-04-12T11:12:44Z</time>
      </trkpt>
      <trkpt lat="45.67492" lon="5.83357">
        <ele>1359.92</ele>
        <time>2011-04-12T11:13:04Z</time>
      </trkpt>
      <trkpt lat="45.67492" lon="5.83357">
        <ele>1358.48</ele>
        <time>2011-04-12T11:13:23Z</time>
      </trkpt>
      <trkpt lat="45.67492" lon="5.8336">
        <ele>1357.04</ele>
        <time>2011-04-12T11:13:40Z</time>
      </trkpt>
      <trkpt lat="45.67492" lon="5.8336">
        <ele>1355.12</ele>
        <time>2011-04-12T11:13:58Z</time>
      </trkpt>
      <trkpt lat="45.67492" lon="5.8336">
        <ele>1354.63</ele>
        <time>2011-04-12T11:14:16Z</time>
      </trkpt>
      <trkpt lat="45.6749" lon="5.83359">
        <ele>1354.15</ele>
        <time>2011-04-12T11:14:34Z</time>
      </trkpt>
      <trkpt lat="45.6749" lon="5.83359">
        <ele>1350.31</ele>
        <time>2011-04-12T11:14:52Z</time>
      </trkpt>
      <trkpt lat="45.6749" lon="5.83359">
        <ele>1355.12</ele>
        <time>2011-04-12T11:14:53Z</time>
      </trkpt>
      <trkpt lat="45.6749" lon="5.83359">
        <ele>1353.19</ele>
        <time>2011-04-12T11:14:56Z</time>
      </trkpt>
      <trkpt lat="45.6749" lon="5.83359">
        <ele>1350.79</ele>
        <time>2011-04-12T11:15:14Z</time>
      </trkpt>
      <trkpt lat="45.67489" lon="5.83359">
        <ele>1348.87</ele>
        <time>2011-04-12T11:15:30Z</time>
      </trkpt>
      <trkpt lat="45.67489" lon="5.83359">
        <ele>1346.94</ele>
        <time>2011-04-12T11:15:49Z</time>
      </trkpt>
      <trkpt lat="45.67485" lon="5.83364">
        <ele>1343.1</ele>
        <time>2011-04-12T11:15:59Z</time>
      </trkpt>
      <trkpt lat="45.67485" lon="5.83363">
        <ele>1343.58</ele>
        <time>2011-04-12T11:16:08Z</time>
      </trkpt>
      <trkpt lat="45.67483" lon="5.83362">
        <ele>1343.58</ele>
        <time>2011-04-12T11:16:16Z</time>
      </trkpt>
      <trkpt lat="45.67474" lon="5.83358">
        <ele>1343.1</ele>
        <time>2011-04-12T11:16:20Z</time>
      </trkpt>
      <trkpt lat="45.6747" lon="5.8336">
        <ele>1341.18</ele>
        <time>2011-04-12T11:16:36Z</time>
      </trkpt>
      <trkpt lat="45.67469" lon="5.83358">
        <ele>1340.7</ele>
        <time>2011-04-12T11:16:54Z</time>
      </trkpt>
      <trkpt lat="45.67469" lon="5.83358">
        <ele>1342.14</ele>
        <time>2011-04-12T11:17:14Z</time>
      </trkpt>
      <trkpt lat="45.67469" lon="5.83358">
        <ele>1342.62</ele>
        <time>2011-04-12T11:17:34Z</time>
      </trkpt>
      <trkpt lat="45.67469" lon="5.83358">
        <ele>1342.62</ele>
        <time>2011-04-12T11:18:02Z</time>
      </trkpt>
      <trkpt lat="45.67468" lon="5.83358">
        <ele>1342.62</ele>
        <time>2011-04-12T11:18:23Z</time>
      </trkpt>
      <trkpt lat="45.67468" lon="5.83358">
        <ele>1342.14</ele>
        <time>2011-04-12T11:18:40Z</time>
      </trkpt>
      <trkpt lat="45.67468" lon="5.83357">
        <ele>1342.14</ele>
        <time>2011-04-12T11:18:54Z</time>
      </trkpt>
      <trkpt lat="45.67466" lon="5.83358">
        <ele>1341.66</ele>
        <time>2011-04-12T11:19:11Z</time>
      </trkpt>
      <trkpt lat="45.67466" lon="5.83358">
        <ele>1341.66</ele>
        <time>2011-04-12T11:19:30Z</time>
      </trkpt>
      <trkpt lat="45.67466" lon="5.83358">
        <ele>1340.7</ele>
        <time>2011-04-12T11:19:47Z</time>
      </trkpt>
      <trkpt lat="45.67462" lon="5.83356">
        <ele>1339.25</ele>
        <time>2011-04-12T11:19:56Z</time>
      </trkpt>
      <trkpt lat="45.67456" lon="5.83352">
        <ele>1337.81</ele>
        <time>2011-04-12T11:20:04Z</time>
      </trkpt>
      <trkpt lat="45.6745" lon="5.83348">
        <ele>1336.37</ele>
        <time>2011-04-12T11:20:21Z</time>
      </trkpt>
      <trkpt lat="45.6745" lon="5.83348">
        <ele>1335.41</ele>
        <time>2011-04-12T11:20:34Z</time>
      </trkpt>
      <trkpt lat="45.67447" lon="5.83345">
        <ele>1333.01</ele>
        <time>2011-04-12T11:20:47Z</time>
      </trkpt>
      <trkpt lat="45.6744" lon="5.8334">
        <ele>1330.12</ele>
        <time>2011-04-12T11:21:02Z</time>
      </trkpt>
      <trkpt lat="45.67439" lon="5.8334">
        <ele>1329.16</ele>
        <time>2011-04-12T11:21:05Z</time>
      </trkpt>
      <trkpt lat="45.67436" lon="5.83339">
        <ele>1327.72</ele>
        <time>2011-04-12T11:21:07Z</time>
      </trkpt>
      <trkpt lat="45.67427" lon="5.83331">
        <ele>1327.24</ele>
        <time>2011-04-12T11:21:22Z</time>
      </trkpt>
      <trkpt lat="45.67426" lon="5.8333">
        <ele>1327.72</ele>
        <time>2011-04-12T11:21:40Z</time>
      </trkpt>
      <trkpt lat="45.67426" lon="5.8333">
        <ele>1327.72</ele>
        <time>2011-04-12T11:21:58Z</time>
      </trkpt>
      <trkpt lat="45.67426" lon="5.83329">
        <ele>1328.2</ele>
        <time>2011-04-12T11:22:12Z</time>
      </trkpt>
      <trkpt lat="45.67424" lon="5.83326">
        <ele>1328.2</ele>
        <time>2011-04-12T11:22:26Z</time>
      </trkpt>
      <trkpt lat="45.67421" lon="5.8332">
        <ele>1326.28</ele>
        <time>2011-04-12T11:22:35Z</time>
      </trkpt>
      <trkpt lat="45.67413" lon="5.8331">
        <ele>1323.39</ele>
        <time>2011-04-12T11:22:45Z</time>
      </trkpt>
      <trkpt lat="45.67406" lon="5.83291">
        <ele>1321.47</ele>
        <time>2011-04-12T11:22:59Z</time>
      </trkpt>
      <trkpt lat="45.67401" lon="5.83283">
        <ele>1319.55</ele>
        <time>2011-04-12T11:23:14Z</time>
      </trkpt>
      <trkpt lat="45.67395" lon="5.83278">
        <ele>1319.07</ele>
        <time>2011-04-12T11:23:30Z</time>
      </trkpt>
      <trkpt lat="45.67395" lon="5.83278">
        <ele>1318.59</ele>
        <time>2011-04-12T11:23:37Z</time>
      </trkpt>
      <trkpt lat="45.67392" lon="5.83272">
        <ele>1319.07</ele>
        <time>2011-04-12T11:23:42Z</time>
      </trkpt>
      <trkpt lat="45.67379" lon="5.83255">
        <ele>1318.1</ele>
        <time>2011-04-12T11:23:59Z</time>
      </trkpt>
      <trkpt lat="45.67378" lon="5.83255">
        <ele>1318.59</ele>
        <time>2011-04-12T11:24:17Z</time>
      </trkpt>
      <trkpt lat="45.67378" lon="5.83255">
        <ele>1318.59</ele>
        <time>2011-04-12T11:24:30Z</time>
      </trkpt>
      <trkpt lat="45.67374" lon="5.83255">
        <ele>1319.07</ele>
        <time>2011-04-12T11:24:33Z</time>
      </trkpt>
      <trkpt lat="45.67347" lon="5.83256">
        <ele>1316.66</ele>
        <time>2011-04-12T11:24:53Z</time>
      </trkpt>
      <trkpt lat="45.67342" lon="5.83255">
        <ele>1315.7</ele>
        <time>2011-04-12T11:25:08Z</time>
      </trkpt>
      <trkpt lat="45.67343" lon="5.83256">
        <ele>1314.74</ele>
        <time>2011-04-12T11:25:21Z</time>
      </trkpt>
      <trkpt lat="45.67343" lon="5.83256">
        <ele>1314.74</ele>
        <time>2011-04-12T11:25:48Z</time>
      </trkpt>
      <trkpt lat="45.67348" lon="5.83257">
        <ele>1315.7</ele>
        <time>2011-04-12T11:25:59Z</time>
      </trkpt>
      <trkpt lat="45.67355" lon="5.83259">
        <ele>1316.66</ele>
        <time>2011-04-12T11:26:05Z</time>
      </trkpt>
      <trkpt lat="45.6736" lon="5.83258">
        <ele>1318.59</ele>
        <time>2011-04-12T11:26:09Z</time>
      </trkpt>
      <trkpt lat="45.67362" lon="5.83259">
        <ele>1317.14</ele>
        <time>2011-04-12T11:26:11Z</time>
      </trkpt>
      <trkpt lat="45.67367" lon="5.83255">
        <ele>1316.66</ele>
        <time>2011-04-12T11:26:24Z</time>
      </trkpt>
      <trkpt lat="45.6737" lon="5.83251">
        <ele>1317.62</ele>
        <time>2011-04-12T11:26:29Z</time>
      </trkpt>
      <trkpt lat="45.67369" lon="5.8325">
        <ele>1319.55</ele>
        <time>2011-04-12T11:26:33Z</time>
      </trkpt>
      <trkpt lat="45.67362" lon="5.83246">
        <ele>1320.51</ele>
        <time>2011-04-12T11:26:49Z</time>
      </trkpt>
      <trkpt lat="45.6736" lon="5.83243">
        <ele>1321.95</ele>
        <time>2011-04-12T11:26:54Z</time>
      </trkpt>
      <trkpt lat="45.67359" lon="5.83243">
        <ele>1322.43</ele>
        <time>2011-04-12T11:27:03Z</time>
      </trkpt>
      <trkpt lat="45.67357" lon="5.83237">
        <ele>1325.31</ele>
        <time>2011-04-12T11:27:19Z</time>
      </trkpt>
      <trkpt lat="45.67347" lon="5.83222">
        <ele>1326.76</ele>
        <time>2011-04-12T11:27:33Z</time>
      </trkpt>
      <trkpt lat="45.67336" lon="5.83212">
        <ele>1329.16</ele>
        <time>2011-04-12T11:27:48Z</time>
      </trkpt>
      <trkpt lat="45.67331" lon="5.83208">
        <ele>1332.04</ele>
        <time>2011-04-12T11:28:03Z</time>
      </trkpt>
      <trkpt lat="45.67323" lon="5.83204">
        <ele>1332.52</ele>
        <time>2011-04-12T11:28:19Z</time>
      </trkpt>
      <trkpt lat="45.67303" lon="5.8319">
        <ele>1333.97</ele>
        <time>2011-04-12T11:28:29Z</time>
      </trkpt>
      <trkpt lat="45.67297" lon="5.83183">
        <ele>1336.85</ele>
        <time>2011-04-12T11:28:44Z</time>
      </trkpt>
      <trkpt lat="45.67295" lon="5.83179">
        <ele>1336.85</ele>
        <time>2011-04-12T11:28:49Z</time>
      </trkpt>
      <trkpt lat="45.67288" lon="5.83175">
        <ele>1339.25</ele>
        <time>2011-04-12T11:29:03Z</time>
      </trkpt>
      <trkpt lat="45.67281" lon="5.83173">
        <ele>1339.73</ele>
        <time>2011-04-12T11:29:10Z</time>
      </trkpt>
      <trkpt lat="45.67275" lon="5.8317">
        <ele>1340.22</ele>
        <time>2011-04-12T11:29:14Z</time>
      </trkpt>
      <trkpt lat="45.67263" lon="5.83164">
        <ele>1342.14</ele>
        <time>2011-04-12T11:29:29Z</time>
      </trkpt>
      <trkpt lat="45.67259" lon="5.83165">
        <ele>1343.58</ele>
        <time>2011-04-12T11:29:33Z</time>
      </trkpt>
      <trkpt lat="45.67255" lon="5.83164">
        <ele>1344.06</ele>
        <time>2011-04-12T11:29:36Z</time>
      </trkpt>
      <trkpt lat="45.67253" lon="5.83163">
        <ele>1344.54</ele>
        <time>2011-04-12T11:29:38Z</time>
      </trkpt>
      <trkpt lat="45.67249" lon="5.83153">
        <ele>1345.02</ele>
        <time>2011-04-12T11:29:47Z</time>
      </trkpt>
      <trkpt lat="45.67246" lon="5.83149">
        <ele>1345.98</ele>
        <time>2011-04-12T11:30:03Z</time>
      </trkpt>
      <trkpt lat="45.67242" lon="5.83145">
        <ele>1346.46</ele>
        <time>2011-04-12T11:30:16Z</time>
      </trkpt>
      <trkpt lat="45.67241" lon="5.83141">
        <ele>1346.94</ele>
        <time>2011-04-12T11:30:31Z</time>
      </trkpt>
      <trkpt lat="45.67235" lon="5.83136">
        <ele>1347.91</ele>
        <time>2011-04-12T11:30:48Z</time>
      </trkpt>
      <trkpt lat="45.67228" lon="5.83126">
        <ele>1349.83</ele>
        <time>2011-04-12T11:31:02Z</time>
      </trkpt>
      <trkpt lat="45.67228" lon="5.83122">
        <ele>1352.71</ele>
        <time>2011-04-12T11:31:16Z</time>
      </trkpt>
      <trkpt lat="45.67228" lon="5.83119">
        <ele>1354.63</ele>
        <time>2011-04-12T11:31:22Z</time>
      </trkpt>
      <trkpt lat="45.67228" lon="5.83114">
        <ele>1354.63</ele>
        <time>2011-04-12T11:31:25Z</time>
      </trkpt>
      <trkpt lat="45.67223" lon="5.83107">
        <ele>1357.52</ele>
        <time>2011-04-12T11:31:39Z</time>
      </trkpt>
      <trkpt lat="45.67217" lon="5.83106">
        <ele>1359.44</ele>
        <time>2011-04-12T11:31:56Z</time>
      </trkpt>
      <trkpt lat="45.67217" lon="5.83106">
        <ele>1362.33</ele>
        <time>2011-04-12T11:32:14Z</time>
      </trkpt>
      <trkpt lat="45.67215" lon="5.83107">
        <ele>1364.73</ele>
        <time>2011-04-12T11:32:27Z</time>
      </trkpt>
      <trkpt lat="45.67212" lon="5.83108">
        <ele>1365.69</ele>
        <time>2011-04-12T11:32:31Z</time>
      </trkpt>
      <trkpt lat="45.67204" lon="5.83095">
        <ele>1367.13</ele>
        <time>2011-04-12T11:32:44Z</time>
      </trkpt>
      <trkpt lat="45.67196" lon="5.83086">
        <ele>1368.57</ele>
        <time>2011-04-12T11:32:54Z</time>
      </trkpt>
      <trkpt lat="45.67192" lon="5.83085">
        <ele>1369.05</ele>
        <time>2011-04-12T11:33:00Z</time>
      </trkpt>
      <trkpt lat="45.67189" lon="5.83078">
        <ele>1369.54</ele>
        <time>2011-04-12T11:33:11Z</time>
      </trkpt>
      <trkpt lat="45.67178" lon="5.83076">
        <ele>1368.57</ele>
        <time>2011-04-12T11:33:24Z</time>
      </trkpt>
      <trkpt lat="45.67167" lon="5.83078">
        <ele>1370.5</ele>
        <time>2011-04-12T11:33:40Z</time>
      </trkpt>
      <trkpt lat="45.67167" lon="5.83077">
        <ele>1372.9</ele>
        <time>2011-04-12T11:33:47Z</time>
      </trkpt>
      <trkpt lat="45.67164" lon="5.83079">
        <ele>1374.34</ele>
        <time>2011-04-12T11:34:02Z</time>
      </trkpt>
      <trkpt lat="45.67164" lon="5.83079">
        <ele>1375.78</ele>
        <time>2011-04-12T11:34:20Z</time>
      </trkpt>
      <trkpt lat="45.67157" lon="5.83082">
        <ele>1377.71</ele>
        <time>2011-04-12T11:34:37Z</time>
      </trkpt>
      <trkpt lat="45.67142" lon="5.83085">
        <ele>1380.11</ele>
        <time>2011-04-12T11:34:54Z</time>
      </trkpt>
      <trkpt lat="45.6714" lon="5.83086">
        <ele>1382.99</ele>
        <time>2011-04-12T11:35:08Z</time>
      </trkpt>
      <trkpt lat="45.6714" lon="5.83086">
        <ele>1383.47</ele>
        <time>2011-04-12T11:35:26Z</time>
      </trkpt>
      <trkpt lat="45.67136" lon="5.83084">
        <ele>1383.96</ele>
        <time>2011-04-12T11:35:29Z</time>
      </trkpt>
      <trkpt lat="45.67133" lon="5.83079">
        <ele>1384.92</ele>
        <time>2011-04-12T11:35:45Z</time>
      </trkpt>
      <trkpt lat="45.67134" lon="5.83077">
        <ele>1386.84</ele>
        <time>2011-04-12T11:36:00Z</time>
      </trkpt>
      <trkpt lat="45.67134" lon="5.83077">
        <ele>1389.24</ele>
        <time>2011-04-12T11:36:17Z</time>
      </trkpt>
      <trkpt lat="45.67135" lon="5.83075">
        <ele>1391.65</ele>
        <time>2011-04-12T11:36:31Z</time>
      </trkpt>
      <trkpt lat="45.67136" lon="5.83065">
        <ele>1394.05</ele>
        <time>2011-04-12T11:36:45Z</time>
      </trkpt>
      <trkpt lat="45.67136" lon="5.83062">
        <ele>1396.45</ele>
        <time>2011-04-12T11:37:02Z</time>
      </trkpt>
      <trkpt lat="45.67136" lon="5.83059">
        <ele>1397.41</ele>
        <time>2011-04-12T11:37:08Z</time>
      </trkpt>
      <trkpt lat="45.67136" lon="5.83058">
        <ele>1400.3</ele>
        <time>2011-04-12T11:37:25Z</time>
      </trkpt>
      <trkpt lat="45.67137" lon="5.83052">
        <ele>1402.22</ele>
        <time>2011-04-12T11:37:39Z</time>
      </trkpt>
      <trkpt lat="45.67137" lon="5.83052">
        <ele>1404.14</ele>
        <time>2011-04-12T11:37:52Z</time>
      </trkpt>
      <trkpt lat="45.67138" lon="5.83047">
        <ele>1406.55</ele>
        <time>2011-04-12T11:38:09Z</time>
      </trkpt>
      <trkpt lat="45.6714" lon="5.8304">
        <ele>1408.47</ele>
        <time>2011-04-12T11:38:25Z</time>
      </trkpt>
      <trkpt lat="45.67141" lon="5.83037">
        <ele>1409.91</ele>
        <time>2011-04-12T11:38:42Z</time>
      </trkpt>
      <trkpt lat="45.67143" lon="5.83034">
        <ele>1412.31</ele>
        <time>2011-04-12T11:38:53Z</time>
      </trkpt>
      <trkpt lat="45.67143" lon="5.83033">
        <ele>1414.24</ele>
        <time>2011-04-12T11:39:06Z</time>
      </trkpt>
      <trkpt lat="45.67141" lon="5.83017">
        <ele>1417.6</ele>
        <time>2011-04-12T11:39:20Z</time>
      </trkpt>
      <trkpt lat="45.67141" lon="5.83014">
        <ele>1417.6</ele>
        <time>2011-04-12T11:39:24Z</time>
      </trkpt>
      <trkpt lat="45.67152" lon="5.83004">
        <ele>1420.97</ele>
        <time>2011-04-12T11:39:42Z</time>
      </trkpt>
      <trkpt lat="45.67152" lon="5.83003">
        <ele>1421.93</ele>
        <time>2011-04-12T11:39:52Z</time>
      </trkpt>
      <trkpt lat="45.67157" lon="5.82997">
        <ele>1424.33</ele>
        <time>2011-04-12T11:40:06Z</time>
      </trkpt>
      <trkpt lat="45.67157" lon="5.82997">
        <ele>1424.81</ele>
        <time>2011-04-12T11:40:08Z</time>
      </trkpt>
      <trkpt lat="45.6716" lon="5.82988">
        <ele>1427.21</ele>
        <time>2011-04-12T11:40:24Z</time>
      </trkpt>
      <trkpt lat="45.67164" lon="5.82985">
        <ele>1429.62</ele>
        <time>2011-04-12T11:40:37Z</time>
      </trkpt>
      <trkpt lat="45.67165" lon="5.82979">
        <ele>1432.5</ele>
        <time>2011-04-12T11:40:50Z</time>
      </trkpt>
      <trkpt lat="45.67165" lon="5.82977">
        <ele>1433.46</ele>
        <time>2011-04-12T11:40:54Z</time>
      </trkpt>
      <trkpt lat="45.67164" lon="5.82971">
        <ele>1435.87</ele>
        <time>2011-04-12T11:41:08Z</time>
      </trkpt>
      <trkpt lat="45.67162" lon="5.82959">
        <ele>1437.79</ele>
        <time>2011-04-12T11:41:21Z</time>
      </trkpt>
      <trkpt lat="45.67159" lon="5.8295">
        <ele>1439.71</ele>
        <time>2011-04-12T11:41:35Z</time>
      </trkpt>
      <trkpt lat="45.67158" lon="5.8294">
        <ele>1442.6</ele>
        <time>2011-04-12T11:41:46Z</time>
      </trkpt>
      <trkpt lat="45.67157" lon="5.82934">
        <ele>1445</ele>
        <time>2011-04-12T11:41:58Z</time>
      </trkpt>
      <trkpt lat="45.67159" lon="5.82931">
        <ele>1445.48</ele>
        <time>2011-04-12T11:42:10Z</time>
      </trkpt>
      <trkpt lat="45.67159" lon="5.82931">
        <ele>1445.48</ele>
        <time>2011-04-12T11:42:22Z</time>
      </trkpt>
      <trkpt lat="45.67161" lon="5.82934">
        <ele>1444.04</ele>
        <time>2011-04-12T11:42:36Z</time>
      </trkpt>
      <trkpt lat="45.67161" lon="5.82938">
        <ele>1444.04</ele>
        <time>2011-04-12T11:42:47Z</time>
      </trkpt>
      <trkpt lat="45.67161" lon="5.82937">
        <ele>1443.08</ele>
        <time>2011-04-12T11:42:59Z</time>
      </trkpt>
      <trkpt lat="45.67161" lon="5.82937">
        <ele>1443.08</ele>
        <time>2011-04-12T11:43:20Z</time>
      </trkpt>
      <trkpt lat="45.67161" lon="5.82937">
        <ele>1443.56</ele>
        <time>2011-04-12T11:43:45Z</time>
      </trkpt>
      <trkpt lat="45.67161" lon="5.82938">
        <ele>1443.08</ele>
        <time>2011-04-12T11:44:12Z</time>
      </trkpt>
      <trkpt lat="45.67161" lon="5.82938">
        <ele>1442.6</ele>
        <time>2011-04-12T11:44:37Z</time>
      </trkpt>
      <trkpt lat="45.67162" lon="5.82938">
        <ele>1442.6</ele>
        <time>2011-04-12T11:45:04Z</time>
      </trkpt>
      <trkpt lat="45.67161" lon="5.82938">
        <ele>1443.56</ele>
        <time>2011-04-12T11:45:28Z</time>
      </trkpt>
      <trkpt lat="45.67161" lon="5.82938">
        <ele>1443.56</ele>
        <time>2011-04-12T11:45:46Z</time>
      </trkpt>
      <trkpt lat="45.67161" lon="5.82938">
        <ele>1443.08</ele>
        <time>2011-04-12T11:46:09Z</time>
      </trkpt>
      <trkpt lat="45.67161" lon="5.82938">
        <ele>1443.08</ele>
        <time>2011-04-12T11:46:29Z</time>
      </trkpt>
      <trkpt lat="45.67162" lon="5.82939">
        <ele>1445.96</ele>
        <time>2011-04-12T11:46:44Z</time>
      </trkpt>
      <trkpt lat="45.67162" lon="5.82939">
        <ele>1442.11</ele>
        <time>2011-04-12T11:46:59Z</time>
      </trkpt>
      <trkpt lat="45.67162" lon="5.82939">
        <ele>1443.08</ele>
        <time>2011-04-12T11:47:16Z</time>
      </trkpt>
      <trkpt lat="45.67162" lon="5.82939">
        <ele>1443.08</ele>
        <time>2011-04-12T11:47:39Z</time>
      </trkpt>
      <trkpt lat="45.67162" lon="5.82939">
        <ele>1443.08</ele>
        <time>2011-04-12T11:47:56Z</time>
      </trkpt>
      <trkpt lat="45.67162" lon="5.82939">
        <ele>1442.11</ele>
        <time>2011-04-12T11:48:17Z</time>
      </trkpt>
      <trkpt lat="45.67165" lon="5.82939">
        <ele>1441.63</ele>
        <time>2011-04-12T11:48:35Z</time>
      </trkpt>
      <trkpt lat="45.67168" lon="5.82943">
        <ele>1442.6</ele>
        <time>2011-04-12T11:48:45Z</time>
      </trkpt>
      <trkpt lat="45.6717" lon="5.82944">
        <ele>1443.08</ele>
        <time>2011-04-12T11:48:55Z</time>
      </trkpt>
      <trkpt lat="45.6717" lon="5.82944">
        <ele>1442.6</ele>
        <time>2011-04-12T11:49:09Z</time>
      </trkpt>
      <trkpt lat="45.6717" lon="5.82944">
        <ele>1443.08</ele>
        <time>2011-04-12T11:49:20Z</time>
      </trkpt>
      <trkpt lat="45.6717" lon="5.82944">
        <ele>1443.56</ele>
        <time>2011-04-12T11:49:44Z</time>
      </trkpt>
      <trkpt lat="45.6717" lon="5.82944">
        <ele>1443.08</ele>
        <time>2011-04-12T11:50:06Z</time>
      </trkpt>
      <trkpt lat="45.67168" lon="5.82943">
        <ele>1442.6</ele>
        <time>2011-04-12T11:50:17Z</time>
      </trkpt>
      <trkpt lat="45.67168" lon="5.82943">
        <ele>1442.11</ele>
        <time>2011-04-12T11:50:28Z</time>
      </trkpt>
      <trkpt lat="45.67167" lon="5.82941">
        <ele>1442.6</ele>
        <time>2011-04-12T11:50:37Z</time>
      </trkpt>
      <trkpt lat="45.67167" lon="5.82941">
        <ele>1442.11</ele>
        <time>2011-04-12T11:50:52Z</time>
      </trkpt>
      <trkpt lat="45.67165" lon="5.82941">
        <ele>1442.11</ele>
        <time>2011-04-12T11:51:04Z</time>
      </trkpt>
      <trkpt lat="45.6716" lon="5.82938">
        <ele>1441.63</ele>
        <time>2011-04-12T11:51:16Z</time>
      </trkpt>
      <trkpt lat="45.67154" lon="5.82936">
        <ele>1439.71</ele>
        <time>2011-04-12T11:51:27Z</time>
      </trkpt>
      <trkpt lat="45.67147" lon="5.82939">
        <ele>1437.79</ele>
        <time>2011-04-12T11:51:38Z</time>
      </trkpt>
      <trkpt lat="45.67144" lon="5.82937">
        <ele>1436.35</ele>
        <time>2011-04-12T11:51:43Z</time>
      </trkpt>
      <trkpt lat="45.67138" lon="5.82932">
        <ele>1435.39</ele>
        <time>2011-04-12T11:51:51Z</time>
      </trkpt>
      <trkpt lat="45.67123" lon="5.8292">
        <ele>1433.94</ele>
        <time>2011-04-12T11:52:05Z</time>
      </trkpt>
      <trkpt lat="45.67115" lon="5.82906">
        <ele>1434.91</ele>
        <time>2011-04-12T11:52:17Z</time>
      </trkpt>
      <trkpt lat="45.67107" lon="5.82902">
        <ele>1433.46</ele>
        <time>2011-04-12T11:52:28Z</time>
      </trkpt>
      <trkpt lat="45.67102" lon="5.82897">
        <ele>1434.42</ele>
        <time>2011-04-12T11:52:36Z</time>
      </trkpt>
      <trkpt lat="45.67091" lon="5.82885">
        <ele>1435.39</ele>
        <time>2011-04-12T11:52:49Z</time>
      </trkpt>
      <trkpt lat="45.67083" lon="5.82873">
        <ele>1434.91</ele>
        <time>2011-04-12T11:53:00Z</time>
      </trkpt>
      <trkpt lat="45.67078" lon="5.82871">
        <ele>1434.91</ele>
        <time>2011-04-12T11:53:12Z</time>
      </trkpt>
      <trkpt lat="45.67076" lon="5.82871">
        <ele>1435.39</ele>
        <time>2011-04-12T11:53:15Z</time>
      </trkpt>
      <trkpt lat="45.67066" lon="5.82862">
        <ele>1432.98</ele>
        <time>2011-04-12T11:53:27Z</time>
      </trkpt>
      <trkpt lat="45.67053" lon="5.82855">
        <ele>1433.94</ele>
        <time>2011-04-12T11:53:39Z</time>
      </trkpt>
      <trkpt lat="45.67046" lon="5.82852">
        <ele>1433.94</ele>
        <time>2011-04-12T11:53:45Z</time>
      </trkpt>
      <trkpt lat="45.67033" lon="5.82843">
        <ele>1435.87</ele>
        <time>2011-04-12T11:53:59Z</time>
      </trkpt>
      <trkpt lat="45.67024" lon="5.82838">
        <ele>1437.31</ele>
        <time>2011-04-12T11:54:11Z</time>
      </trkpt>
      <trkpt lat="45.67024" lon="5.82838">
        <ele>1439.23</ele>
        <time>2011-04-12T11:54:24Z</time>
      </trkpt>
      <trkpt lat="45.67024" lon="5.82838">
        <ele>1441.15</ele>
        <time>2011-04-12T11:54:38Z</time>
      </trkpt>
      <trkpt lat="45.67023" lon="5.82838">
        <ele>1444.04</ele>
        <time>2011-04-12T11:54:50Z</time>
      </trkpt>
      <trkpt lat="45.67023" lon="5.82838">
        <ele>1445.96</ele>
        <time>2011-04-12T11:55:06Z</time>
      </trkpt>
      <trkpt lat="45.67021" lon="5.82835">
        <ele>1448.36</ele>
        <time>2011-04-12T11:55:19Z</time>
      </trkpt>
      <trkpt lat="45.67017" lon="5.82831">
        <ele>1448.36</ele>
        <time>2011-04-12T11:55:21Z</time>
      </trkpt>
      <trkpt lat="45.66996" lon="5.82809">
        <ele>1449.32</ele>
        <time>2011-04-12T11:55:34Z</time>
      </trkpt>
      <trkpt lat="45.6698" lon="5.82791">
        <ele>1450.29</ele>
        <time>2011-04-12T11:55:45Z</time>
      </trkpt>
      <trkpt lat="45.66966" lon="5.82779">
        <ele>1450.77</ele>
        <time>2011-04-12T11:55:57Z</time>
      </trkpt>
      <trkpt lat="45.66955" lon="5.82774">
        <ele>1450.77</ele>
        <time>2011-04-12T11:56:08Z</time>
      </trkpt>
      <trkpt lat="45.66943" lon="5.82766">
        <ele>1451.25</ele>
        <time>2011-04-12T11:56:18Z</time>
      </trkpt>
      <trkpt lat="45.66942" lon="5.82765">
        <ele>1451.25</ele>
        <time>2011-04-12T11:56:19Z</time>
      </trkpt>
      <trkpt lat="45.66932" lon="5.82756">
        <ele>1453.17</ele>
        <time>2011-04-12T11:56:28Z</time>
      </trkpt>
      <trkpt lat="45.66923" lon="5.82742">
        <ele>1455.57</ele>
        <time>2011-04-12T11:56:40Z</time>
      </trkpt>
      <trkpt lat="45.66922" lon="5.82741">
        <ele>1455.57</ele>
        <time>2011-04-12T11:56:41Z</time>
      </trkpt>
      <trkpt lat="45.66913" lon="5.8273">
        <ele>1457.02</ele>
        <time>2011-04-12T11:56:54Z</time>
      </trkpt>
      <trkpt lat="45.66908" lon="5.82716">
        <ele>1458.46</ele>
        <time>2011-04-12T11:57:05Z</time>
      </trkpt>
      <trkpt lat="45.669" lon="5.82711">
        <ele>1459.9</ele>
        <time>2011-04-12T11:57:16Z</time>
      </trkpt>
      <trkpt lat="45.66894" lon="5.82706">
        <ele>1460.86</ele>
        <time>2011-04-12T11:57:28Z</time>
      </trkpt>
      <trkpt lat="45.66892" lon="5.82704">
        <ele>1460.86</ele>
        <time>2011-04-12T11:57:31Z</time>
      </trkpt>
      <trkpt lat="45.66878" lon="5.8269">
        <ele>1460.86</ele>
        <time>2011-04-12T11:57:43Z</time>
      </trkpt>
      <trkpt lat="45.66864" lon="5.82685">
        <ele>1461.34</ele>
        <time>2011-04-12T11:57:55Z</time>
      </trkpt>
      <trkpt lat="45.66854" lon="5.82677">
        <ele>1460.86</ele>
        <time>2011-04-12T11:58:07Z</time>
      </trkpt>
      <trkpt lat="45.66845" lon="5.82673">
        <ele>1459.9</ele>
        <time>2011-04-12T11:58:18Z</time>
      </trkpt>
      <trkpt lat="45.6684" lon="5.82668">
        <ele>1458.94</ele>
        <time>2011-04-12T11:58:22Z</time>
      </trkpt>
      <trkpt lat="45.6683" lon="5.82661">
        <ele>1457.5</ele>
        <time>2011-04-12T11:58:32Z</time>
      </trkpt>
      <trkpt lat="45.66818" lon="5.82656">
        <ele>1456.05</ele>
        <time>2011-04-12T11:58:45Z</time>
      </trkpt>
      <trkpt lat="45.66816" lon="5.82653">
        <ele>1454.61</ele>
        <time>2011-04-12T11:58:48Z</time>
      </trkpt>
      <trkpt lat="45.66808" lon="5.82652">
        <ele>1453.17</ele>
        <time>2011-04-12T11:58:56Z</time>
      </trkpt>
      <trkpt lat="45.66795" lon="5.82648">
        <ele>1451.73</ele>
        <time>2011-04-12T11:59:07Z</time>
      </trkpt>
      <trkpt lat="45.66784" lon="5.8264">
        <ele>1450.77</ele>
        <time>2011-04-12T11:59:17Z</time>
      </trkpt>
      <trkpt lat="45.66772" lon="5.82629">
        <ele>1450.77</ele>
        <time>2011-04-12T11:59:28Z</time>
      </trkpt>
      <trkpt lat="45.66769" lon="5.82625">
        <ele>1450.77</ele>
        <time>2011-04-12T11:59:32Z</time>
      </trkpt>
      <trkpt lat="45.66765" lon="5.82618">
        <ele>1451.25</ele>
        <time>2011-04-12T11:59:37Z</time>
      </trkpt>
      <trkpt lat="45.66758" lon="5.8261">
        <ele>1451.25</ele>
        <time>2011-04-12T11:59:49Z</time>
      </trkpt>
      <trkpt lat="45.66756" lon="5.82608">
        <ele>1451.25</ele>
        <time>2011-04-12T11:59:51Z</time>
      </trkpt>
      <trkpt lat="45.66745" lon="5.82605">
        <ele>1450.29</ele>
        <time>2011-04-12T12:00:04Z</time>
      </trkpt>
      <trkpt lat="45.66744" lon="5.82604">
        <ele>1449.32</ele>
        <time>2011-04-12T12:00:06Z</time>
      </trkpt>
      <trkpt lat="45.66731" lon="5.82599">
        <ele>1448.84</ele>
        <time>2011-04-12T12:00:18Z</time>
      </trkpt>
      <trkpt lat="45.66721" lon="5.82597">
        <ele>1446.92</ele>
        <time>2011-04-12T12:00:29Z</time>
      </trkpt>
      <trkpt lat="45.66713" lon="5.82595">
        <ele>1445</ele>
        <time>2011-04-12T12:00:37Z</time>
      </trkpt>
      <trkpt lat="45.66704" lon="5.82595">
        <ele>1442.11</ele>
        <time>2011-04-12T12:00:48Z</time>
      </trkpt>
      <trkpt lat="45.66693" lon="5.82598">
        <ele>1439.71</ele>
        <time>2011-04-12T12:01:00Z</time>
      </trkpt>
      <trkpt lat="45.66693" lon="5.82601">
        <ele>1437.31</ele>
        <time>2011-04-12T12:01:10Z</time>
      </trkpt>
      <trkpt lat="45.6669" lon="5.82601">
        <ele>1435.39</ele>
        <time>2011-04-12T12:01:19Z</time>
      </trkpt>
      <trkpt lat="45.66685" lon="5.82599">
        <ele>1434.91</ele>
        <time>2011-04-12T12:01:23Z</time>
      </trkpt>
      <trkpt lat="45.66682" lon="5.82597">
        <ele>1434.42</ele>
        <time>2011-04-12T12:01:25Z</time>
      </trkpt>
      <trkpt lat="45.66666" lon="5.82602">
        <ele>1432.02</ele>
        <time>2011-04-12T12:01:37Z</time>
      </trkpt>
      <trkpt lat="45.66653" lon="5.82607">
        <ele>1431.06</ele>
        <time>2011-04-12T12:01:45Z</time>
      </trkpt>
      <trkpt lat="45.66643" lon="5.82611">
        <ele>1428.66</ele>
        <time>2011-04-12T12:01:57Z</time>
      </trkpt>
      <trkpt lat="45.66637" lon="5.82611">
        <ele>1425.77</ele>
        <time>2011-04-12T12:02:08Z</time>
      </trkpt>
      <trkpt lat="45.66635" lon="5.8261">
        <ele>1425.29</ele>
        <time>2011-04-12T12:02:11Z</time>
      </trkpt>
      <trkpt lat="45.66633" lon="5.82611">
        <ele>1424.33</ele>
        <time>2011-04-12T12:02:13Z</time>
      </trkpt>
      <trkpt lat="45.66616" lon="5.82612">
        <ele>1423.37</ele>
        <time>2011-04-12T12:02:28Z</time>
      </trkpt>
      <trkpt lat="45.66606" lon="5.82607">
        <ele>1422.89</ele>
        <time>2011-04-12T12:02:39Z</time>
      </trkpt>
      <trkpt lat="45.66595" lon="5.82599">
        <ele>1421.93</ele>
        <time>2011-04-12T12:02:50Z</time>
      </trkpt>
      <trkpt lat="45.6658" lon="5.82587">
        <ele>1420.49</ele>
        <time>2011-04-12T12:03:04Z</time>
      </trkpt>
      <trkpt lat="45.66568" lon="5.82581">
        <ele>1419.04</ele>
        <time>2011-04-12T12:03:14Z</time>
      </trkpt>
      <trkpt lat="45.66558" lon="5.82574">
        <ele>1418.08</ele>
        <time>2011-04-12T12:03:24Z</time>
      </trkpt>
      <trkpt lat="45.66555" lon="5.82573">
        <ele>1418.08</ele>
        <time>2011-04-12T12:03:26Z</time>
      </trkpt>
      <trkpt lat="45.66543" lon="5.82563">
        <ele>1416.64</ele>
        <time>2011-04-12T12:03:37Z</time>
      </trkpt>
      <trkpt lat="45.66542" lon="5.82562">
        <ele>1416.64</ele>
        <time>2011-04-12T12:03:38Z</time>
      </trkpt>
      <trkpt lat="45.66538" lon="5.82558">
        <ele>1416.16</ele>
        <time>2011-04-12T12:03:42Z</time>
      </trkpt>
      <trkpt lat="45.66533" lon="5.82555">
        <ele>1415.2</ele>
        <time>2011-04-12T12:03:47Z</time>
      </trkpt>
      <trkpt lat="45.66519" lon="5.8255">
        <ele>1414.24</ele>
        <time>2011-04-12T12:03:59Z</time>
      </trkpt>
      <trkpt lat="45.66511" lon="5.82546">
        <ele>1413.28</ele>
        <time>2011-04-12T12:04:06Z</time>
      </trkpt>
      <trkpt lat="45.66491" lon="5.82545">
        <ele>1410.87</ele>
        <time>2011-04-12T12:04:20Z</time>
      </trkpt>
      <trkpt lat="45.66479" lon="5.82541">
        <ele>1409.43</ele>
        <time>2011-04-12T12:04:31Z</time>
      </trkpt>
      <trkpt lat="45.66475" lon="5.82539">
        <ele>1409.43</ele>
        <time>2011-04-12T12:04:34Z</time>
      </trkpt>
      <trkpt lat="45.66468" lon="5.82539">
        <ele>1408.95</ele>
        <time>2011-04-12T12:04:39Z</time>
      </trkpt>
      <trkpt lat="45.6645" lon="5.82541">
        <ele>1407.03</ele>
        <time>2011-04-12T12:04:52Z</time>
      </trkpt>
      <trkpt lat="45.66445" lon="5.82543">
        <ele>1407.03</ele>
        <time>2011-04-12T12:04:56Z</time>
      </trkpt>
      <trkpt lat="45.66436" lon="5.82544">
        <ele>1406.55</ele>
        <time>2011-04-12T12:05:02Z</time>
      </trkpt>
      <trkpt lat="45.66431" lon="5.82545">
        <ele>1405.58</ele>
        <time>2011-04-12T12:05:05Z</time>
      </trkpt>
      <trkpt lat="45.66418" lon="5.82545">
        <ele>1404.62</ele>
        <time>2011-04-12T12:05:16Z</time>
      </trkpt>
      <trkpt lat="45.66411" lon="5.82545">
        <ele>1403.66</ele>
        <time>2011-04-12T12:05:22Z</time>
      </trkpt>
      <trkpt lat="45.664" lon="5.82535">
        <ele>1402.7</ele>
        <time>2011-04-12T12:05:33Z</time>
      </trkpt>
      <trkpt lat="45.66399" lon="5.82534">
        <ele>1402.7</ele>
        <time>2011-04-12T12:05:34Z</time>
      </trkpt>
      <trkpt lat="45.6639" lon="5.82525">
        <ele>1401.26</ele>
        <time>2011-04-12T12:05:44Z</time>
      </trkpt>
      <trkpt lat="45.66385" lon="5.82522">
        <ele>1400.3</ele>
        <time>2011-04-12T12:05:47Z</time>
      </trkpt>
      <trkpt lat="45.66371" lon="5.82512">
        <ele>1398.37</ele>
        <time>2011-04-12T12:06:00Z</time>
      </trkpt>
      <trkpt lat="45.66368" lon="5.82511">
        <ele>1397.89</ele>
        <time>2011-04-12T12:06:02Z</time>
      </trkpt>
      <trkpt lat="45.66356" lon="5.82505">
        <ele>1397.41</ele>
        <time>2011-04-12T12:06:12Z</time>
      </trkpt>
      <trkpt lat="45.66349" lon="5.825">
        <ele>1396.93</ele>
        <time>2011-04-12T12:06:23Z</time>
      </trkpt>
      <trkpt lat="45.6635" lon="5.825">
        <ele>1395.97</ele>
        <time>2011-04-12T12:06:36Z</time>
      </trkpt>
      <trkpt lat="45.6635" lon="5.825">
        <ele>1395.97</ele>
        <time>2011-04-12T12:07:00Z</time>
      </trkpt>
      <trkpt lat="45.6635" lon="5.825">
        <ele>1395.49</ele>
        <time>2011-04-12T12:07:15Z</time>
      </trkpt>
      <trkpt lat="45.6635" lon="5.825">
        <ele>1395.97</ele>
        <time>2011-04-12T12:07:37Z</time>
      </trkpt>
      <trkpt lat="45.6635" lon="5.825">
        <ele>1394.53</ele>
        <time>2011-04-12T12:07:39Z</time>
      </trkpt>
      <trkpt lat="45.6635" lon="5.82501">
        <ele>1395.97</ele>
        <time>2011-04-12T12:07:46Z</time>
      </trkpt>
      <trkpt lat="45.6635" lon="5.82501">
        <ele>1395.97</ele>
        <time>2011-04-12T12:08:09Z</time>
      </trkpt>
      <trkpt lat="45.6635" lon="5.82501">
        <ele>1394.05</ele>
        <time>2011-04-12T12:08:21Z</time>
      </trkpt>
      <trkpt lat="45.6635" lon="5.825">
        <ele>1395.01</ele>
        <time>2011-04-12T12:08:42Z</time>
      </trkpt>
      <trkpt lat="45.6635" lon="5.825">
        <ele>1395.01</ele>
        <time>2011-04-12T12:08:57Z</time>
      </trkpt>
      <trkpt lat="45.66351" lon="5.82503">
        <ele>1395.01</ele>
        <time>2011-04-12T12:09:10Z</time>
      </trkpt>
      <trkpt lat="45.66353" lon="5.82507">
        <ele>1394.05</ele>
        <time>2011-04-12T12:09:21Z</time>
      </trkpt>
      <trkpt lat="45.66355" lon="5.82518">
        <ele>1392.13</ele>
        <time>2011-04-12T12:09:31Z</time>
      </trkpt>
      <trkpt lat="45.66359" lon="5.82527">
        <ele>1391.65</ele>
        <time>2011-04-12T12:09:38Z</time>
      </trkpt>
      <trkpt lat="45.6636" lon="5.8253">
        <ele>1390.68</ele>
        <time>2011-04-12T12:09:42Z</time>
      </trkpt>
      <trkpt lat="45.66364" lon="5.82539">
        <ele>1390.2</ele>
        <time>2011-04-12T12:09:48Z</time>
      </trkpt>
      <trkpt lat="45.66365" lon="5.82541">
        <ele>1390.2</ele>
        <time>2011-04-12T12:09:50Z</time>
      </trkpt>
      <trkpt lat="45.66357" lon="5.82538">
        <ele>1387.8</ele>
        <time>2011-04-12T12:10:01Z</time>
      </trkpt>
      <trkpt lat="45.66359" lon="5.82544">
        <ele>1385.4</ele>
        <time>2011-04-12T12:10:12Z</time>
      </trkpt>
      <trkpt lat="45.66367" lon="5.82557">
        <ele>1383.47</ele>
        <time>2011-04-12T12:10:22Z</time>
      </trkpt>
      <trkpt lat="45.66375" lon="5.82564">
        <ele>1381.07</ele>
        <time>2011-04-12T12:10:33Z</time>
      </trkpt>
      <trkpt lat="45.66387" lon="5.82579">
        <ele>1377.71</ele>
        <time>2011-04-12T12:10:46Z</time>
      </trkpt>
      <trkpt lat="45.6639" lon="5.82585">
        <ele>1376.75</ele>
        <time>2011-04-12T12:10:52Z</time>
      </trkpt>
      <trkpt lat="45.66385" lon="5.82589">
        <ele>1375.78</ele>
        <time>2011-04-12T12:10:57Z</time>
      </trkpt>
      <trkpt lat="45.66369" lon="5.82582">
        <ele>1373.38</ele>
        <time>2011-04-12T12:11:10Z</time>
      </trkpt>
      <trkpt lat="45.6636" lon="5.82577">
        <ele>1371.94</ele>
        <time>2011-04-12T12:11:20Z</time>
      </trkpt>
      <trkpt lat="45.66362" lon="5.82582">
        <ele>1370.02</ele>
        <time>2011-04-12T12:11:28Z</time>
      </trkpt>
      <trkpt lat="45.66365" lon="5.8259">
        <ele>1368.09</ele>
        <time>2011-04-12T12:11:34Z</time>
      </trkpt>
      <trkpt lat="45.66373" lon="5.82602">
        <ele>1365.69</ele>
        <time>2011-04-12T12:11:45Z</time>
      </trkpt>
      <trkpt lat="45.6637" lon="5.82603">
        <ele>1364.73</ele>
        <time>2011-04-12T12:11:47Z</time>
      </trkpt>
      <trkpt lat="45.66365" lon="5.82599">
        <ele>1363.77</ele>
        <time>2011-04-12T12:11:53Z</time>
      </trkpt>
      <trkpt lat="45.66363" lon="5.82602">
        <ele>1360.88</ele>
        <time>2011-04-12T12:12:06Z</time>
      </trkpt>
      <trkpt lat="45.66359" lon="5.82596">
        <ele>1358.48</ele>
        <time>2011-04-12T12:12:16Z</time>
      </trkpt>
      <trkpt lat="45.66361" lon="5.82596">
        <ele>1358</ele>
        <time>2011-04-12T12:12:19Z</time>
      </trkpt>
      <trkpt lat="45.66366" lon="5.82599">
        <ele>1356.56</ele>
        <time>2011-04-12T12:12:24Z</time>
      </trkpt>
      <trkpt lat="45.66372" lon="5.8261">
        <ele>1355.6</ele>
        <time>2011-04-12T12:12:32Z</time>
      </trkpt>
      <trkpt lat="45.66357" lon="5.82623">
        <ele>1353.19</ele>
        <time>2011-04-12T12:12:42Z</time>
      </trkpt>
      <trkpt lat="45.6635" lon="5.82627">
        <ele>1352.23</ele>
        <time>2011-04-12T12:12:46Z</time>
      </trkpt>
      <trkpt lat="45.6633" lon="5.82631">
        <ele>1350.31</ele>
        <time>2011-04-12T12:12:57Z</time>
      </trkpt>
      <trkpt lat="45.6632" lon="5.82617">
        <ele>1347.91</ele>
        <time>2011-04-12T12:13:10Z</time>
      </trkpt>
      <trkpt lat="45.66316" lon="5.82615">
        <ele>1345.02</ele>
        <time>2011-04-12T12:13:19Z</time>
      </trkpt>
      <trkpt lat="45.66313" lon="5.82617">
        <ele>1343.1</ele>
        <time>2011-04-12T12:13:25Z</time>
      </trkpt>
      <trkpt lat="45.66309" lon="5.8262">
        <ele>1341.18</ele>
        <time>2011-04-12T12:13:29Z</time>
      </trkpt>
      <trkpt lat="45.66304" lon="5.82624">
        <ele>1340.22</ele>
        <time>2011-04-12T12:13:35Z</time>
      </trkpt>
      <trkpt lat="45.66299" lon="5.8263">
        <ele>1338.77</ele>
        <time>2011-04-12T12:13:40Z</time>
      </trkpt>
      <trkpt lat="45.66296" lon="5.82647">
        <ele>1337.33</ele>
        <time>2011-04-12T12:13:46Z</time>
      </trkpt>
      <trkpt lat="45.66293" lon="5.82656">
        <ele>1337.33</ele>
        <time>2011-04-12T12:13:51Z</time>
      </trkpt>
      <trkpt lat="45.66291" lon="5.82661">
        <ele>1336.37</ele>
        <time>2011-04-12T12:13:54Z</time>
      </trkpt>
      <trkpt lat="45.66288" lon="5.82664">
        <ele>1334.45</ele>
        <time>2011-04-12T12:13:59Z</time>
      </trkpt>
      <trkpt lat="45.66288" lon="5.82672">
        <ele>1332.04</ele>
        <time>2011-04-12T12:14:05Z</time>
      </trkpt>
      <trkpt lat="45.66291" lon="5.82689">
        <ele>1328.68</ele>
        <time>2011-04-12T12:14:17Z</time>
      </trkpt>
      <trkpt lat="45.6629" lon="5.82704">
        <ele>1325.8</ele>
        <time>2011-04-12T12:14:26Z</time>
      </trkpt>
      <trkpt lat="45.66293" lon="5.82718">
        <ele>1322.91</ele>
        <time>2011-04-12T12:14:37Z</time>
      </trkpt>
      <trkpt lat="45.66296" lon="5.82724">
        <ele>1320.03</ele>
        <time>2011-04-12T12:14:49Z</time>
      </trkpt>
      <trkpt lat="45.66296" lon="5.82723">
        <ele>1318.59</ele>
        <time>2011-04-12T12:14:53Z</time>
      </trkpt>
      <trkpt lat="45.66298" lon="5.82729">
        <ele>1315.22</ele>
        <time>2011-04-12T12:15:04Z</time>
      </trkpt>
      <trkpt lat="45.66305" lon="5.82744">
        <ele>1314.26</ele>
        <time>2011-04-12T12:15:14Z</time>
      </trkpt>
      <trkpt lat="45.66305" lon="5.82745">
        <ele>1313.78</ele>
        <time>2011-04-12T12:15:17Z</time>
      </trkpt>
      <trkpt lat="45.66311" lon="5.82747">
        <ele>1313.78</ele>
        <time>2011-04-12T12:15:33Z</time>
      </trkpt>
      <trkpt lat="45.66312" lon="5.82749">
        <ele>1312.82</ele>
        <time>2011-04-12T12:15:48Z</time>
      </trkpt>
      <trkpt lat="45.66312" lon="5.82752">
        <ele>1312.82</ele>
        <time>2011-04-12T12:15:50Z</time>
      </trkpt>
      <trkpt lat="45.66319" lon="5.82768">
        <ele>1310.9</ele>
        <time>2011-04-12T12:16:02Z</time>
      </trkpt>
      <trkpt lat="45.66324" lon="5.82777">
        <ele>1308.01</ele>
        <time>2011-04-12T12:16:12Z</time>
      </trkpt>
      <trkpt lat="45.66325" lon="5.82779">
        <ele>1307.53</ele>
        <time>2011-04-12T12:16:14Z</time>
      </trkpt>
      <trkpt lat="45.66332" lon="5.8279">
        <ele>1305.61</ele>
        <time>2011-04-12T12:16:25Z</time>
      </trkpt>
      <trkpt lat="45.66331" lon="5.82794">
        <ele>1303.69</ele>
        <time>2011-04-12T12:16:36Z</time>
      </trkpt>
      <trkpt lat="45.66328" lon="5.82802">
        <ele>1300.8</ele>
        <time>2011-04-12T12:16:44Z</time>
      </trkpt>
      <trkpt lat="45.66311" lon="5.82809">
        <ele>1299.84</ele>
        <time>2011-04-12T12:16:54Z</time>
      </trkpt>
      <trkpt lat="45.66306" lon="5.82806">
        <ele>1298.88</ele>
        <time>2011-04-12T12:17:00Z</time>
      </trkpt>
      <trkpt lat="45.66298" lon="5.82807">
        <ele>1295.51</ele>
        <time>2011-04-12T12:17:11Z</time>
      </trkpt>
      <trkpt lat="45.66289" lon="5.82814">
        <ele>1292.63</ele>
        <time>2011-04-12T12:17:23Z</time>
      </trkpt>
      <trkpt lat="45.66288" lon="5.82816">
        <ele>1292.15</ele>
        <time>2011-04-12T12:17:24Z</time>
      </trkpt>
      <trkpt lat="45.66284" lon="5.82823">
        <ele>1290.23</ele>
        <time>2011-04-12T12:17:30Z</time>
      </trkpt>
      <trkpt lat="45.66283" lon="5.82826">
        <ele>1289.27</ele>
        <time>2011-04-12T12:17:32Z</time>
      </trkpt>
      <trkpt lat="45.66279" lon="5.8283">
        <ele>1285.9</ele>
        <time>2011-04-12T12:17:43Z</time>
      </trkpt>
      <trkpt lat="45.66276" lon="5.82834">
        <ele>1283.02</ele>
        <time>2011-04-12T12:17:52Z</time>
      </trkpt>
      <trkpt lat="45.66274" lon="5.82843">
        <ele>1281.57</ele>
        <time>2011-04-12T12:18:01Z</time>
      </trkpt>
      <trkpt lat="45.66271" lon="5.82844">
        <ele>1280.13</ele>
        <time>2011-04-12T12:18:04Z</time>
      </trkpt>
      <trkpt lat="45.6627" lon="5.82845">
        <ele>1280.13</ele>
        <time>2011-04-12T12:18:05Z</time>
      </trkpt>
      <trkpt lat="45.66261" lon="5.82845">
        <ele>1277.73</ele>
        <time>2011-04-12T12:18:11Z</time>
      </trkpt>
      <trkpt lat="45.66252" lon="5.82837">
        <ele>1275.33</ele>
        <time>2011-04-12T12:18:23Z</time>
      </trkpt>
      <trkpt lat="45.66251" lon="5.82842">
        <ele>1273.88</ele>
        <time>2011-04-12T12:18:34Z</time>
      </trkpt>
      <trkpt lat="45.66252" lon="5.82841">
        <ele>1271.96</ele>
        <time>2011-04-12T12:18:43Z</time>
      </trkpt>
      <trkpt lat="45.66252" lon="5.8284">
        <ele>1272.44</ele>
        <time>2011-04-12T12:19:01Z</time>
      </trkpt>
      <trkpt lat="45.66252" lon="5.8284">
        <ele>1272.44</ele>
        <time>2011-04-12T12:19:02Z</time>
      </trkpt>
      <trkpt lat="45.66253" lon="5.82838">
        <ele>1272.92</ele>
        <time>2011-04-12T12:19:19Z</time>
      </trkpt>
      <trkpt lat="45.66253" lon="5.82838">
        <ele>1272.44</ele>
        <time>2011-04-12T12:19:37Z</time>
      </trkpt>
      <trkpt lat="45.66253" lon="5.82836">
        <ele>1272.44</ele>
        <time>2011-04-12T12:19:46Z</time>
      </trkpt>
      <trkpt lat="45.66255" lon="5.82838">
        <ele>1272.92</ele>
        <time>2011-04-12T12:19:49Z</time>
      </trkpt>
      <trkpt lat="45.66255" lon="5.82855">
        <ele>1271.48</ele>
        <time>2011-04-12T12:19:55Z</time>
      </trkpt>
      <trkpt lat="45.66254" lon="5.82866">
        <ele>1270.04</ele>
        <time>2011-04-12T12:20:03Z</time>
      </trkpt>
      <trkpt lat="45.66251" lon="5.82871">
        <ele>1267.16</ele>
        <time>2011-04-12T12:20:12Z</time>
      </trkpt>
      <trkpt lat="45.66248" lon="5.82887">
        <ele>1263.79</ele>
        <time>2011-04-12T12:20:27Z</time>
      </trkpt>
      <trkpt lat="45.66248" lon="5.82887">
        <ele>1262.83</ele>
        <time>2011-04-12T12:20:30Z</time>
      </trkpt>
      <trkpt lat="45.66247" lon="5.82889">
        <ele>1260.91</ele>
        <time>2011-04-12T12:20:37Z</time>
      </trkpt>
      <trkpt lat="45.6625" lon="5.82909">
        <ele>1257.54</ele>
        <time>2011-04-12T12:20:49Z</time>
      </trkpt>
      <trkpt lat="45.66248" lon="5.82911">
        <ele>1256.58</ele>
        <time>2011-04-12T12:20:52Z</time>
      </trkpt>
      <trkpt lat="45.66236" lon="5.82914">
        <ele>1253.22</ele>
        <time>2011-04-12T12:21:06Z</time>
      </trkpt>
      <trkpt lat="45.66237" lon="5.82915">
        <ele>1252.74</ele>
        <time>2011-04-12T12:21:07Z</time>
      </trkpt>
      <trkpt lat="45.66243" lon="5.82932">
        <ele>1249.85</ele>
        <time>2011-04-12T12:21:21Z</time>
      </trkpt>
      <trkpt lat="45.66241" lon="5.82931">
        <ele>1248.89</ele>
        <time>2011-04-12T12:21:25Z</time>
      </trkpt>
      <trkpt lat="45.66234" lon="5.82932">
        <ele>1246.97</ele>
        <time>2011-04-12T12:21:31Z</time>
      </trkpt>
      <trkpt lat="45.66231" lon="5.82932">
        <ele>1245.53</ele>
        <time>2011-04-12T12:21:34Z</time>
      </trkpt>
      <trkpt lat="45.66219" lon="5.82929">
        <ele>1241.68</ele>
        <time>2011-04-12T12:21:47Z</time>
      </trkpt>
      <trkpt lat="45.6622" lon="5.82931">
        <ele>1240.24</ele>
        <time>2011-04-12T12:21:50Z</time>
      </trkpt>
      <trkpt lat="45.66229" lon="5.82947">
        <ele>1236.87</ele>
        <time>2011-04-12T12:22:05Z</time>
      </trkpt>
      <trkpt lat="45.6623" lon="5.82951">
        <ele>1234.47</ele>
        <time>2011-04-12T12:22:16Z</time>
      </trkpt>
      <trkpt lat="45.66226" lon="5.82948">
        <ele>1233.03</ele>
        <time>2011-04-12T12:22:20Z</time>
      </trkpt>
      <trkpt lat="45.66216" lon="5.82943">
        <ele>1230.14</ele>
        <time>2011-04-12T12:22:34Z</time>
      </trkpt>
      <trkpt lat="45.66216" lon="5.82943">
        <ele>1228.7</ele>
        <time>2011-04-12T12:22:36Z</time>
      </trkpt>
      <trkpt lat="45.66216" lon="5.82946">
        <ele>1227.26</ele>
        <time>2011-04-12T12:22:42Z</time>
      </trkpt>
      <trkpt lat="45.66218" lon="5.82955">
        <ele>1226.3</ele>
        <time>2011-04-12T12:22:48Z</time>
      </trkpt>
      <trkpt lat="45.66226" lon="5.82966">
        <ele>1224.86</ele>
        <time>2011-04-12T12:22:57Z</time>
      </trkpt>
      <trkpt lat="45.66227" lon="5.82972">
        <ele>1222.93</ele>
        <time>2011-04-12T12:23:06Z</time>
      </trkpt>
      <trkpt lat="45.66225" lon="5.82971">
        <ele>1222.45</ele>
        <time>2011-04-12T12:23:08Z</time>
      </trkpt>
      <trkpt lat="45.66211" lon="5.82967">
        <ele>1219.09</ele>
        <time>2011-04-12T12:23:19Z</time>
      </trkpt>
      <trkpt lat="45.66206" lon="5.82968">
        <ele>1218.61</ele>
        <time>2011-04-12T12:23:22Z</time>
      </trkpt>
      <trkpt lat="45.66205" lon="5.8297">
        <ele>1217.17</ele>
        <time>2011-04-12T12:23:24Z</time>
      </trkpt>
      <trkpt lat="45.66204" lon="5.82978">
        <ele>1216.69</ele>
        <time>2011-04-12T12:23:29Z</time>
      </trkpt>
      <trkpt lat="45.66212" lon="5.8299">
        <ele>1214.76</ele>
        <time>2011-04-12T12:23:39Z</time>
      </trkpt>
      <trkpt lat="45.66215" lon="5.82994">
        <ele>1213.32</ele>
        <time>2011-04-12T12:23:42Z</time>
      </trkpt>
      <trkpt lat="45.66217" lon="5.83">
        <ele>1212.36</ele>
        <time>2011-04-12T12:23:47Z</time>
      </trkpt>
      <trkpt lat="45.6622" lon="5.83008">
        <ele>1209.48</ele>
        <time>2011-04-12T12:23:58Z</time>
      </trkpt>
      <trkpt lat="45.66218" lon="5.83008">
        <ele>1208.03</ele>
        <time>2011-04-12T12:24:02Z</time>
      </trkpt>
      <trkpt lat="45.6621" lon="5.8301">
        <ele>1206.11</ele>
        <time>2011-04-12T12:24:08Z</time>
      </trkpt>
      <trkpt lat="45.66208" lon="5.83011">
        <ele>1205.15</ele>
        <time>2011-04-12T12:24:14Z</time>
      </trkpt>
      <trkpt lat="45.66208" lon="5.83013">
        <ele>1205.63</ele>
        <time>2011-04-12T12:24:19Z</time>
      </trkpt>
      <trkpt lat="45.66216" lon="5.8302">
        <ele>1201.79</ele>
        <time>2011-04-12T12:24:31Z</time>
      </trkpt>
      <trkpt lat="45.66214" lon="5.83021">
        <ele>1201.3</ele>
        <time>2011-04-12T12:24:36Z</time>
      </trkpt>
      <trkpt lat="45.66204" lon="5.83021">
        <ele>1199.86</ele>
        <time>2011-04-12T12:24:51Z</time>
      </trkpt>
      <trkpt lat="45.66199" lon="5.83014">
        <ele>1197.94</ele>
        <time>2011-04-12T12:25:04Z</time>
      </trkpt>
      <trkpt lat="45.66191" lon="5.83014">
        <ele>1194.58</ele>
        <time>2011-04-12T12:25:13Z</time>
      </trkpt>
      <trkpt lat="45.66185" lon="5.83012">
        <ele>1193.61</ele>
        <time>2011-04-12T12:25:19Z</time>
      </trkpt>
      <trkpt lat="45.66181" lon="5.83013">
        <ele>1192.65</ele>
        <time>2011-04-12T12:25:23Z</time>
      </trkpt>
      <trkpt lat="45.6618" lon="5.83018">
        <ele>1191.21</ele>
        <time>2011-04-12T12:25:27Z</time>
      </trkpt>
      <trkpt lat="45.66183" lon="5.83028">
        <ele>1189.77</ele>
        <time>2011-04-12T12:25:34Z</time>
      </trkpt>
      <trkpt lat="45.6619" lon="5.83041">
        <ele>1186.4</ele>
        <time>2011-04-12T12:25:46Z</time>
      </trkpt>
      <trkpt lat="45.66183" lon="5.83042">
        <ele>1184</ele>
        <time>2011-04-12T12:25:57Z</time>
      </trkpt>
      <trkpt lat="45.6618" lon="5.83042">
        <ele>1183.04</ele>
        <time>2011-04-12T12:25:59Z</time>
      </trkpt>
      <trkpt lat="45.66167" lon="5.8304">
        <ele>1180.16</ele>
        <time>2011-04-12T12:26:10Z</time>
      </trkpt>
      <trkpt lat="45.66159" lon="5.83041">
        <ele>1177.75</ele>
        <time>2011-04-12T12:26:15Z</time>
      </trkpt>
      <trkpt lat="45.66159" lon="5.8305">
        <ele>1177.27</ele>
        <time>2011-04-12T12:26:19Z</time>
      </trkpt>
      <trkpt lat="45.66169" lon="5.83067">
        <ele>1173.43</ele>
        <time>2011-04-12T12:26:29Z</time>
      </trkpt>
      <trkpt lat="45.66171" lon="5.83068">
        <ele>1173.91</ele>
        <time>2011-04-12T12:26:30Z</time>
      </trkpt>
      <trkpt lat="45.66176" lon="5.83076">
        <ele>1170.54</ele>
        <time>2011-04-12T12:26:41Z</time>
      </trkpt>
      <trkpt lat="45.66175" lon="5.83076">
        <ele>1170.06</ele>
        <time>2011-04-12T12:26:42Z</time>
      </trkpt>
      <trkpt lat="45.66167" lon="5.83073">
        <ele>1168.62</ele>
        <time>2011-04-12T12:26:49Z</time>
      </trkpt>
      <trkpt lat="45.66163" lon="5.83073">
        <ele>1167.18</ele>
        <time>2011-04-12T12:26:53Z</time>
      </trkpt>
      <trkpt lat="45.66161" lon="5.83074">
        <ele>1166.7</ele>
        <time>2011-04-12T12:26:55Z</time>
      </trkpt>
      <trkpt lat="45.6616" lon="5.83084">
        <ele>1163.33</ele>
        <time>2011-04-12T12:27:04Z</time>
      </trkpt>
      <trkpt lat="45.66149" lon="5.8308">
        <ele>1159.97</ele>
        <time>2011-04-12T12:27:16Z</time>
      </trkpt>
      <trkpt lat="45.66145" lon="5.83079">
        <ele>1157.08</ele>
        <time>2011-04-12T12:27:26Z</time>
      </trkpt>
      <trkpt lat="45.66147" lon="5.83089">
        <ele>1155.64</ele>
        <time>2011-04-12T12:27:30Z</time>
      </trkpt>
      <trkpt lat="45.66154" lon="5.83107">
        <ele>1151.8</ele>
        <time>2011-04-12T12:27:43Z</time>
      </trkpt>
      <trkpt lat="45.66154" lon="5.83107">
        <ele>1151.8</ele>
        <time>2011-04-12T12:27:44Z</time>
      </trkpt>
      <trkpt lat="45.66154" lon="5.83107">
        <ele>1150.35</ele>
        <time>2011-04-12T12:27:47Z</time>
      </trkpt>
      <trkpt lat="45.66147" lon="5.8311">
        <ele>1148.43</ele>
        <time>2011-04-12T12:27:52Z</time>
      </trkpt>
      <trkpt lat="45.66139" lon="5.83111">
        <ele>1145.55</ele>
        <time>2011-04-12T12:27:59Z</time>
      </trkpt>
      <trkpt lat="45.66136" lon="5.83112">
        <ele>1145.07</ele>
        <time>2011-04-12T12:28:01Z</time>
      </trkpt>
      <trkpt lat="45.66131" lon="5.83115">
        <ele>1143.63</ele>
        <time>2011-04-12T12:28:06Z</time>
      </trkpt>
      <trkpt lat="45.66127" lon="5.83121">
        <ele>1140.26</ele>
        <time>2011-04-12T12:28:16Z</time>
      </trkpt>
      <trkpt lat="45.66128" lon="5.83123">
        <ele>1138.82</ele>
        <time>2011-04-12T12:28:25Z</time>
      </trkpt>
      <trkpt lat="45.6614" lon="5.83143">
        <ele>1135.45</ele>
        <time>2011-04-12T12:28:40Z</time>
      </trkpt>
      <trkpt lat="45.66141" lon="5.83146">
        <ele>1131.61</ele>
        <time>2011-04-12T12:28:53Z</time>
      </trkpt>
      <trkpt lat="45.6614" lon="5.83146">
        <ele>1131.61</ele>
        <time>2011-04-12T12:28:54Z</time>
      </trkpt>
      <trkpt lat="45.66139" lon="5.83146">
        <ele>1131.13</ele>
        <time>2011-04-12T12:28:55Z</time>
      </trkpt>
      <trkpt lat="45.66139" lon="5.83149">
        <ele>1130.65</ele>
        <time>2011-04-12T12:29:04Z</time>
      </trkpt>
      <trkpt lat="45.6614" lon="5.83151">
        <ele>1129.21</ele>
        <time>2011-04-12T12:29:07Z</time>
      </trkpt>
      <trkpt lat="45.6614" lon="5.83151">
        <ele>1129.69</ele>
        <time>2011-04-12T12:29:29Z</time>
      </trkpt>
      <trkpt lat="45.6614" lon="5.83151">
        <ele>1129.69</ele>
        <time>2011-04-12T12:29:51Z</time>
      </trkpt>
      <trkpt lat="45.66139" lon="5.83152">
        <ele>1130.65</ele>
        <time>2011-04-12T12:30:03Z</time>
      </trkpt>
      <trkpt lat="45.66141" lon="5.83156">
        <ele>1130.17</ele>
        <time>2011-04-12T12:30:17Z</time>
      </trkpt>
      <trkpt lat="45.66153" lon="5.83167">
        <ele>1130.17</ele>
        <time>2011-04-12T12:30:31Z</time>
      </trkpt>
      <trkpt lat="45.66154" lon="5.83167">
        <ele>1130.65</ele>
        <time>2011-04-12T12:30:50Z</time>
      </trkpt>
      <trkpt lat="45.66153" lon="5.83167">
        <ele>1129.69</ele>
        <time>2011-04-12T12:31:01Z</time>
      </trkpt>
      <trkpt lat="45.66149" lon="5.83166">
        <ele>1129.69</ele>
        <time>2011-04-12T12:31:04Z</time>
      </trkpt>
      <trkpt lat="45.66148" lon="5.83165">
        <ele>1130.65</ele>
        <time>2011-04-12T12:31:06Z</time>
      </trkpt>
      <trkpt lat="45.66145" lon="5.83163">
        <ele>1132.09</ele>
        <time>2011-04-12T12:31:10Z</time>
      </trkpt>
      <trkpt lat="45.66137" lon="5.83158">
        <ele>1130.65</ele>
        <time>2011-04-12T12:31:21Z</time>
      </trkpt>
      <trkpt lat="45.66137" lon="5.83158">
        <ele>1130.65</ele>
        <time>2011-04-12T12:31:39Z</time>
      </trkpt>
      <trkpt lat="45.66137" lon="5.83158">
        <ele>1130.65</ele>
        <time>2011-04-12T12:31:57Z</time>
      </trkpt>
      <trkpt lat="45.66137" lon="5.83158">
        <ele>1130.17</ele>
        <time>2011-04-12T12:32:19Z</time>
      </trkpt>
      <trkpt lat="45.66137" lon="5.83158">
        <ele>1130.17</ele>
        <time>2011-04-12T12:32:40Z</time>
      </trkpt>
      <trkpt lat="45.66137" lon="5.83158">
        <ele>1130.17</ele>
        <time>2011-04-12T12:33:00Z</time>
      </trkpt>
      <trkpt lat="45.66137" lon="5.83158">
        <ele>1130.17</ele>
        <time>2011-04-12T12:33:16Z</time>
      </trkpt>
      <trkpt lat="45.66137" lon="5.83158">
        <ele>1130.17</ele>
        <time>2011-04-12T12:33:34Z</time>
      </trkpt>
      <trkpt lat="45.66137" lon="5.83158">
        <ele>1130.65</ele>
        <time>2011-04-12T12:33:56Z</time>
      </trkpt>
      <trkpt lat="45.66137" lon="5.83159">
        <ele>1131.13</ele>
        <time>2011-04-12T12:34:14Z</time>
      </trkpt>
      <trkpt lat="45.66137" lon="5.83159">
        <ele>1131.13</ele>
        <time>2011-04-12T12:34:36Z</time>
      </trkpt>
      <trkpt lat="45.66137" lon="5.83159">
        <ele>1131.13</ele>
        <time>2011-04-12T12:34:55Z</time>
      </trkpt>
      <trkpt lat="45.66137" lon="5.83159">
        <ele>1130.65</ele>
        <time>2011-04-12T12:35:14Z</time>
      </trkpt>
      <trkpt lat="45.66137" lon="5.83158">
        <ele>1131.13</ele>
        <time>2011-04-12T12:35:32Z</time>
      </trkpt>
      <trkpt lat="45.66137" lon="5.83158">
        <ele>1131.13</ele>
        <time>2011-04-12T12:35:53Z</time>
      </trkpt>
      <trkpt lat="45.66135" lon="5.8316">
        <ele>1130.65</ele>
        <time>2011-04-12T12:35:59Z</time>
      </trkpt>
      <trkpt lat="45.66129" lon="5.83163">
        <ele>1127.76</ele>
        <time>2011-04-12T12:36:11Z</time>
      </trkpt>
      <trkpt lat="45.66121" lon="5.83164">
        <ele>1124.4</ele>
        <time>2011-04-12T12:36:20Z</time>
      </trkpt>
      <trkpt lat="45.6611" lon="5.83161">
        <ele>1121.52</ele>
        <time>2011-04-12T12:36:33Z</time>
      </trkpt>
      <trkpt lat="45.66104" lon="5.83161">
        <ele>1118.63</ele>
        <time>2011-04-12T12:36:41Z</time>
      </trkpt>
      <trkpt lat="45.66098" lon="5.83161">
        <ele>1115.75</ele>
        <time>2011-04-12T12:36:54Z</time>
      </trkpt>
      <trkpt lat="45.66113" lon="5.8318">
        <ele>1113.82</ele>
        <time>2011-04-12T12:37:06Z</time>
      </trkpt>
      <trkpt lat="45.66129" lon="5.832">
        <ele>1110.94</ele>
        <time>2011-04-12T12:37:18Z</time>
      </trkpt>
      <trkpt lat="45.66131" lon="5.83212">
        <ele>1108.06</ele>
        <time>2011-04-12T12:37:28Z</time>
      </trkpt>
      <trkpt lat="45.66131" lon="5.83215">
        <ele>1107.1</ele>
        <time>2011-04-12T12:37:30Z</time>
      </trkpt>
      <trkpt lat="45.66138" lon="5.83217">
        <ele>1106.13</ele>
        <time>2011-04-12T12:37:35Z</time>
      </trkpt>
      <trkpt lat="45.66149" lon="5.83219">
        <ele>1103.25</ele>
        <time>2011-04-12T12:37:43Z</time>
      </trkpt>
      <trkpt lat="45.66161" lon="5.83214">
        <ele>1100.37</ele>
        <time>2011-04-12T12:37:52Z</time>
      </trkpt>
      <trkpt lat="45.66174" lon="5.8321">
        <ele>1097</ele>
        <time>2011-04-12T12:38:02Z</time>
      </trkpt>
      <trkpt lat="45.66191" lon="5.8321">
        <ele>1093.64</ele>
        <time>2011-04-12T12:38:13Z</time>
      </trkpt>
      <trkpt lat="45.66198" lon="5.83211">
        <ele>1091.71</ele>
        <time>2011-04-12T12:38:18Z</time>
      </trkpt>
      <trkpt lat="45.66206" lon="5.83214">
        <ele>1090.27</ele>
        <time>2011-04-12T12:38:25Z</time>
      </trkpt>
      <trkpt lat="45.66207" lon="5.83216">
        <ele>1089.79</ele>
        <time>2011-04-12T12:38:27Z</time>
      </trkpt>
      <trkpt lat="45.66212" lon="5.83221">
        <ele>1087.87</ele>
        <time>2011-04-12T12:38:32Z</time>
      </trkpt>
      <trkpt lat="45.66219" lon="5.83226">
        <ele>1087.39</ele>
        <time>2011-04-12T12:38:38Z</time>
      </trkpt>
      <trkpt lat="45.66236" lon="5.83235">
        <ele>1084.5</ele>
        <time>2011-04-12T12:38:51Z</time>
      </trkpt>
      <trkpt lat="45.66237" lon="5.83235">
        <ele>1083.54</ele>
        <time>2011-04-12T12:38:52Z</time>
      </trkpt>
      <trkpt lat="45.6625" lon="5.83244">
        <ele>1082.1</ele>
        <time>2011-04-12T12:39:03Z</time>
      </trkpt>
      <trkpt lat="45.66252" lon="5.83249">
        <ele>1081.14</ele>
        <time>2011-04-12T12:39:07Z</time>
      </trkpt>
      <trkpt lat="45.66254" lon="5.83256">
        <ele>1078.26</ele>
        <time>2011-04-12T12:39:19Z</time>
      </trkpt>
      <trkpt lat="45.66245" lon="5.83262">
        <ele>1074.89</ele>
        <time>2011-04-12T12:39:28Z</time>
      </trkpt>
      <trkpt lat="45.66239" lon="5.83262">
        <ele>1074.41</ele>
        <time>2011-04-12T12:39:33Z</time>
      </trkpt>
      <trkpt lat="45.66231" lon="5.83264">
        <ele>1072.49</ele>
        <time>2011-04-12T12:39:39Z</time>
      </trkpt>
      <trkpt lat="45.6622" lon="5.83268">
        <ele>1070.57</ele>
        <time>2011-04-12T12:39:46Z</time>
      </trkpt>
      <trkpt lat="45.66219" lon="5.83273">
        <ele>1070.08</ele>
        <time>2011-04-12T12:39:50Z</time>
      </trkpt>
      <trkpt lat="45.6622" lon="5.83277">
        <ele>1068.64</ele>
        <time>2011-04-12T12:39:53Z</time>
      </trkpt>
      <trkpt lat="45.66229" lon="5.83288">
        <ele>1065.28</ele>
        <time>2011-04-12T12:40:02Z</time>
      </trkpt>
      <trkpt lat="45.66232" lon="5.83291">
        <ele>1063.84</ele>
        <time>2011-04-12T12:40:07Z</time>
      </trkpt>
      <trkpt lat="45.6624" lon="5.83297">
        <ele>1062.39</ele>
        <time>2011-04-12T12:40:18Z</time>
      </trkpt>
      <trkpt lat="45.6624" lon="5.83297">
        <ele>1062.39</ele>
        <time>2011-04-12T12:40:34Z</time>
      </trkpt>
      <trkpt lat="45.6624" lon="5.83297">
        <ele>1062.87</ele>
        <time>2011-04-12T12:40:50Z</time>
      </trkpt>
      <trkpt lat="45.66241" lon="5.83298">
        <ele>1062.39</ele>
        <time>2011-04-12T12:41:09Z</time>
      </trkpt>
      <trkpt lat="45.66241" lon="5.83298">
        <ele>1062.39</ele>
        <time>2011-04-12T12:41:28Z</time>
      </trkpt>
      <trkpt lat="45.66241" lon="5.83297">
        <ele>1062.39</ele>
        <time>2011-04-12T12:41:43Z</time>
      </trkpt>
      <trkpt lat="45.66238" lon="5.833">
        <ele>1060.95</ele>
        <time>2011-04-12T12:41:53Z</time>
      </trkpt>
      <trkpt lat="45.66235" lon="5.833">
        <ele>1059.99</ele>
        <time>2011-04-12T12:41:55Z</time>
      </trkpt>
      <trkpt lat="45.66227" lon="5.83301">
        <ele>1059.03</ele>
        <time>2011-04-12T12:42:00Z</time>
      </trkpt>
      <trkpt lat="45.66215" lon="5.83302">
        <ele>1057.11</ele>
        <time>2011-04-12T12:42:10Z</time>
      </trkpt>
      <trkpt lat="45.66202" lon="5.83302">
        <ele>1055.18</ele>
        <time>2011-04-12T12:42:23Z</time>
      </trkpt>
      <trkpt lat="45.662" lon="5.83302">
        <ele>1053.74</ele>
        <time>2011-04-12T12:42:26Z</time>
      </trkpt>
      <trkpt lat="45.6619" lon="5.83304">
        <ele>1053.26</ele>
        <time>2011-04-12T12:42:33Z</time>
      </trkpt>
      <trkpt lat="45.66177" lon="5.83307">
        <ele>1050.86</ele>
        <time>2011-04-12T12:42:45Z</time>
      </trkpt>
      <trkpt lat="45.66172" lon="5.83306">
        <ele>1051.34</ele>
        <time>2011-04-12T12:42:49Z</time>
      </trkpt>
      <trkpt lat="45.66167" lon="5.83309">
        <ele>1050.38</ele>
        <time>2011-04-12T12:42:55Z</time>
      </trkpt>
      <trkpt lat="45.66161" lon="5.83308">
        <ele>1048.94</ele>
        <time>2011-04-12T12:43:08Z</time>
      </trkpt>
      <trkpt lat="45.66159" lon="5.83308">
        <ele>1048.45</ele>
        <time>2011-04-12T12:43:19Z</time>
      </trkpt>
      <trkpt lat="45.6615" lon="5.83308">
        <ele>1045.09</ele>
        <time>2011-04-12T12:43:30Z</time>
      </trkpt>
      <trkpt lat="45.66149" lon="5.83308">
        <ele>1045.09</ele>
        <time>2011-04-12T12:43:31Z</time>
      </trkpt>
      <trkpt lat="45.66139" lon="5.83307">
        <ele>1044.61</ele>
        <time>2011-04-12T12:43:40Z</time>
      </trkpt>
      <trkpt lat="45.66115" lon="5.83324">
        <ele>1043.17</ele>
        <time>2011-04-12T12:43:50Z</time>
      </trkpt>
      <trkpt lat="45.66098" lon="5.83333">
        <ele>1041.25</ele>
        <time>2011-04-12T12:44:02Z</time>
      </trkpt>
      <trkpt lat="45.66097" lon="5.83333">
        <ele>1040.76</ele>
        <time>2011-04-12T12:44:03Z</time>
      </trkpt>
      <trkpt lat="45.66082" lon="5.83325">
        <ele>1038.84</ele>
        <time>2011-04-12T12:44:16Z</time>
      </trkpt>
      <trkpt lat="45.66068" lon="5.83313">
        <ele>1038.36</ele>
        <time>2011-04-12T12:44:28Z</time>
      </trkpt>
      <trkpt lat="45.66061" lon="5.83312">
        <ele>1036.92</ele>
        <time>2011-04-12T12:44:35Z</time>
      </trkpt>
      <trkpt lat="45.66043" lon="5.83305">
        <ele>1034.52</ele>
        <time>2011-04-12T12:44:48Z</time>
      </trkpt>
      <trkpt lat="45.66036" lon="5.83305">
        <ele>1033.55</ele>
        <time>2011-04-12T12:44:58Z</time>
      </trkpt>
      <trkpt lat="45.66024" lon="5.83306">
        <ele>1033.07</ele>
        <time>2011-04-12T12:45:08Z</time>
      </trkpt>
      <trkpt lat="45.66008" lon="5.83294">
        <ele>1031.15</ele>
        <time>2011-04-12T12:45:20Z</time>
      </trkpt>
      <trkpt lat="45.65991" lon="5.83281">
        <ele>1029.23</ele>
        <time>2011-04-12T12:45:34Z</time>
      </trkpt>
      <trkpt lat="45.65981" lon="5.83277">
        <ele>1028.75</ele>
        <time>2011-04-12T12:45:41Z</time>
      </trkpt>
      <trkpt lat="45.65963" lon="5.83269">
        <ele>1026.34</ele>
        <time>2011-04-12T12:45:54Z</time>
      </trkpt>
      <trkpt lat="45.65961" lon="5.83268">
        <ele>1025.86</ele>
        <time>2011-04-12T12:45:56Z</time>
      </trkpt>
      <trkpt lat="45.65945" lon="5.83266">
        <ele>1023.46</ele>
        <time>2011-04-12T12:46:10Z</time>
      </trkpt>
      <trkpt lat="45.65942" lon="5.83268">
        <ele>1022.98</ele>
        <time>2011-04-12T12:46:13Z</time>
      </trkpt>
      <trkpt lat="45.65938" lon="5.8327">
        <ele>1022.98</ele>
        <time>2011-04-12T12:46:17Z</time>
      </trkpt>
      <trkpt lat="45.65936" lon="5.8327">
        <ele>1022.5</ele>
        <time>2011-04-12T12:46:19Z</time>
      </trkpt>
      <trkpt lat="45.65923" lon="5.83254">
        <ele>1019.13</ele>
        <time>2011-04-12T12:46:33Z</time>
      </trkpt>
      <trkpt lat="45.65914" lon="5.83244">
        <ele>1018.65</ele>
        <time>2011-04-12T12:46:42Z</time>
      </trkpt>
      <trkpt lat="45.65897" lon="5.8324">
        <ele>1016.25</ele>
        <time>2011-04-12T12:46:55Z</time>
      </trkpt>
      <trkpt lat="45.65889" lon="5.83238">
        <ele>1015.77</ele>
        <time>2011-04-12T12:47:01Z</time>
      </trkpt>
      <trkpt lat="45.65873" lon="5.83234">
        <ele>1013.85</ele>
        <time>2011-04-12T12:47:13Z</time>
      </trkpt>
      <trkpt lat="45.65871" lon="5.83234">
        <ele>1013.85</ele>
        <time>2011-04-12T12:47:14Z</time>
      </trkpt>
      <trkpt lat="45.65856" lon="5.83236">
        <ele>1012.89</ele>
        <time>2011-04-12T12:47:25Z</time>
      </trkpt>
      <trkpt lat="45.65842" lon="5.83245">
        <ele>1011.44</ele>
        <time>2011-04-12T12:47:36Z</time>
      </trkpt>
      <trkpt lat="45.65827" lon="5.83242">
        <ele>1009.52</ele>
        <time>2011-04-12T12:47:49Z</time>
      </trkpt>
      <trkpt lat="45.65814" lon="5.83233">
        <ele>1007.6</ele>
        <time>2011-04-12T12:48:00Z</time>
      </trkpt>
      <trkpt lat="45.65813" lon="5.83232">
        <ele>1007.12</ele>
        <time>2011-04-12T12:48:01Z</time>
      </trkpt>
      <trkpt lat="45.65799" lon="5.83226">
        <ele>1005.68</ele>
        <time>2011-04-12T12:48:13Z</time>
      </trkpt>
      <trkpt lat="45.65795" lon="5.83226">
        <ele>1004.23</ele>
        <time>2011-04-12T12:48:17Z</time>
      </trkpt>
      <trkpt lat="45.65781" lon="5.83218">
        <ele>1001.83</ele>
        <time>2011-04-12T12:48:29Z</time>
      </trkpt>
      <trkpt lat="45.65773" lon="5.83219">
        <ele>1001.83</ele>
        <time>2011-04-12T12:48:35Z</time>
      </trkpt>
      <trkpt lat="45.65775" lon="5.83227">
        <ele>998.95</ele>
        <time>2011-04-12T12:48:47Z</time>
      </trkpt>
      <trkpt lat="45.65779" lon="5.83231">
        <ele>996.06</ele>
        <time>2011-04-12T12:48:57Z</time>
      </trkpt>
      <trkpt lat="45.6578" lon="5.83232">
        <ele>996.54</ele>
        <time>2011-04-12T12:48:58Z</time>
      </trkpt>
      <trkpt lat="45.6578" lon="5.83234">
        <ele>996.06</ele>
        <time>2011-04-12T12:49:00Z</time>
      </trkpt>
      <trkpt lat="45.65774" lon="5.83234">
        <ele>994.62</ele>
        <time>2011-04-12T12:49:05Z</time>
      </trkpt>
      <trkpt lat="45.65765" lon="5.83231">
        <ele>993.18</ele>
        <time>2011-04-12T12:49:15Z</time>
      </trkpt>
      <trkpt lat="45.65761" lon="5.83234">
        <ele>993.66</ele>
        <time>2011-04-12T12:49:28Z</time>
      </trkpt>
      <trkpt lat="45.6576" lon="5.83236">
        <ele>989.81</ele>
        <time>2011-04-12T12:49:36Z</time>
      </trkpt>
      <trkpt lat="45.6576" lon="5.83236">
        <ele>989.81</ele>
        <time>2011-04-12T12:49:37Z</time>
      </trkpt>
      <trkpt lat="45.6576" lon="5.83236">
        <ele>992.7</ele>
        <time>2011-04-12T12:49:40Z</time>
      </trkpt>
      <trkpt lat="45.6576" lon="5.83236">
        <ele>992.7</ele>
        <time>2011-04-12T12:49:41Z</time>
      </trkpt>
      <trkpt lat="45.6576" lon="5.83236">
        <ele>992.22</ele>
        <time>2011-04-12T12:50:00Z</time>
      </trkpt>
      <trkpt lat="45.65761" lon="5.83236">
        <ele>992.22</ele>
        <time>2011-04-12T12:50:19Z</time>
      </trkpt>
      <trkpt lat="45.65761" lon="5.83236">
        <ele>992.7</ele>
        <time>2011-04-12T12:50:34Z</time>
      </trkpt>
      <trkpt lat="45.65761" lon="5.83236">
        <ele>993.18</ele>
        <time>2011-04-12T12:50:50Z</time>
      </trkpt>
      <trkpt lat="45.65769" lon="5.83242">
        <ele>991.74</ele>
        <time>2011-04-12T12:51:02Z</time>
      </trkpt>
      <trkpt lat="45.65772" lon="5.83244">
        <ele>991.26</ele>
        <time>2011-04-12T12:51:05Z</time>
      </trkpt>
      <trkpt lat="45.65786" lon="5.83259">
        <ele>990.3</ele>
        <time>2011-04-12T12:51:19Z</time>
      </trkpt>
      <trkpt lat="45.65802" lon="5.83272">
        <ele>988.37</ele>
        <time>2011-04-12T12:51:31Z</time>
      </trkpt>
      <trkpt lat="45.65815" lon="5.83287">
        <ele>986.93</ele>
        <time>2011-04-12T12:51:45Z</time>
      </trkpt>
      <trkpt lat="45.65827" lon="5.83297">
        <ele>985.97</ele>
        <time>2011-04-12T12:51:56Z</time>
      </trkpt>
      <trkpt lat="45.65829" lon="5.83298">
        <ele>985.97</ele>
        <time>2011-04-12T12:51:58Z</time>
      </trkpt>
      <trkpt lat="45.65842" lon="5.83304">
        <ele>985.01</ele>
        <time>2011-04-12T12:52:10Z</time>
      </trkpt>
      <trkpt lat="45.65855" lon="5.83312">
        <ele>983.57</ele>
        <time>2011-04-12T12:52:22Z</time>
      </trkpt>
      <trkpt lat="45.65867" lon="5.83321">
        <ele>980.2</ele>
        <time>2011-04-12T12:52:33Z</time>
      </trkpt>
      <trkpt lat="45.6588" lon="5.83329">
        <ele>978.76</ele>
        <time>2011-04-12T12:52:44Z</time>
      </trkpt>
      <trkpt lat="45.65891" lon="5.83346">
        <ele>977.32</ele>
        <time>2011-04-12T12:52:55Z</time>
      </trkpt>
      <trkpt lat="45.659" lon="5.83368">
        <ele>975.88</ele>
        <time>2011-04-12T12:53:07Z</time>
      </trkpt>
      <trkpt lat="45.65912" lon="5.83381">
        <ele>974.43</ele>
        <time>2011-04-12T12:53:19Z</time>
      </trkpt>
      <trkpt lat="45.65916" lon="5.83386">
        <ele>973.47</ele>
        <time>2011-04-12T12:53:24Z</time>
      </trkpt>
      <trkpt lat="45.65931" lon="5.83389">
        <ele>972.51</ele>
        <time>2011-04-12T12:53:35Z</time>
      </trkpt>
      <trkpt lat="45.65945" lon="5.83396">
        <ele>970.59</ele>
        <time>2011-04-12T12:53:48Z</time>
      </trkpt>
      <trkpt lat="45.65956" lon="5.83406">
        <ele>970.11</ele>
        <time>2011-04-12T12:53:57Z</time>
      </trkpt>
      <trkpt lat="45.65966" lon="5.83416">
        <ele>968.67</ele>
        <time>2011-04-12T12:54:03Z</time>
      </trkpt>
      <trkpt lat="45.6597" lon="5.83422">
        <ele>968.18</ele>
        <time>2011-04-12T12:54:07Z</time>
      </trkpt>
      <trkpt lat="45.65979" lon="5.83444">
        <ele>965.78</ele>
        <time>2011-04-12T12:54:21Z</time>
      </trkpt>
      <trkpt lat="45.65989" lon="5.83458">
        <ele>964.34</ele>
        <time>2011-04-12T12:54:32Z</time>
      </trkpt>
      <trkpt lat="45.66003" lon="5.83465">
        <ele>963.86</ele>
        <time>2011-04-12T12:54:44Z</time>
      </trkpt>
      <trkpt lat="45.66017" lon="5.83474">
        <ele>961.94</ele>
        <time>2011-04-12T12:54:56Z</time>
      </trkpt>
      <trkpt lat="45.66031" lon="5.83482">
        <ele>959.05</ele>
        <time>2011-04-12T12:55:09Z</time>
      </trkpt>
      <trkpt lat="45.6605" lon="5.83493">
        <ele>957.13</ele>
        <time>2011-04-12T12:55:24Z</time>
      </trkpt>
      <trkpt lat="45.66067" lon="5.83496">
        <ele>955.69</ele>
        <time>2011-04-12T12:55:37Z</time>
      </trkpt>
      <trkpt lat="45.66084" lon="5.83499">
        <ele>953.28</ele>
        <time>2011-04-12T12:55:48Z</time>
      </trkpt>
      <trkpt lat="45.661" lon="5.83511">
        <ele>951.84</ele>
        <time>2011-04-12T12:56:01Z</time>
      </trkpt>
      <trkpt lat="45.66107" lon="5.83528">
        <ele>949.92</ele>
        <time>2011-04-12T12:56:12Z</time>
      </trkpt>
      <trkpt lat="45.66114" lon="5.8354">
        <ele>948.48</ele>
        <time>2011-04-12T12:56:19Z</time>
      </trkpt>
      <trkpt lat="45.66123" lon="5.83561">
        <ele>946.56</ele>
        <time>2011-04-12T12:56:32Z</time>
      </trkpt>
      <trkpt lat="45.66129" lon="5.83578">
        <ele>945.59</ele>
        <time>2011-04-12T12:56:41Z</time>
      </trkpt>
      <trkpt lat="45.66132" lon="5.83583">
        <ele>945.11</ele>
        <time>2011-04-12T12:56:45Z</time>
      </trkpt>
      <trkpt lat="45.66134" lon="5.83587">
        <ele>945.11</ele>
        <time>2011-04-12T12:56:47Z</time>
      </trkpt>
      <trkpt lat="45.66151" lon="5.83597">
        <ele>944.15</ele>
        <time>2011-04-12T12:57:00Z</time>
      </trkpt>
      <trkpt lat="45.66161" lon="5.83602">
        <ele>942.71</ele>
        <time>2011-04-12T12:57:08Z</time>
      </trkpt>
      <trkpt lat="45.66179" lon="5.83611">
        <ele>939.35</ele>
        <time>2011-04-12T12:57:21Z</time>
      </trkpt>
      <trkpt lat="45.66193" lon="5.83618">
        <ele>937.9</ele>
        <time>2011-04-12T12:57:32Z</time>
      </trkpt>
      <trkpt lat="45.66208" lon="5.8363">
        <ele>936.46</ele>
        <time>2011-04-12T12:57:45Z</time>
      </trkpt>
      <trkpt lat="45.66225" lon="5.83642">
        <ele>935.02</ele>
        <time>2011-04-12T12:57:59Z</time>
      </trkpt>
      <trkpt lat="45.66242" lon="5.83653">
        <ele>932.62</ele>
        <time>2011-04-12T12:58:11Z</time>
      </trkpt>
      <trkpt lat="45.66258" lon="5.83664">
        <ele>931.17</ele>
        <time>2011-04-12T12:58:23Z</time>
      </trkpt>
      <trkpt lat="45.66262" lon="5.83676">
        <ele>930.69</ele>
        <time>2011-04-12T12:58:31Z</time>
      </trkpt>
      <trkpt lat="45.66262" lon="5.83682">
        <ele>930.21</ele>
        <time>2011-04-12T12:58:35Z</time>
      </trkpt>
      <trkpt lat="45.66261" lon="5.83685">
        <ele>929.73</ele>
        <time>2011-04-12T12:58:37Z</time>
      </trkpt>
      <trkpt lat="45.66258" lon="5.83689">
        <ele>929.25</ele>
        <time>2011-04-12T12:58:40Z</time>
      </trkpt>
      <trkpt lat="45.66241" lon="5.83696">
        <ele>927.33</ele>
        <time>2011-04-12T12:58:52Z</time>
      </trkpt>
      <trkpt lat="45.66236" lon="5.83698">
        <ele>926.37</ele>
        <time>2011-04-12T12:58:56Z</time>
      </trkpt>
      <trkpt lat="45.66219" lon="5.83703">
        <ele>925.89</ele>
        <time>2011-04-12T12:59:07Z</time>
      </trkpt>
      <trkpt lat="45.66203" lon="5.83709">
        <ele>923.96</ele>
        <time>2011-04-12T12:59:20Z</time>
      </trkpt>
      <trkpt lat="45.66188" lon="5.83715">
        <ele>922.04</ele>
        <time>2011-04-12T12:59:32Z</time>
      </trkpt>
      <trkpt lat="45.66172" lon="5.83705">
        <ele>920.6</ele>
        <time>2011-04-12T12:59:44Z</time>
      </trkpt>
      <trkpt lat="45.66156" lon="5.83692">
        <ele>917.72</ele>
        <time>2011-04-12T12:59:59Z</time>
      </trkpt>
      <trkpt lat="45.66141" lon="5.83682">
        <ele>915.79</ele>
        <time>2011-04-12T13:00:12Z</time>
      </trkpt>
      <trkpt lat="45.66127" lon="5.83671">
        <ele>914.35</ele>
        <time>2011-04-12T13:00:24Z</time>
      </trkpt>
      <trkpt lat="45.6611" lon="5.83663">
        <ele>911.95</ele>
        <time>2011-04-12T13:00:37Z</time>
      </trkpt>
      <trkpt lat="45.66096" lon="5.83654">
        <ele>909.54</ele>
        <time>2011-04-12T13:00:49Z</time>
      </trkpt>
      <trkpt lat="45.66084" lon="5.83652">
        <ele>908.1</ele>
        <time>2011-04-12T13:00:58Z</time>
      </trkpt>
      <trkpt lat="45.6607" lon="5.83655">
        <ele>906.18</ele>
        <time>2011-04-12T13:01:08Z</time>
      </trkpt>
      <trkpt lat="45.66065" lon="5.83658">
        <ele>904.74</ele>
        <time>2011-04-12T13:01:12Z</time>
      </trkpt>
      <trkpt lat="45.66047" lon="5.83661">
        <ele>903.3</ele>
        <time>2011-04-12T13:01:25Z</time>
      </trkpt>
      <trkpt lat="45.66031" lon="5.83662">
        <ele>900.89</ele>
        <time>2011-04-12T13:01:37Z</time>
      </trkpt>
      <trkpt lat="45.66014" lon="5.8366">
        <ele>898.97</ele>
        <time>2011-04-12T13:01:49Z</time>
      </trkpt>
      <trkpt lat="45.65997" lon="5.8366">
        <ele>897.05</ele>
        <time>2011-04-12T13:02:00Z</time>
      </trkpt>
      <trkpt lat="45.65986" lon="5.83645">
        <ele>896.57</ele>
        <time>2011-04-12T13:02:11Z</time>
      </trkpt>
      <trkpt lat="45.65976" lon="5.83631">
        <ele>895.12</ele>
        <time>2011-04-12T13:02:21Z</time>
      </trkpt>
      <trkpt lat="45.65964" lon="5.83628">
        <ele>893.68</ele>
        <time>2011-04-12T13:02:30Z</time>
      </trkpt>
      <trkpt lat="45.6596" lon="5.83628">
        <ele>892.24</ele>
        <time>2011-04-12T13:02:33Z</time>
      </trkpt>
      <trkpt lat="45.6594" lon="5.83626">
        <ele>890.8</ele>
        <time>2011-04-12T13:02:47Z</time>
      </trkpt>
      <trkpt lat="45.65936" lon="5.83626">
        <ele>890.8</ele>
        <time>2011-04-12T13:02:50Z</time>
      </trkpt>
      <trkpt lat="45.65923" lon="5.83622">
        <ele>888.88</ele>
        <time>2011-04-12T13:02:58Z</time>
      </trkpt>
      <trkpt lat="45.6592" lon="5.83621">
        <ele>887.43</ele>
        <time>2011-04-12T13:03:00Z</time>
      </trkpt>
      <trkpt lat="45.65906" lon="5.83615">
        <ele>885.99</ele>
        <time>2011-04-12T13:03:10Z</time>
      </trkpt>
      <trkpt lat="45.65901" lon="5.83608">
        <ele>886.47</ele>
        <time>2011-04-12T13:03:15Z</time>
      </trkpt>
      <trkpt lat="45.65885" lon="5.83596">
        <ele>884.55</ele>
        <time>2011-04-12T13:03:28Z</time>
      </trkpt>
      <trkpt lat="45.65872" lon="5.8359">
        <ele>883.59</ele>
        <time>2011-04-12T13:03:39Z</time>
      </trkpt>
      <trkpt lat="45.65869" lon="5.83588">
        <ele>883.11</ele>
        <time>2011-04-12T13:03:42Z</time>
      </trkpt>
      <trkpt lat="45.65855" lon="5.83587">
        <ele>881.19</ele>
        <time>2011-04-12T13:03:53Z</time>
      </trkpt>
      <trkpt lat="45.65839" lon="5.83583">
        <ele>879.26</ele>
        <time>2011-04-12T13:04:06Z</time>
      </trkpt>
      <trkpt lat="45.65826" lon="5.83575">
        <ele>877.82</ele>
        <time>2011-04-12T13:04:17Z</time>
      </trkpt>
      <trkpt lat="45.6581" lon="5.83574">
        <ele>875.9</ele>
        <time>2011-04-12T13:04:28Z</time>
      </trkpt>
      <trkpt lat="45.65794" lon="5.8357">
        <ele>873.98</ele>
        <time>2011-04-12T13:04:40Z</time>
      </trkpt>
      <trkpt lat="45.65787" lon="5.83567">
        <ele>873.5</ele>
        <time>2011-04-12T13:04:46Z</time>
      </trkpt>
      <trkpt lat="45.65771" lon="5.83565">
        <ele>871.09</ele>
        <time>2011-04-12T13:04:58Z</time>
      </trkpt>
      <trkpt lat="45.65754" lon="5.83563">
        <ele>869.65</ele>
        <time>2011-04-12T13:05:11Z</time>
      </trkpt>
      <trkpt lat="45.65738" lon="5.83564">
        <ele>868.69</ele>
        <time>2011-04-12T13:05:22Z</time>
      </trkpt>
      <trkpt lat="45.65735" lon="5.83564">
        <ele>868.21</ele>
        <time>2011-04-12T13:05:24Z</time>
      </trkpt>
      <trkpt lat="45.6572" lon="5.83554">
        <ele>866.29</ele>
        <time>2011-04-12T13:05:36Z</time>
      </trkpt>
      <trkpt lat="45.65712" lon="5.83549">
        <ele>865.32</ele>
        <time>2011-04-12T13:05:43Z</time>
      </trkpt>
      <trkpt lat="45.65694" lon="5.83554">
        <ele>863.88</ele>
        <time>2011-04-12T13:05:55Z</time>
      </trkpt>
      <trkpt lat="45.65679" lon="5.8356">
        <ele>862.44</ele>
        <time>2011-04-12T13:06:07Z</time>
      </trkpt>
      <trkpt lat="45.65664" lon="5.83557">
        <ele>861.48</ele>
        <time>2011-04-12T13:06:18Z</time>
      </trkpt>
      <trkpt lat="45.65646" lon="5.83548">
        <ele>859.08</ele>
        <time>2011-04-12T13:06:32Z</time>
      </trkpt>
      <trkpt lat="45.65632" lon="5.83548">
        <ele>857.63</ele>
        <time>2011-04-12T13:06:43Z</time>
      </trkpt>
      <trkpt lat="45.6563" lon="5.83549">
        <ele>857.15</ele>
        <time>2011-04-12T13:06:45Z</time>
      </trkpt>
      <trkpt lat="45.65627" lon="5.83552">
        <ele>856.19</ele>
        <time>2011-04-12T13:06:49Z</time>
      </trkpt>
      <trkpt lat="45.65618" lon="5.83567">
        <ele>854.75</ele>
        <time>2011-04-12T13:07:02Z</time>
      </trkpt>
      <trkpt lat="45.65606" lon="5.83577">
        <ele>853.31</ele>
        <time>2011-04-12T13:07:12Z</time>
      </trkpt>
      <trkpt lat="45.65586" lon="5.83575">
        <ele>850.9</ele>
        <time>2011-04-12T13:07:25Z</time>
      </trkpt>
      <trkpt lat="45.65572" lon="5.83567">
        <ele>849.94</ele>
        <time>2011-04-12T13:07:36Z</time>
      </trkpt>
      <trkpt lat="45.65559" lon="5.83554">
        <ele>848.5</ele>
        <time>2011-04-12T13:07:48Z</time>
      </trkpt>
      <trkpt lat="45.65547" lon="5.83546">
        <ele>846.1</ele>
        <time>2011-04-12T13:07:58Z</time>
      </trkpt>
      <trkpt lat="45.65545" lon="5.83546">
        <ele>846.1</ele>
        <time>2011-04-12T13:08:00Z</time>
      </trkpt>
      <trkpt lat="45.65529" lon="5.83554">
        <ele>844.18</ele>
        <time>2011-04-12T13:08:13Z</time>
      </trkpt>
      <trkpt lat="45.65527" lon="5.83556">
        <ele>844.18</ele>
        <time>2011-04-12T13:08:15Z</time>
      </trkpt>
      <trkpt lat="45.65522" lon="5.83558">
        <ele>844.18</ele>
        <time>2011-04-12T13:08:19Z</time>
      </trkpt>
      <trkpt lat="45.65503" lon="5.83558">
        <ele>841.77</ele>
        <time>2011-04-12T13:08:32Z</time>
      </trkpt>
      <trkpt lat="45.65488" lon="5.83554">
        <ele>838.89</ele>
        <time>2011-04-12T13:08:43Z</time>
      </trkpt>
      <trkpt lat="45.65471" lon="5.83555">
        <ele>836.96</ele>
        <time>2011-04-12T13:08:56Z</time>
      </trkpt>
      <trkpt lat="45.65455" lon="5.8356">
        <ele>836</ele>
        <time>2011-04-12T13:09:08Z</time>
      </trkpt>
      <trkpt lat="45.6544" lon="5.83562">
        <ele>835.04</ele>
        <time>2011-04-12T13:09:19Z</time>
      </trkpt>
      <trkpt lat="45.65427" lon="5.83557">
        <ele>833.12</ele>
        <time>2011-04-12T13:09:28Z</time>
      </trkpt>
      <trkpt lat="45.65411" lon="5.83556">
        <ele>831.68</ele>
        <time>2011-04-12T13:09:40Z</time>
      </trkpt>
      <trkpt lat="45.6539" lon="5.83545">
        <ele>829.76</ele>
        <time>2011-04-12T13:09:55Z</time>
      </trkpt>
      <trkpt lat="45.65381" lon="5.83538">
        <ele>827.83</ele>
        <time>2011-04-12T13:10:04Z</time>
      </trkpt>
      <trkpt lat="45.65363" lon="5.83533">
        <ele>825.91</ele>
        <time>2011-04-12T13:10:16Z</time>
      </trkpt>
      <trkpt lat="45.65347" lon="5.83526">
        <ele>824.47</ele>
        <time>2011-04-12T13:10:30Z</time>
      </trkpt>
      <trkpt lat="45.65331" lon="5.83524">
        <ele>823.03</ele>
        <time>2011-04-12T13:10:41Z</time>
      </trkpt>
      <trkpt lat="45.65314" lon="5.83522">
        <ele>820.62</ele>
        <time>2011-04-12T13:10:52Z</time>
      </trkpt>
      <trkpt lat="45.65303" lon="5.83518">
        <ele>818.7</ele>
        <time>2011-04-12T13:11:01Z</time>
      </trkpt>
      <trkpt lat="45.65287" lon="5.83523">
        <ele>818.22</ele>
        <time>2011-04-12T13:11:12Z</time>
      </trkpt>
      <trkpt lat="45.65269" lon="5.83531">
        <ele>816.78</ele>
        <time>2011-04-12T13:11:24Z</time>
      </trkpt>
      <trkpt lat="45.65255" lon="5.83524">
        <ele>814.37</ele>
        <time>2011-04-12T13:11:36Z</time>
      </trkpt>
      <trkpt lat="45.65239" lon="5.83526">
        <ele>812.45</ele>
        <time>2011-04-12T13:11:47Z</time>
      </trkpt>
      <trkpt lat="45.65224" lon="5.83531">
        <ele>811.01</ele>
        <time>2011-04-12T13:11:59Z</time>
      </trkpt>
      <trkpt lat="45.65207" lon="5.83536">
        <ele>810.53</ele>
        <time>2011-04-12T13:12:11Z</time>
      </trkpt>
      <trkpt lat="45.65188" lon="5.83534">
        <ele>808.13</ele>
        <time>2011-04-12T13:12:25Z</time>
      </trkpt>
      <trkpt lat="45.65174" lon="5.83533">
        <ele>806.2</ele>
        <time>2011-04-12T13:12:36Z</time>
      </trkpt>
      <trkpt lat="45.65167" lon="5.83534">
        <ele>805.72</ele>
        <time>2011-04-12T13:12:41Z</time>
      </trkpt>
      <trkpt lat="45.65155" lon="5.83535">
        <ele>804.28</ele>
        <time>2011-04-12T13:12:49Z</time>
      </trkpt>
      <trkpt lat="45.65145" lon="5.83536">
        <ele>802.84</ele>
        <time>2011-04-12T13:12:57Z</time>
      </trkpt>
      <trkpt lat="45.65131" lon="5.83535">
        <ele>802.36</ele>
        <time>2011-04-12T13:13:07Z</time>
      </trkpt>
      <trkpt lat="45.65117" lon="5.83524">
        <ele>799.95</ele>
        <time>2011-04-12T13:13:19Z</time>
      </trkpt>
      <trkpt lat="45.65103" lon="5.83522">
        <ele>798.51</ele>
        <time>2011-04-12T13:13:29Z</time>
      </trkpt>
      <trkpt lat="45.6509" lon="5.83521">
        <ele>797.07</ele>
        <time>2011-04-12T13:13:38Z</time>
      </trkpt>
      <trkpt lat="45.65069" lon="5.83524">
        <ele>795.63</ele>
        <time>2011-04-12T13:13:54Z</time>
      </trkpt>
      <trkpt lat="45.65052" lon="5.83525">
        <ele>793.71</ele>
        <time>2011-04-12T13:14:06Z</time>
      </trkpt>
      <trkpt lat="45.6504" lon="5.83522">
        <ele>792.26</ele>
        <time>2011-04-12T13:14:16Z</time>
      </trkpt>
      <trkpt lat="45.65025" lon="5.83521">
        <ele>790.34</ele>
        <time>2011-04-12T13:14:27Z</time>
      </trkpt>
      <trkpt lat="45.65008" lon="5.83519">
        <ele>788.42</ele>
        <time>2011-04-12T13:14:39Z</time>
      </trkpt>
      <trkpt lat="45.6499" lon="5.83524">
        <ele>786.5</ele>
        <time>2011-04-12T13:14:51Z</time>
      </trkpt>
      <trkpt lat="45.64974" lon="5.83532">
        <ele>784.57</ele>
        <time>2011-04-12T13:15:03Z</time>
      </trkpt>
      <trkpt lat="45.64959" lon="5.83537">
        <ele>783.13</ele>
        <time>2011-04-12T13:15:14Z</time>
      </trkpt>
      <trkpt lat="45.64941" lon="5.83537">
        <ele>781.69</ele>
        <time>2011-04-12T13:15:27Z</time>
      </trkpt>
      <trkpt lat="45.64923" lon="5.83536">
        <ele>779.29</ele>
        <time>2011-04-12T13:15:40Z</time>
      </trkpt>
      <trkpt lat="45.64904" lon="5.83537">
        <ele>777.36</ele>
        <time>2011-04-12T13:15:53Z</time>
      </trkpt>
      <trkpt lat="45.64888" lon="5.83541">
        <ele>775.92</ele>
        <time>2011-04-12T13:16:04Z</time>
      </trkpt>
      <trkpt lat="45.64872" lon="5.83542">
        <ele>774.48</ele>
        <time>2011-04-12T13:16:15Z</time>
      </trkpt>
      <trkpt lat="45.64858" lon="5.83537">
        <ele>772.56</ele>
        <time>2011-04-12T13:16:27Z</time>
      </trkpt>
      <trkpt lat="45.64843" lon="5.83535">
        <ele>771.6</ele>
        <time>2011-04-12T13:16:37Z</time>
      </trkpt>
      <trkpt lat="45.64828" lon="5.83534">
        <ele>769.19</ele>
        <time>2011-04-12T13:16:48Z</time>
      </trkpt>
      <trkpt lat="45.6481" lon="5.83531">
        <ele>766.79</ele>
        <time>2011-04-12T13:17:01Z</time>
      </trkpt>
      <trkpt lat="45.64787" lon="5.83532">
        <ele>764.87</ele>
        <time>2011-04-12T13:17:17Z</time>
      </trkpt>
      <trkpt lat="45.64774" lon="5.83532">
        <ele>763.9</ele>
        <time>2011-04-12T13:17:27Z</time>
      </trkpt>
      <trkpt lat="45.64769" lon="5.83533">
        <ele>763.42</ele>
        <time>2011-04-12T13:17:30Z</time>
      </trkpt>
      <trkpt lat="45.64757" lon="5.83539">
        <ele>761.98</ele>
        <time>2011-04-12T13:17:39Z</time>
      </trkpt>
      <trkpt lat="45.64739" lon="5.83534">
        <ele>759.58</ele>
        <time>2011-04-12T13:17:53Z</time>
      </trkpt>
      <trkpt lat="45.64724" lon="5.83523">
        <ele>758.14</ele>
        <time>2011-04-12T13:18:05Z</time>
      </trkpt>
      <trkpt lat="45.6471" lon="5.83521">
        <ele>756.21</ele>
        <time>2011-04-12T13:18:15Z</time>
      </trkpt>
      <trkpt lat="45.64706" lon="5.8352">
        <ele>756.21</ele>
        <time>2011-04-12T13:18:18Z</time>
      </trkpt>
      <trkpt lat="45.64702" lon="5.83518">
        <ele>755.73</ele>
        <time>2011-04-12T13:18:21Z</time>
      </trkpt>
      <trkpt lat="45.64685" lon="5.83515">
        <ele>755.25</ele>
        <time>2011-04-12T13:18:34Z</time>
      </trkpt>
      <trkpt lat="45.64671" lon="5.83522">
        <ele>753.81</ele>
        <time>2011-04-12T13:18:45Z</time>
      </trkpt>
      <trkpt lat="45.64658" lon="5.83528">
        <ele>753.33</ele>
        <time>2011-04-12T13:18:57Z</time>
      </trkpt>
      <trkpt lat="45.64656" lon="5.83527">
        <ele>753.33</ele>
        <time>2011-04-12T13:19:09Z</time>
      </trkpt>
      <trkpt lat="45.64656" lon="5.83527">
        <ele>753.81</ele>
        <time>2011-04-12T13:19:26Z</time>
      </trkpt>
      <trkpt lat="45.64657" lon="5.83526">
        <ele>753.33</ele>
        <time>2011-04-12T13:19:42Z</time>
      </trkpt>
      <trkpt lat="45.64657" lon="5.83526">
        <ele>752.37</ele>
        <time>2011-04-12T13:19:56Z</time>
      </trkpt>
      <trkpt lat="45.64657" lon="5.83526">
        <ele>753.81</ele>
        <time>2011-04-12T13:20:17Z</time>
      </trkpt>
      <trkpt lat="45.64656" lon="5.83525">
        <ele>753.33</ele>
        <time>2011-04-12T13:20:35Z</time>
      </trkpt>
      <trkpt lat="45.64648" lon="5.83525">
        <ele>750.45</ele>
        <time>2011-04-12T13:20:48Z</time>
      </trkpt>
      <trkpt lat="45.64642" lon="5.8353">
        <ele>747.08</ele>
        <time>2011-04-12T13:20:59Z</time>
      </trkpt>
      <trkpt lat="45.64624" lon="5.83533">
        <ele>744.2</ele>
        <time>2011-04-12T13:21:12Z</time>
      </trkpt>
      <trkpt lat="45.6462" lon="5.83535">
        <ele>745.16</ele>
        <time>2011-04-12T13:21:16Z</time>
      </trkpt>
      <trkpt lat="45.64604" lon="5.83535">
        <ele>742.76</ele>
        <time>2011-04-12T13:21:31Z</time>
      </trkpt>
      <trkpt lat="45.64593" lon="5.83544">
        <ele>739.39</ele>
        <time>2011-04-12T13:21:44Z</time>
      </trkpt>
      <trkpt lat="45.64577" lon="5.83556">
        <ele>735.55</ele>
        <time>2011-04-12T13:21:57Z</time>
      </trkpt>
      <trkpt lat="45.64576" lon="5.83557">
        <ele>735.55</ele>
        <time>2011-04-12T13:21:58Z</time>
      </trkpt>
      <trkpt lat="45.64567" lon="5.83562">
        <ele>734.58</ele>
        <time>2011-04-12T13:22:04Z</time>
      </trkpt>
      <trkpt lat="45.64562" lon="5.83565">
        <ele>733.14</ele>
        <time>2011-04-12T13:22:09Z</time>
      </trkpt>
      <trkpt lat="45.64556" lon="5.83564">
        <ele>731.22</ele>
        <time>2011-04-12T13:22:16Z</time>
      </trkpt>
      <trkpt lat="45.64545" lon="5.83567">
        <ele>729.3</ele>
        <time>2011-04-12T13:22:25Z</time>
      </trkpt>
      <trkpt lat="45.64541" lon="5.83573">
        <ele>727.37</ele>
        <time>2011-04-12T13:22:31Z</time>
      </trkpt>
      <trkpt lat="45.64552" lon="5.83579">
        <ele>724.49</ele>
        <time>2011-04-12T13:22:41Z</time>
      </trkpt>
      <trkpt lat="45.64558" lon="5.83582">
        <ele>722.57</ele>
        <time>2011-04-12T13:22:47Z</time>
      </trkpt>
      <trkpt lat="45.64566" lon="5.83587">
        <ele>720.65</ele>
        <time>2011-04-12T13:22:53Z</time>
      </trkpt>
      <trkpt lat="45.64583" lon="5.83597">
        <ele>717.28</ele>
        <time>2011-04-12T13:23:08Z</time>
      </trkpt>
      <trkpt lat="45.64589" lon="5.83603">
        <ele>714.88</ele>
        <time>2011-04-12T13:23:16Z</time>
      </trkpt>
      <trkpt lat="45.64594" lon="5.83606">
        <ele>714.4</ele>
        <time>2011-04-12T13:23:19Z</time>
      </trkpt>
      <trkpt lat="45.64597" lon="5.83609">
        <ele>712.95</ele>
        <time>2011-04-12T13:23:25Z</time>
      </trkpt>
      <trkpt lat="45.64615" lon="5.83617">
        <ele>709.59</ele>
        <time>2011-04-12T13:23:36Z</time>
      </trkpt>
      <trkpt lat="45.64626" lon="5.83628">
        <ele>706.23</ele>
        <time>2011-04-12T13:23:47Z</time>
      </trkpt>
      <trkpt lat="45.64627" lon="5.83629">
        <ele>705.75</ele>
        <time>2011-04-12T13:23:48Z</time>
      </trkpt>
      <trkpt lat="45.6463" lon="5.83632">
        <ele>704.78</ele>
        <time>2011-04-12T13:23:50Z</time>
      </trkpt>
      <trkpt lat="45.64642" lon="5.83648">
        <ele>702.38</ele>
        <time>2011-04-12T13:24:03Z</time>
      </trkpt>
      <trkpt lat="45.64649" lon="5.83652">
        <ele>701.9</ele>
        <time>2011-04-12T13:24:09Z</time>
      </trkpt>
      <trkpt lat="45.64669" lon="5.83656">
        <ele>698.53</ele>
        <time>2011-04-12T13:24:24Z</time>
      </trkpt>
      <trkpt lat="45.6468" lon="5.83663">
        <ele>695.65</ele>
        <time>2011-04-12T13:24:32Z</time>
      </trkpt>
      <trkpt lat="45.6469" lon="5.83677">
        <ele>692.29</ele>
        <time>2011-04-12T13:24:43Z</time>
      </trkpt>
      <trkpt lat="45.647" lon="5.83689">
        <ele>688.92</ele>
        <time>2011-04-12T13:24:54Z</time>
      </trkpt>
      <trkpt lat="45.64711" lon="5.83701">
        <ele>686.04</ele>
        <time>2011-04-12T13:25:04Z</time>
      </trkpt>
      <trkpt lat="45.6472" lon="5.83711">
        <ele>683.63</ele>
        <time>2011-04-12T13:25:14Z</time>
      </trkpt>
      <trkpt lat="45.64729" lon="5.83717">
        <ele>682.19</ele>
        <time>2011-04-12T13:25:22Z</time>
      </trkpt>
      <trkpt lat="45.64718" lon="5.83724">
        <ele>678.35</ele>
        <time>2011-04-12T13:25:32Z</time>
      </trkpt>
      <trkpt lat="45.6471" lon="5.8373">
        <ele>674.98</ele>
        <time>2011-04-12T13:25:40Z</time>
      </trkpt>
      <trkpt lat="45.647" lon="5.83732">
        <ele>673.06</ele>
        <time>2011-04-12T13:25:49Z</time>
      </trkpt>
      <trkpt lat="45.64683" lon="5.83729">
        <ele>670.18</ele>
        <time>2011-04-12T13:26:03Z</time>
      </trkpt>
      <trkpt lat="45.64681" lon="5.83727">
        <ele>670.18</ele>
        <time>2011-04-12T13:26:05Z</time>
      </trkpt>
      <trkpt lat="45.64664" lon="5.83725">
        <ele>668.25</ele>
        <time>2011-04-12T13:26:20Z</time>
      </trkpt>
      <trkpt lat="45.64652" lon="5.83727">
        <ele>666.33</ele>
        <time>2011-04-12T13:26:35Z</time>
      </trkpt>
      <trkpt lat="45.64636" lon="5.83727">
        <ele>663.45</ele>
        <time>2011-04-12T13:26:51Z</time>
      </trkpt>
      <trkpt lat="45.64627" lon="5.83729">
        <ele>661.04</ele>
        <time>2011-04-12T13:27:01Z</time>
      </trkpt>
      <trkpt lat="45.64618" lon="5.83729">
        <ele>657.2</ele>
        <time>2011-04-12T13:27:12Z</time>
      </trkpt>
      <trkpt lat="45.64612" lon="5.83734">
        <ele>655.28</ele>
        <time>2011-04-12T13:27:19Z</time>
      </trkpt>
      <trkpt lat="45.64593" lon="5.83755">
        <ele>651.43</ele>
        <time>2011-04-12T13:27:35Z</time>
      </trkpt>
      <trkpt lat="45.64587" lon="5.8376">
        <ele>650.47</ele>
        <time>2011-04-12T13:27:40Z</time>
      </trkpt>
      <trkpt lat="45.64582" lon="5.83763">
        <ele>649.03</ele>
        <time>2011-04-12T13:27:45Z</time>
      </trkpt>
      <trkpt lat="45.6457" lon="5.83768">
        <ele>646.62</ele>
        <time>2011-04-12T13:27:54Z</time>
      </trkpt>
      <trkpt lat="45.64564" lon="5.8377">
        <ele>644.7</ele>
        <time>2011-04-12T13:27:59Z</time>
      </trkpt>
      <trkpt lat="45.64557" lon="5.83771">
        <ele>643.26</ele>
        <time>2011-04-12T13:28:04Z</time>
      </trkpt>
      <trkpt lat="45.64551" lon="5.83776">
        <ele>641.34</ele>
        <time>2011-04-12T13:28:08Z</time>
      </trkpt>
      <trkpt lat="45.64542" lon="5.83785">
        <ele>639.41</ele>
        <time>2011-04-12T13:28:15Z</time>
      </trkpt>
      <trkpt lat="45.64537" lon="5.83793">
        <ele>637.97</ele>
        <time>2011-04-12T13:28:22Z</time>
      </trkpt>
      <trkpt lat="45.64533" lon="5.83803">
        <ele>636.53</ele>
        <time>2011-04-12T13:28:28Z</time>
      </trkpt>
      <trkpt lat="45.64531" lon="5.83813">
        <ele>634.61</ele>
        <time>2011-04-12T13:28:33Z</time>
      </trkpt>
      <trkpt lat="45.64516" lon="5.83823">
        <ele>632.2</ele>
        <time>2011-04-12T13:28:43Z</time>
      </trkpt>
      <trkpt lat="45.645" lon="5.83823">
        <ele>628.36</ele>
        <time>2011-04-12T13:28:53Z</time>
      </trkpt>
      <trkpt lat="45.64483" lon="5.83834">
        <ele>624.99</ele>
        <time>2011-04-12T13:29:05Z</time>
      </trkpt>
      <trkpt lat="45.64477" lon="5.83838">
        <ele>623.07</ele>
        <time>2011-04-12T13:29:10Z</time>
      </trkpt>
      <trkpt lat="45.64463" lon="5.83844">
        <ele>620.19</ele>
        <time>2011-04-12T13:29:22Z</time>
      </trkpt>
      <trkpt lat="45.64452" lon="5.83851">
        <ele>616.82</ele>
        <time>2011-04-12T13:29:35Z</time>
      </trkpt>
      <trkpt lat="45.6444" lon="5.8386">
        <ele>613.46</ele>
        <time>2011-04-12T13:29:44Z</time>
      </trkpt>
      <trkpt lat="45.64427" lon="5.83874">
        <ele>609.61</ele>
        <time>2011-04-12T13:29:53Z</time>
      </trkpt>
      <trkpt lat="45.64415" lon="5.83881">
        <ele>606.73</ele>
        <time>2011-04-12T13:30:03Z</time>
      </trkpt>
      <trkpt lat="45.64413" lon="5.83881">
        <ele>606.73</ele>
        <time>2011-04-12T13:30:04Z</time>
      </trkpt>
      <trkpt lat="45.64396" lon="5.8389">
        <ele>602.88</ele>
        <time>2011-04-12T13:30:14Z</time>
      </trkpt>
      <trkpt lat="45.64381" lon="5.83898">
        <ele>600</ele>
        <time>2011-04-12T13:30:23Z</time>
      </trkpt>
      <trkpt lat="45.64365" lon="5.83902">
        <ele>596.64</ele>
        <time>2011-04-12T13:30:35Z</time>
      </trkpt>
      <trkpt lat="45.64366" lon="5.83904">
        <ele>595.19</ele>
        <time>2011-04-12T13:30:39Z</time>
      </trkpt>
      <trkpt lat="45.64369" lon="5.83906">
        <ele>594.23</ele>
        <time>2011-04-12T13:30:42Z</time>
      </trkpt>
      <trkpt lat="45.6438" lon="5.83917">
        <ele>590.87</ele>
        <time>2011-04-12T13:30:52Z</time>
      </trkpt>
      <trkpt lat="45.64384" lon="5.8392">
        <ele>589.43</ele>
        <time>2011-04-12T13:30:55Z</time>
      </trkpt>
      <trkpt lat="45.64395" lon="5.83929">
        <ele>587.02</ele>
        <time>2011-04-12T13:31:03Z</time>
      </trkpt>
      <trkpt lat="45.64405" lon="5.8394">
        <ele>583.66</ele>
        <time>2011-04-12T13:31:13Z</time>
      </trkpt>
      <trkpt lat="45.64414" lon="5.83947">
        <ele>581.73</ele>
        <time>2011-04-12T13:31:20Z</time>
      </trkpt>
      <trkpt lat="45.64421" lon="5.83955">
        <ele>579.33</ele>
        <time>2011-04-12T13:31:25Z</time>
      </trkpt>
      <trkpt lat="45.64426" lon="5.8396">
        <ele>577.89</ele>
        <time>2011-04-12T13:31:29Z</time>
      </trkpt>
      <trkpt lat="45.64429" lon="5.83967">
        <ele>576.45</ele>
        <time>2011-04-12T13:31:33Z</time>
      </trkpt>
      <trkpt lat="45.64422" lon="5.83973">
        <ele>573.08</ele>
        <time>2011-04-12T13:31:41Z</time>
      </trkpt>
      <trkpt lat="45.64418" lon="5.83974">
        <ele>572.12</ele>
        <time>2011-04-12T13:31:43Z</time>
      </trkpt>
      <trkpt lat="45.64404" lon="5.83985">
        <ele>567.32</ele>
        <time>2011-04-12T13:31:51Z</time>
      </trkpt>
      <trkpt lat="45.64394" lon="5.84001">
        <ele>564.43</ele>
        <time>2011-04-12T13:32:04Z</time>
      </trkpt>
      <trkpt lat="45.64395" lon="5.84002">
        <ele>563.95</ele>
        <time>2011-04-12T13:32:05Z</time>
      </trkpt>
      <trkpt lat="45.64404" lon="5.84021">
        <ele>560.11</ele>
        <time>2011-04-12T13:32:21Z</time>
      </trkpt>
      <trkpt lat="45.64404" lon="5.84022">
        <ele>559.62</ele>
        <time>2011-04-12T13:32:22Z</time>
      </trkpt>
      <trkpt lat="45.6441" lon="5.84032">
        <ele>556.74</ele>
        <time>2011-04-12T13:32:36Z</time>
      </trkpt>
      <trkpt lat="45.64414" lon="5.84048">
        <ele>553.38</ele>
        <time>2011-04-12T13:32:46Z</time>
      </trkpt>
      <trkpt lat="45.6442" lon="5.84064">
        <ele>550.01</ele>
        <time>2011-04-12T13:32:59Z</time>
      </trkpt>
      <trkpt lat="45.64427" lon="5.84079">
        <ele>547.61</ele>
        <time>2011-04-12T13:33:10Z</time>
      </trkpt>
      <trkpt lat="45.64428" lon="5.84081">
        <ele>546.65</ele>
        <time>2011-04-12T13:33:12Z</time>
      </trkpt>
      <trkpt lat="45.64435" lon="5.84085">
        <ele>545.2</ele>
        <time>2011-04-12T13:33:22Z</time>
      </trkpt>
      <trkpt lat="45.6445" lon="5.84101">
        <ele>540.88</ele>
        <time>2011-04-12T13:33:35Z</time>
      </trkpt>
      <trkpt lat="45.64463" lon="5.84113">
        <ele>537.99</ele>
        <time>2011-04-12T13:33:45Z</time>
      </trkpt>
      <trkpt lat="45.64467" lon="5.84117">
        <ele>536.07</ele>
        <time>2011-04-12T13:33:49Z</time>
      </trkpt>
      <trkpt lat="45.64477" lon="5.84126">
        <ele>532.71</ele>
        <time>2011-04-12T13:34:00Z</time>
      </trkpt>
      <trkpt lat="45.64486" lon="5.84137">
        <ele>529.34</ele>
        <time>2011-04-12T13:34:11Z</time>
      </trkpt>
      <trkpt lat="45.64494" lon="5.84151">
        <ele>525.98</ele>
        <time>2011-04-12T13:34:22Z</time>
      </trkpt>
      <trkpt lat="45.64501" lon="5.84155">
        <ele>524.54</ele>
        <time>2011-04-12T13:34:31Z</time>
      </trkpt>
      <trkpt lat="45.64502" lon="5.84156">
        <ele>525.5</ele>
        <time>2011-04-12T13:34:33Z</time>
      </trkpt>
      <trkpt lat="45.64504" lon="5.84159">
        <ele>525.5</ele>
        <time>2011-04-12T13:34:46Z</time>
      </trkpt>
      <trkpt lat="45.64504" lon="5.84159">
        <ele>526.46</ele>
        <time>2011-04-12T13:35:01Z</time>
      </trkpt>
      <trkpt lat="45.64499" lon="5.84163">
        <ele>526.94</ele>
        <time>2011-04-12T13:35:16Z</time>
      </trkpt>
      <trkpt lat="45.64497" lon="5.84168">
        <ele>526.94</ele>
        <time>2011-04-12T13:35:31Z</time>
      </trkpt>
      <trkpt lat="45.64497" lon="5.84168">
        <ele>526.94</ele>
        <time>2011-04-12T13:35:54Z</time>
      </trkpt>
      <trkpt lat="45.64497" lon="5.84168">
        <ele>526.94</ele>
        <time>2011-04-12T13:36:19Z</time>
      </trkpt>
      <trkpt lat="45.64497" lon="5.84168">
        <ele>526.94</ele>
        <time>2011-04-12T13:36:46Z</time>
      </trkpt>
      <trkpt lat="45.64497" lon="5.84168">
        <ele>525.5</ele>
        <time>2011-04-12T13:36:54Z</time>
      </trkpt>
      <trkpt lat="45.64497" lon="5.84168">
        <ele>525.02</ele>
        <time>2011-04-12T13:37:14Z</time>
      </trkpt>
      <trkpt lat="45.64497" lon="5.84168">
        <ele>525.02</ele>
        <time>2011-04-12T13:37:15Z</time>
      </trkpt>
      <trkpt lat="45.64497" lon="5.84168">
        <ele>526.94</ele>
        <time>2011-04-12T13:37:19Z</time>
      </trkpt>
      <trkpt lat="45.64497" lon="5.84168">
        <ele>526.46</ele>
        <time>2011-04-12T13:37:34Z</time>
      </trkpt>
      <trkpt lat="45.64497" lon="5.84168">
        <ele>527.42</ele>
        <time>2011-04-12T13:37:52Z</time>
      </trkpt>
      <trkpt lat="45.64498" lon="5.84167">
        <ele>526.94</ele>
        <time>2011-04-12T13:38:11Z</time>
      </trkpt>
      <trkpt lat="45.64498" lon="5.84167">
        <ele>527.42</ele>
        <time>2011-04-12T13:38:31Z</time>
      </trkpt>
      <trkpt lat="45.64495" lon="5.84169">
        <ele>527.42</ele>
        <time>2011-04-12T13:38:50Z</time>
      </trkpt>
      <trkpt lat="45.64488" lon="5.84171">
        <ele>525.98</ele>
        <time>2011-04-12T13:39:01Z</time>
      </trkpt>
      <trkpt lat="45.6448" lon="5.8418">
        <ele>525.5</ele>
        <time>2011-04-12T13:39:11Z</time>
      </trkpt>
      <trkpt lat="45.64476" lon="5.84185">
        <ele>525.02</ele>
        <time>2011-04-12T13:39:23Z</time>
      </trkpt>
      <trkpt lat="45.64476" lon="5.84185">
        <ele>524.54</ele>
        <time>2011-04-12T13:39:36Z</time>
      </trkpt>
      <trkpt lat="45.64476" lon="5.84185">
        <ele>524.54</ele>
        <time>2011-04-12T13:39:53Z</time>
      </trkpt>
      <trkpt lat="45.64476" lon="5.84185">
        <ele>524.54</ele>
        <time>2011-04-12T13:40:13Z</time>
      </trkpt>
      <trkpt lat="45.64478" lon="5.84192">
        <ele>524.06</ele>
        <time>2011-04-12T13:40:26Z</time>
      </trkpt>
      <trkpt lat="45.64478" lon="5.84206">
        <ele>520.69</ele>
        <time>2011-04-12T13:40:38Z</time>
      </trkpt>
      <trkpt lat="45.64479" lon="5.84208">
        <ele>520.21</ele>
        <time>2011-04-12T13:40:40Z</time>
      </trkpt>
      <trkpt lat="45.64479" lon="5.84222">
        <ele>517.33</ele>
        <time>2011-04-12T13:40:51Z</time>
      </trkpt>
      <trkpt lat="45.64479" lon="5.84224">
        <ele>517.33</ele>
        <time>2011-04-12T13:40:53Z</time>
      </trkpt>
      <trkpt lat="45.64485" lon="5.84241">
        <ele>513.48</ele>
        <time>2011-04-12T13:41:05Z</time>
      </trkpt>
      <trkpt lat="45.64492" lon="5.84256">
        <ele>510.12</ele>
        <time>2011-04-12T13:41:15Z</time>
      </trkpt>
      <trkpt lat="45.64494" lon="5.8426">
        <ele>508.67</ele>
        <time>2011-04-12T13:41:18Z</time>
      </trkpt>
      <trkpt lat="45.64494" lon="5.84268">
        <ele>506.75</ele>
        <time>2011-04-12T13:41:23Z</time>
      </trkpt>
      <trkpt lat="45.64483" lon="5.84286">
        <ele>502.91</ele>
        <time>2011-04-12T13:41:37Z</time>
      </trkpt>
      <trkpt lat="45.64479" lon="5.84304">
        <ele>500.5</ele>
        <time>2011-04-12T13:41:48Z</time>
      </trkpt>
      <trkpt lat="45.64476" lon="5.8432">
        <ele>498.1</ele>
        <time>2011-04-12T13:41:57Z</time>
      </trkpt>
      <trkpt lat="45.64475" lon="5.84323">
        <ele>497.62</ele>
        <time>2011-04-12T13:41:59Z</time>
      </trkpt>
      <trkpt lat="45.64487" lon="5.84335">
        <ele>495.22</ele>
        <time>2011-04-12T13:42:11Z</time>
      </trkpt>
      <trkpt lat="45.64503" lon="5.84336">
        <ele>493.29</ele>
        <time>2011-04-12T13:42:23Z</time>
      </trkpt>
      <trkpt lat="45.6452" lon="5.84336">
        <ele>492.33</ele>
        <time>2011-04-12T13:42:35Z</time>
      </trkpt>
      <trkpt lat="45.64522" lon="5.84336">
        <ele>491.85</ele>
        <time>2011-04-12T13:42:37Z</time>
      </trkpt>
      <trkpt lat="45.64537" lon="5.84339">
        <ele>489.45</ele>
        <time>2011-04-12T13:42:49Z</time>
      </trkpt>
      <trkpt lat="45.64541" lon="5.84339">
        <ele>488.49</ele>
        <time>2011-04-12T13:42:52Z</time>
      </trkpt>
      <trkpt lat="45.64557" lon="5.84344">
        <ele>485.6</ele>
        <time>2011-04-12T13:43:06Z</time>
      </trkpt>
      <trkpt lat="45.64578" lon="5.84352">
        <ele>482.72</ele>
        <time>2011-04-12T13:43:20Z</time>
      </trkpt>
      <trkpt lat="45.64591" lon="5.84356">
        <ele>480.8</ele>
        <time>2011-04-12T13:43:29Z</time>
      </trkpt>
      <trkpt lat="45.64601" lon="5.84357">
        <ele>478.87</ele>
        <time>2011-04-12T13:43:41Z</time>
      </trkpt>
      <trkpt lat="45.64619" lon="5.84361">
        <ele>476.47</ele>
        <time>2011-04-12T13:43:52Z</time>
      </trkpt>
      <trkpt lat="45.6462" lon="5.84376">
        <ele>475.03</ele>
        <time>2011-04-12T13:44:01Z</time>
      </trkpt>
      <trkpt lat="45.64601" lon="5.84392">
        <ele>472.63</ele>
        <time>2011-04-12T13:44:14Z</time>
      </trkpt>
      <trkpt lat="45.64587" lon="5.84418">
        <ele>470.7</ele>
        <time>2011-04-12T13:44:28Z</time>
      </trkpt>
      <trkpt lat="45.64576" lon="5.84439">
        <ele>469.26</ele>
        <time>2011-04-12T13:44:40Z</time>
      </trkpt>
      <trkpt lat="45.64562" lon="5.84461">
        <ele>467.82</ele>
        <time>2011-04-12T13:44:53Z</time>
      </trkpt>
      <trkpt lat="45.64561" lon="5.84467">
        <ele>466.86</ele>
        <time>2011-04-12T13:45:03Z</time>
      </trkpt>
      <trkpt lat="45.64566" lon="5.8447">
        <ele>463.97</ele>
        <time>2011-04-12T13:45:11Z</time>
      </trkpt>
      <trkpt lat="45.64578" lon="5.8448">
        <ele>460.61</ele>
        <time>2011-04-12T13:45:23Z</time>
      </trkpt>
      <trkpt lat="45.64582" lon="5.84481">
        <ele>460.13</ele>
        <time>2011-04-12T13:45:27Z</time>
      </trkpt>
      <trkpt lat="45.64598" lon="5.84487">
        <ele>456.76</ele>
        <time>2011-04-12T13:45:40Z</time>
      </trkpt>
      <trkpt lat="45.64608" lon="5.84495">
        <ele>454.84</ele>
        <time>2011-04-12T13:45:50Z</time>
      </trkpt>
      <trkpt lat="45.64613" lon="5.84497">
        <ele>453.88</ele>
        <time>2011-04-12T13:45:54Z</time>
      </trkpt>
      <trkpt lat="45.64626" lon="5.84502">
        <ele>450.52</ele>
        <time>2011-04-12T13:46:06Z</time>
      </trkpt>
      <trkpt lat="45.64635" lon="5.84505">
        <ele>447.63</ele>
        <time>2011-04-12T13:46:16Z</time>
      </trkpt>
      <trkpt lat="45.64655" lon="5.84507">
        <ele>445.23</ele>
        <time>2011-04-12T13:46:30Z</time>
      </trkpt>
      <trkpt lat="45.6466" lon="5.84507">
        <ele>444.27</ele>
        <time>2011-04-12T13:46:34Z</time>
      </trkpt>
      <trkpt lat="45.64668" lon="5.84507">
        <ele>443.31</ele>
        <time>2011-04-12T13:46:38Z</time>
      </trkpt>
      <trkpt lat="45.64675" lon="5.84513">
        <ele>441.38</ele>
        <time>2011-04-12T13:46:46Z</time>
      </trkpt>
      <trkpt lat="45.64689" lon="5.84521">
        <ele>439.94</ele>
        <time>2011-04-12T13:46:59Z</time>
      </trkpt>
      <trkpt lat="45.64692" lon="5.84523">
        <ele>439.94</ele>
        <time>2011-04-12T13:47:02Z</time>
      </trkpt>
      <trkpt lat="45.64702" lon="5.84526">
        <ele>437.06</ele>
        <time>2011-04-12T13:47:13Z</time>
      </trkpt>
      <trkpt lat="45.64705" lon="5.8453">
        <ele>435.13</ele>
        <time>2011-04-12T13:47:18Z</time>
      </trkpt>
      <trkpt lat="45.64718" lon="5.84539">
        <ele>431.29</ele>
        <time>2011-04-12T13:47:30Z</time>
      </trkpt>
      <trkpt lat="45.64717" lon="5.84553">
        <ele>428.4</ele>
        <time>2011-04-12T13:47:37Z</time>
      </trkpt>
      <trkpt lat="45.64717" lon="5.84556">
        <ele>427.92</ele>
        <time>2011-04-12T13:47:39Z</time>
      </trkpt>
      <trkpt lat="45.6471" lon="5.84561">
        <ele>427.44</ele>
        <time>2011-04-12T13:47:44Z</time>
      </trkpt>
      <trkpt lat="45.6471" lon="5.84581">
        <ele>425.04</ele>
        <time>2011-04-12T13:47:55Z</time>
      </trkpt>
      <trkpt lat="45.6471" lon="5.84581">
        <ele>424.56</ele>
        <time>2011-04-12T13:47:56Z</time>
      </trkpt>
      <trkpt lat="45.64722" lon="5.84587">
        <ele>420.71</ele>
        <time>2011-04-12T13:48:06Z</time>
      </trkpt>
      <trkpt lat="45.64727" lon="5.8459">
        <ele>419.75</ele>
        <time>2011-04-12T13:48:10Z</time>
      </trkpt>
      <trkpt lat="45.6474" lon="5.84596">
        <ele>416.87</ele>
        <time>2011-04-12T13:48:20Z</time>
      </trkpt>
      <trkpt lat="45.64751" lon="5.84604">
        <ele>413.98</ele>
        <time>2011-04-12T13:48:30Z</time>
      </trkpt>
      <trkpt lat="45.64756" lon="5.84607">
        <ele>412.54</ele>
        <time>2011-04-12T13:48:35Z</time>
      </trkpt>
      <trkpt lat="45.64771" lon="5.84613">
        <ele>409.18</ele>
        <time>2011-04-12T13:48:46Z</time>
      </trkpt>
      <trkpt lat="45.64782" lon="5.84625">
        <ele>405.81</ele>
        <time>2011-04-12T13:48:57Z</time>
      </trkpt>
      <trkpt lat="45.64793" lon="5.84635">
        <ele>403.41</ele>
        <time>2011-04-12T13:49:08Z</time>
      </trkpt>
      <trkpt lat="45.64792" lon="5.84638">
        <ele>402.45</ele>
        <time>2011-04-12T13:49:09Z</time>
      </trkpt>
      <trkpt lat="45.64791" lon="5.8464">
        <ele>401.97</ele>
        <time>2011-04-12T13:49:11Z</time>
      </trkpt>
      <trkpt lat="45.64788" lon="5.84641">
        <ele>401.97</ele>
        <time>2011-04-12T13:49:14Z</time>
      </trkpt>
      <trkpt lat="45.64777" lon="5.84639">
        <ele>401.01</ele>
        <time>2011-04-12T13:49:25Z</time>
      </trkpt>
      <trkpt lat="45.64777" lon="5.84638">
        <ele>401.49</ele>
        <time>2011-04-12T13:49:33Z</time>
      </trkpt>
      <trkpt lat="45.64777" lon="5.84639">
        <ele>401.01</ele>
        <time>2011-04-12T13:49:52Z</time>
      </trkpt>
      <trkpt lat="45.64777" lon="5.84639">
        <ele>400.53</ele>
        <time>2011-04-12T13:50:10Z</time>
      </trkpt>
      <trkpt lat="45.64777" lon="5.84639">
        <ele>401.49</ele>
        <time>2011-04-12T13:50:31Z</time>
      </trkpt>
      <trkpt lat="45.64776" lon="5.84638">
        <ele>400.53</ele>
        <time>2011-04-12T13:50:51Z</time>
      </trkpt>
      <trkpt lat="45.64776" lon="5.84638">
        <ele>400.05</ele>
        <time>2011-04-12T13:51:10Z</time>
      </trkpt>
      <trkpt lat="45.64771" lon="5.84637">
        <ele>399.57</ele>
        <time>2011-04-12T13:51:21Z</time>
      </trkpt>
      <trkpt lat="45.6476" lon="5.84638">
        <ele>396.68</ele>
        <time>2011-04-12T13:51:33Z</time>
      </trkpt>
      <trkpt lat="45.64749" lon="5.84642">
        <ele>393.32</ele>
        <time>2011-04-12T13:51:45Z</time>
      </trkpt>
      <trkpt lat="45.64749" lon="5.84642">
        <ele>392.84</ele>
        <time>2011-04-12T13:51:46Z</time>
      </trkpt>
      <trkpt lat="45.64747" lon="5.84652">
        <ele>391.39</ele>
        <time>2011-04-12T13:51:53Z</time>
      </trkpt>
      <trkpt lat="45.64745" lon="5.84666">
        <ele>388.51</ele>
        <time>2011-04-12T13:52:02Z</time>
      </trkpt>
      <trkpt lat="45.64747" lon="5.84671">
        <ele>387.07</ele>
        <time>2011-04-12T13:52:08Z</time>
      </trkpt>
      <trkpt lat="45.64746" lon="5.84681">
        <ele>384.66</ele>
        <time>2011-04-12T13:52:16Z</time>
      </trkpt>
      <trkpt lat="45.64734" lon="5.84709">
        <ele>381.3</ele>
        <time>2011-04-12T13:52:30Z</time>
      </trkpt>
      <trkpt lat="45.64732" lon="5.84714">
        <ele>380.34</ele>
        <time>2011-04-12T13:52:33Z</time>
      </trkpt>
      <trkpt lat="45.64728" lon="5.84736">
        <ele>377.94</ele>
        <time>2011-04-12T13:52:45Z</time>
      </trkpt>
      <trkpt lat="45.64729" lon="5.84754">
        <ele>374.57</ele>
        <time>2011-04-12T13:52:55Z</time>
      </trkpt>
      <trkpt lat="45.64729" lon="5.84765">
        <ele>373.13</ele>
        <time>2011-04-12T13:53:02Z</time>
      </trkpt>
      <trkpt lat="45.64729" lon="5.84783">
        <ele>370.24</ele>
        <time>2011-04-12T13:53:13Z</time>
      </trkpt>
      <trkpt lat="45.6473" lon="5.84794">
        <ele>368.8</ele>
        <time>2011-04-12T13:53:25Z</time>
      </trkpt>
      <trkpt lat="45.6473" lon="5.84794">
        <ele>369.76</ele>
        <time>2011-04-12T13:53:43Z</time>
      </trkpt>
      <trkpt lat="45.6473" lon="5.84795">
        <ele>369.28</ele>
        <time>2011-04-12T13:54:00Z</time>
      </trkpt>
      <trkpt lat="45.64728" lon="5.84803">
        <ele>368.8</ele>
        <time>2011-04-12T13:54:06Z</time>
      </trkpt>
      <trkpt lat="45.64729" lon="5.8481">
        <ele>367.84</ele>
        <time>2011-04-12T13:54:10Z</time>
      </trkpt>
      <trkpt lat="45.64725" lon="5.8483">
        <ele>364.96</ele>
        <time>2011-04-12T13:54:22Z</time>
      </trkpt>
      <trkpt lat="45.64719" lon="5.84849">
        <ele>362.07</ele>
        <time>2011-04-12T13:54:34Z</time>
      </trkpt>
      <trkpt lat="45.64716" lon="5.84866">
        <ele>359.67</ele>
        <time>2011-04-12T13:54:45Z</time>
      </trkpt>
      <trkpt lat="45.64716" lon="5.84865">
        <ele>359.67</ele>
        <time>2011-04-12T13:54:47Z</time>
      </trkpt>
      <trkpt lat="45.64716" lon="5.84868">
        <ele>359.67</ele>
        <time>2011-04-12T13:54:49Z</time>
      </trkpt>
      <trkpt lat="45.64709" lon="5.84892">
        <ele>356.79</ele>
        <time>2011-04-12T13:55:03Z</time>
      </trkpt>
      <trkpt lat="45.64705" lon="5.84916">
        <ele>353.9</ele>
        <time>2011-04-12T13:55:16Z</time>
      </trkpt>
      <trkpt lat="45.64703" lon="5.84936">
        <ele>351.5</ele>
        <time>2011-04-12T13:55:27Z</time>
      </trkpt>
      <trkpt lat="45.647" lon="5.84957">
        <ele>348.62</ele>
        <time>2011-04-12T13:55:39Z</time>
      </trkpt>
      <trkpt lat="45.64697" lon="5.8498">
        <ele>345.73</ele>
        <time>2011-04-12T13:55:52Z</time>
      </trkpt>
      <trkpt lat="45.64696" lon="5.85001">
        <ele>343.33</ele>
        <time>2011-04-12T13:56:05Z</time>
      </trkpt>
      <trkpt lat="45.64695" lon="5.85022">
        <ele>340.92</ele>
        <time>2011-04-12T13:56:17Z</time>
      </trkpt>
      <trkpt lat="45.64692" lon="5.85043">
        <ele>338.52</ele>
        <time>2011-04-12T13:56:29Z</time>
      </trkpt>
      <trkpt lat="45.64689" lon="5.85064">
        <ele>336.12</ele>
        <time>2011-04-12T13:56:41Z</time>
      </trkpt>
      <trkpt lat="45.64684" lon="5.85087">
        <ele>334.2</ele>
        <time>2011-04-12T13:56:54Z</time>
      </trkpt>
      <trkpt lat="45.6468" lon="5.85111">
        <ele>332.75</ele>
        <time>2011-04-12T13:57:07Z</time>
      </trkpt>
      <trkpt lat="45.64679" lon="5.85136">
        <ele>330.35</ele>
        <time>2011-04-12T13:57:20Z</time>
      </trkpt>
      <trkpt lat="45.64682" lon="5.85155">
        <ele>328.43</ele>
        <time>2011-04-12T13:57:31Z</time>
      </trkpt>
      <trkpt lat="45.64687" lon="5.85179">
        <ele>325.06</ele>
        <time>2011-04-12T13:57:44Z</time>
      </trkpt>
      <trkpt lat="45.64693" lon="5.85195">
        <ele>322.66</ele>
        <time>2011-04-12T13:57:54Z</time>
      </trkpt>
      <trkpt lat="45.64695" lon="5.85218">
        <ele>319.78</ele>
        <time>2011-04-12T13:58:06Z</time>
      </trkpt>
      <trkpt lat="45.64694" lon="5.85225">
        <ele>318.81</ele>
        <time>2011-04-12T13:58:11Z</time>
      </trkpt>
      <trkpt lat="45.64689" lon="5.85234">
        <ele>318.33</ele>
        <time>2011-04-12T13:58:16Z</time>
      </trkpt>
      <trkpt lat="45.64688" lon="5.85238">
        <ele>317.37</ele>
        <time>2011-04-12T13:58:18Z</time>
      </trkpt>
      <trkpt lat="45.64682" lon="5.85264">
        <ele>315.93</ele>
        <time>2011-04-12T13:58:32Z</time>
      </trkpt>
      <trkpt lat="45.64685" lon="5.85287">
        <ele>314.01</ele>
        <time>2011-04-12T13:58:45Z</time>
      </trkpt>
      <trkpt lat="45.64695" lon="5.85292">
        <ele>312.57</ele>
        <time>2011-04-12T13:58:54Z</time>
      </trkpt>
      <trkpt lat="45.64705" lon="5.85304">
        <ele>309.2</ele>
        <time>2011-04-12T13:59:05Z</time>
      </trkpt>
      <trkpt lat="45.64705" lon="5.85306">
        <ele>309.68</ele>
        <time>2011-04-12T13:59:06Z</time>
      </trkpt>
      <trkpt lat="45.64708" lon="5.85326">
        <ele>306.32</ele>
        <time>2011-04-12T13:59:18Z</time>
      </trkpt>
      <trkpt lat="45.64709" lon="5.85331">
        <ele>305.84</ele>
        <time>2011-04-12T13:59:21Z</time>
      </trkpt>
      <trkpt lat="45.64709" lon="5.85338">
        <ele>304.88</ele>
        <time>2011-04-12T13:59:25Z</time>
      </trkpt>
      <trkpt lat="45.64709" lon="5.85357">
        <ele>300.55</ele>
        <time>2011-04-12T13:59:37Z</time>
      </trkpt>
      <trkpt lat="45.64711" lon="5.85372">
        <ele>298.63</ele>
        <time>2011-04-12T13:59:47Z</time>
      </trkpt>
      <trkpt lat="45.64711" lon="5.85389">
        <ele>296.22</ele>
        <time>2011-04-12T13:59:59Z</time>
      </trkpt>
      <trkpt lat="45.64716" lon="5.85404">
        <ele>293.82</ele>
        <time>2011-04-12T14:00:11Z</time>
      </trkpt>
      <trkpt lat="45.64722" lon="5.8542">
        <ele>291.9</ele>
        <time>2011-04-12T14:00:22Z</time>
      </trkpt>
      <trkpt lat="45.64734" lon="5.85437">
        <ele>288.53</ele>
        <time>2011-04-12T14:00:37Z</time>
      </trkpt>
      <trkpt lat="45.64742" lon="5.85454">
        <ele>285.17</ele>
        <time>2011-04-12T14:00:49Z</time>
      </trkpt>
      <trkpt lat="45.64745" lon="5.85473">
        <ele>283.73</ele>
        <time>2011-04-12T14:01:01Z</time>
      </trkpt>
      <trkpt lat="45.64749" lon="5.85489">
        <ele>282.28</ele>
        <time>2011-04-12T14:01:12Z</time>
      </trkpt>
      <trkpt lat="45.64751" lon="5.85504">
        <ele>279.88</ele>
        <time>2011-04-12T14:01:21Z</time>
      </trkpt>
      <trkpt lat="45.64755" lon="5.85523">
        <ele>277</ele>
        <time>2011-04-12T14:01:33Z</time>
      </trkpt>
      <trkpt lat="45.6476" lon="5.85541">
        <ele>274.11</ele>
        <time>2011-04-12T14:01:45Z</time>
      </trkpt>
      <trkpt lat="45.64767" lon="5.85554">
        <ele>272.19</ele>
        <time>2011-04-12T14:01:55Z</time>
      </trkpt>
      <trkpt lat="45.64768" lon="5.85555">
        <ele>271.71</ele>
        <time>2011-04-12T14:01:56Z</time>
      </trkpt>
      <trkpt lat="45.64772" lon="5.85562">
        <ele>270.27</ele>
        <time>2011-04-12T14:02:02Z</time>
      </trkpt>
      <trkpt lat="45.6478" lon="5.85579">
        <ele>268.83</ele>
        <time>2011-04-12T14:02:14Z</time>
      </trkpt>
      <trkpt lat="45.6479" lon="5.85593">
        <ele>267.38</ele>
        <time>2011-04-12T14:02:25Z</time>
      </trkpt>
      <trkpt lat="45.64799" lon="5.85613">
        <ele>265.94</ele>
        <time>2011-04-12T14:02:38Z</time>
      </trkpt>
      <trkpt lat="45.64806" lon="5.85633">
        <ele>265.46</ele>
        <time>2011-04-12T14:02:49Z</time>
      </trkpt>
      <trkpt lat="45.64817" lon="5.85657">
        <ele>264.02</ele>
        <time>2011-04-12T14:03:03Z</time>
      </trkpt>
      <trkpt lat="45.64824" lon="5.85682">
        <ele>262.58</ele>
        <time>2011-04-12T14:03:16Z</time>
      </trkpt>
      <trkpt lat="45.6483" lon="5.85702">
        <ele>261.14</ele>
        <time>2011-04-12T14:03:28Z</time>
      </trkpt>
      <trkpt lat="45.64838" lon="5.85723">
        <ele>259.21</ele>
        <time>2011-04-12T14:03:39Z</time>
      </trkpt>
      <trkpt lat="45.64842" lon="5.85746">
        <ele>257.77</ele>
        <time>2011-04-12T14:03:51Z</time>
      </trkpt>
      <trkpt lat="45.64842" lon="5.85775">
        <ele>256.81</ele>
        <time>2011-04-12T14:04:04Z</time>
      </trkpt>
      <trkpt lat="45.64843" lon="5.858">
        <ele>254.41</ele>
        <time>2011-04-12T14:04:16Z</time>
      </trkpt>
      <trkpt lat="45.64842" lon="5.85824">
        <ele>253.44</ele>
        <time>2011-04-12T14:04:28Z</time>
      </trkpt>
      <trkpt lat="45.64842" lon="5.85845">
        <ele>252</ele>
        <time>2011-04-12T14:04:38Z</time>
      </trkpt>
      <trkpt lat="45.64846" lon="5.85863">
        <ele>251.52</ele>
        <time>2011-04-12T14:04:49Z</time>
      </trkpt>
      <trkpt lat="45.6485" lon="5.85885">
        <ele>250.08</ele>
        <time>2011-04-12T14:05:02Z</time>
      </trkpt>
      <trkpt lat="45.64855" lon="5.85909">
        <ele>247.68</ele>
        <time>2011-04-12T14:05:15Z</time>
      </trkpt>
      <trkpt lat="45.64859" lon="5.8593">
        <ele>246.23</ele>
        <time>2011-04-12T14:05:26Z</time>
      </trkpt>
      <trkpt lat="45.64864" lon="5.85948">
        <ele>245.75</ele>
        <time>2011-04-12T14:05:36Z</time>
      </trkpt>
      <trkpt lat="45.64872" lon="5.85967">
        <ele>245.27</ele>
        <time>2011-04-12T14:05:48Z</time>
      </trkpt>
      <trkpt lat="45.64872" lon="5.85968">
        <ele>245.27</ele>
        <time>2011-04-12T14:05:49Z</time>
      </trkpt>
      <trkpt lat="45.64854" lon="5.85985">
        <ele>244.31</ele>
        <time>2011-04-12T14:05:57Z</time>
      </trkpt>
      <trkpt lat="45.64848" lon="5.85983">
        <ele>244.79</ele>
        <time>2011-04-12T14:06:02Z</time>
      </trkpt>
      <trkpt lat="45.64832" lon="5.85984">
        <ele>244.31</ele>
        <time>2011-04-12T14:06:15Z</time>
      </trkpt>
      <trkpt lat="45.64817" lon="5.85992">
        <ele>244.31</ele>
        <time>2011-04-12T14:06:28Z</time>
      </trkpt>
      <trkpt lat="45.64816" lon="5.85993">
        <ele>244.31</ele>
        <time>2011-04-12T14:06:29Z</time>
      </trkpt>
      <trkpt lat="45.64803" lon="5.86005">
        <ele>244.31</ele>
        <time>2011-04-12T14:06:41Z</time>
      </trkpt>
      <trkpt lat="45.64787" lon="5.86008">
        <ele>244.79</ele>
        <time>2011-04-12T14:06:53Z</time>
      </trkpt>
      <trkpt lat="45.64777" lon="5.86013">
        <ele>244.79</ele>
        <time>2011-04-12T14:07:02Z</time>
      </trkpt>
      <trkpt lat="45.64776" lon="5.86017">
        <ele>244.79</ele>
        <time>2011-04-12T14:07:05Z</time>
      </trkpt>
      <trkpt lat="45.64778" lon="5.86044">
        <ele>243.83</ele>
        <time>2011-04-12T14:07:17Z</time>
      </trkpt>
      <trkpt lat="45.64779" lon="5.86068">
        <ele>243.35</ele>
        <time>2011-04-12T14:07:29Z</time>
      </trkpt>
      <trkpt lat="45.6478" lon="5.86091">
        <ele>242.39</ele>
        <time>2011-04-12T14:07:40Z</time>
      </trkpt>
      <trkpt lat="45.64777" lon="5.86112">
        <ele>241.91</ele>
        <time>2011-04-12T14:07:50Z</time>
      </trkpt>
      <trkpt lat="45.64776" lon="5.86118">
        <ele>241.91</ele>
        <time>2011-04-12T14:07:52Z</time>
      </trkpt>
      <trkpt lat="45.64775" lon="5.86125">
        <ele>241.91</ele>
        <time>2011-04-12T14:07:56Z</time>
      </trkpt>
      <trkpt lat="45.64777" lon="5.86151">
        <ele>240.47</ele>
        <time>2011-04-12T14:08:09Z</time>
      </trkpt>
      <trkpt lat="45.6478" lon="5.86171">
        <ele>239.51</ele>
        <time>2011-04-12T14:08:19Z</time>
      </trkpt>
      <trkpt lat="45.64781" lon="5.86184">
        <ele>240.47</ele>
        <time>2011-04-12T14:08:32Z</time>
      </trkpt>
      <trkpt lat="45.6478" lon="5.86184">
        <ele>239.51</ele>
        <time>2011-04-12T14:08:44Z</time>
      </trkpt>
      <trkpt lat="45.6478" lon="5.86185">
        <ele>239.51</ele>
        <time>2011-04-12T14:08:54Z</time>
      </trkpt>
      <trkpt lat="45.64781" lon="5.86187">
        <ele>239.51</ele>
        <time>2011-04-12T14:09:07Z</time>
      </trkpt>
      <trkpt lat="45.64782" lon="5.86189">
        <ele>239.51</ele>
        <time>2011-04-12T14:09:23Z</time>
      </trkpt>
      <trkpt lat="45.64779" lon="5.86192">
        <ele>239.02</ele>
        <time>2011-04-12T14:09:30Z</time>
      </trkpt>
      <trkpt lat="45.64773" lon="5.862">
        <ele>239.02</ele>
        <time>2011-04-12T14:09:42Z</time>
      </trkpt>
      <trkpt lat="45.64773" lon="5.862">
        <ele>237.1</ele>
        <time>2011-04-12T14:09:55Z</time>
      </trkpt>
      <trkpt lat="45.64773" lon="5.862">
        <ele>237.1</ele>
        <time>2011-04-12T14:10:21Z</time>
      </trkpt>
      <trkpt lat="45.64774" lon="5.862">
        <ele>237.1</ele>
        <time>2011-04-12T14:10:46Z</time>
      </trkpt>
      <trkpt lat="45.64774" lon="5.86199">
        <ele>237.1</ele>
        <time>2011-04-12T14:11:13Z</time>
      </trkpt>
      <trkpt lat="45.64774" lon="5.86199">
        <ele>237.1</ele>
        <time>2011-04-12T14:11:33Z</time>
      </trkpt>
      <trkpt lat="45.64775" lon="5.86199">
        <ele>237.1</ele>
        <time>2011-04-12T14:11:57Z</time>
      </trkpt>
      <trkpt lat="45.64775" lon="5.86199">
        <ele>236.62</ele>
        <time>2011-04-12T14:12:18Z</time>
      </trkpt>
      <trkpt lat="45.64774" lon="5.86199">
        <ele>237.1</ele>
        <time>2011-04-12T14:12:36Z</time>
      </trkpt>
      <trkpt lat="45.64774" lon="5.86199">
        <ele>238.06</ele>
        <time>2011-04-12T14:12:51Z</time>
      </trkpt>
      <trkpt lat="45.64774" lon="5.86199">
        <ele>237.1</ele>
        <time>2011-04-12T14:13:07Z</time>
      </trkpt>
      <trkpt lat="45.64774" lon="5.86198">
        <ele>236.14</ele>
        <time>2011-04-12T14:13:23Z</time>
      </trkpt>
      <trkpt lat="45.64774" lon="5.86198">
        <ele>235.66</ele>
        <time>2011-04-12T14:13:42Z</time>
      </trkpt>
    </trkseg>
  </trk>
</gpx>